     2              OBSERVATION DATA    GPS                 RINEX VERSION / TYPE
TRRINEXO V2.4.6 UX                                          PGM / RUN BY / DATE
                                                            COMMENT
Original Marker Name: cal5                                  COMMENT
Campaign Name: STRC 1995                                    COMMENT
4-Character Station Name: CAL5                              COMMENT
6-Character Antenna Code: TRMSST                            COMMENT
Vertical Measurement Point: TGP                             COMMENT
Vertical Offset to Rinex Ref. Point: 0.0629                 COMMENT
Radial Measurement Point: NGP                               COMMENT
Radial Offset to Rinex Ref. Point: 0.2334                   COMMENT
Antenna Height from Field Measurement: 0.9960 m             COMMENT
Original XYZ: -2301438.0313 -4823209.3384 3469560.1289      COMMENT
New XYZ position is based on association with SCEC monument COMMENT
E1D0I4J4+0015. Position of that monument is believed to be  COMMENT
valid to within 1 m horizontally; vertical accuracy         COMMENT
should be no worse than 3-times this value.                 COMMENT
                                                            COMMENT
Revised Rinex header created by UCSD GPS archive for        COMMENT
GSAC on 17-Jul-2000 (2000:199) 23:39:19 GMT                 COMMENT
For assistance contact dagnew@ucsd.edu or hjohnson@ucsd.edu COMMENT
                                                            COMMENT
CALIPATRIA 2 NO 5 1948                                      MARKER NAME
CALIPATRIA 2 NO 5                                           MARKER NUMBER
K. Feaux UNAVCO                                             OBSERVER / AGENCY
1053 TRIMBLE 4000 SST 4.81                                  REC # / TYPE / VERS
25 TR 4000SST L1/L2 GEO                                     ANT # / TYPE
 -2301465.1619 -4823239.2945  3469580.0936                  APPROX POSITION XYZ
        0.9054        0.0000        0.0000                  ANTENNA: DELTA H/E/N
     1     2     0                                          WAVELENGTH FACT L1/2
     3    C1    L1    L2                                    # / TYPES OF OBSERV
    30                                                      INTERVAL
  1995     2    19    17    45   30.000000                  TIME OF FIRST OBS
  1995     2    19    22    44   30.000000                  TIME OF LAST OBS
     0                                                      # OF SATELLITES
                                                            END OF HEADER
 95  2 19 17 45 30.0000000  0  5 22 14 19 18 29
  21366086.531          -0.87017
  20573152.523          -0.55417
  23640523.477          -0.87915
  22773907.297          -0.52216
  21212796.258          -0.35517
 95  2 19 17 46  0.0000000  0  5 22 14 19 18 29
  21364279.852       -9488.562 7        -0.25618
  20573082.984        -361.491 7
  23619095.102     -112588.355 5
  22752970.148     -110021.988 5        -0.37015
  21199096.312      -71997.169 7        -0.13519
 95  2 19 17 46 30.0000000  0  5 22 14 19 18 29
  21362623.953      -18203.429 7     -6791.077 8
  20573150.758          -4.177 7
  23597744.828     -224793.607 5        -0.12012
  22732077.758     -219819.809 6    -85557.083 6
  21185455.141     -143683.800 7    -55859.844 9
 95  2 19 17 47  0.0000000  0  5 22 14 19 18 29
  21361114.281      -26149.391 7    -12982.745 8
  20573348.680        1071.642 7        -0.44418
  23576472.695     -336597.807 5    -87120.249 2
  22711226.859     -329374.018 5   -170923.969 6
  21171874.586     -215048.866 7   -111468.981 9
 95  2 19 17 47 30.0000000  0  5 22 14 19 18 29
  21359748.570      -33324.029 7    -18573.380 8
  20573694.086        2867.419 7      1398.835 8
  23555273.594     -447995.594 5   -173923.647 3
  22690432.312     -438669.897 6   -256089.549 6
  21158360.820     -286069.266 7   -166809.557 9
 95  2 19 17 48  0.0000000  0  5 22 14 19 18 29
  21358527.656      -39739.538 7    -23572.487 8
  20574174.297        5380.257 7      3356.864 8
  23534141.406     -559021.748 5   -260437.504 3
  22669680.984     -547708.481 6   -341054.646 6
  21144909.797     -356750.995 7   -221886.225 9
 95  2 19 17 48 30.0000000  0  5 22 14 19 18 29
  21357445.539      -45409.657 7    -27990.777 8
  20574790.734        8619.544 7      5880.959 8
  23513086.680     -669680.944 5   -346665.405 4
  22648980.180     -656496.014 6   -425824.119 6
  21131528.062     -427076.984 7   -276685.695 9
 95  2 19 17 49  0.0000000  0  5 22 14 19 18 29
  21356514.633      -50313.948 7    -31812.311 8
  20575546.711       12603.539 7      8985.342 8
  23492102.844     -779951.400 5   -432590.368 4
  22628329.602     -765014.737 6   -510384.127 6
  21118218.742     -497017.096 7   -331184.483 9
 95  2 19 17 49 30.0000000  0  5 22 14 19 18 29
  21355729.242      -54446.497 7    -35032.493 8
  20576445.820       17332.432 7     12670.165 8
  23471193.484     -889841.494 5   -518218.953 5
  22607725.688     -873280.194 6   -594746.780 6
  21104983.578     -566566.610 7   -385378.910 9
 95  2 19 17 50  0.0000000  0  5 22 14 19 18 29
  21355087.133      -57824.586 7    -37664.780 8
  20577485.609       22791.193 7     16923.718 8
  23450350.820     -999367.132 5   -603563.547 5
  22587168.305     -981316.530 6   -678930.905 6
  21091819.438     -635739.515 7   -439279.870 9
 95  2 19 17 50 30.0000000  0  5 22 14 19 18 29
  21354587.047      -60421.754 7    -39688.559 8
  20578667.367       28994.892 7     21757.739 8
  23429584.602    -1108490.275 5   -688594.515 5
  22566660.383    -1089096.208 6   -762915.033 6
  21078731.992     -704515.554 7   -492871.591 9
 95  2 19 17 51  0.0000000  0  5 22 14 19 18 29
  21354244.875      -62249.954 7    -41113.145 8
  20579982.102       35914.559 7     27149.664 8
  23408888.086    -1217239.764 5   -773334.337 5
  22546194.719    -1196634.182 6   -846710.824 6
  21065711.219     -772935.478 7   -546185.823 9
 95  2 19 17 51 30.0000000  0  5 22 14 19 18 29
  21354040.977      -63310.634 7    -41939.654 8
  20581438.188       43562.032 7     33108.710 8
  23388265.078    -1325624.809 5   -857790.169 5
  22525778.125    -1303926.293 6   -930315.045 6
  21052761.039     -840998.455 7   -599221.901 9
 95  2 19 17 52  0.0000000  0  5 22 14 19 18 29
  21353984.789      -63610.182 7
  20583034.875       51941.572 7     39638.188 8
  23367707.234    -1433640.935 5   -941958.516 5
  22505408.711    -1410959.742 6  -1013717.698 6
  21039875.297     -908714.266 7   -651987.460 9
 95  2 19 17 52 30.0000000  0  5 22 14 19 18 29
  21354069.047      -63165.701 7
  20584765.906       61048.182 7     46734.219 8
  23347226.570    -1541280.983 5  -1025833.827 5
  22485089.938    -1517743.056 6  -1096925.441 6
  21027049.000     -976107.427 7   -704501.609 9
 95  2 19 17 53  0.0000000  0  5 22 14 19 18 29
  21354290.141      -61993.000 7    -40912.972 8
  20586637.305       70875.053 7     54391.494 8
  23326813.656    -1648553.278 5  -1109422.604 4
  22464815.078    -1624290.532 6  -1179949.410 6
  21014287.578    -1043178.653 7   -756764.902 9
 95  2 19 17 53 30.0000000  0  5 22 14 19 18 29
  21354650.414      -60107.386 7    -39443.672 8
  20588642.086       81416.020 7     62605.208 8
  23306469.250    -1755455.270 5  -1192722.812 4
  22444581.758    -1730604.955 6  -1262791.777 6
  21001586.867    -1109917.676 7   -808769.331 9
 95  2 19 17 54  0.0000000  0  5 22 14 19 18 29
  21355141.281      -57531.717 7    -37436.669 8
  20590778.234       92651.081 7     71359.772 8
  23286194.172    -1861993.803 5  -1275739.795 5
  22424393.375    -1836704.577 6  -1345466.771 6
  20988947.352    -1176336.444 7   -860524.210 9
 95  2 19 17 54 30.0000000  0  5 22 14 19 18 29
  21355759.391      -54269.468 7    -34894.662 8
  20593052.812      104576.825 7     80652.541 8
  23265991.469    -1968173.637 5  -1358477.265 5
  22404243.375    -1942595.815 6  -1427979.391 6
  20976372.820    -1242415.367 7   -912014.279 9
 95  2 19 17 55  0.0000000  0  5 22 14 19 18 29
  21356514.523      -50322.632 7    -31819.206 8
  20595445.453      117171.388 7     90466.455 8
  23245847.836    -2074025.023 5
  22384131.227    -2048277.555 6
  20963865.828    -1308142.533 7   -963230.249 9
 95  2 19 17 55 30.0000000  0  5 22 14 19 18 29
  21357396.578      -45687.246 7    -28207.230 8
  20597969.094      130427.299 7    100795.709 8
  23225774.914    -2179552.842 5
  22364060.141    -2153744.400 6
  20951424.672    -1373523.150 7  -1014176.178 9
 95  2 19 17 56  0.0000000  0  5 22 14 19 18 29
  21358410.227      -40342.940 7    -24042.848 8
  20600619.609      144355.745 7    111649.019 8
  23205750.203    -2284742.890 5
  22344032.977    -2258990.002 6
  20939049.594    -1438554.003 7  -1064849.571 9
 95  2 19 17 56 30.0000000  0  5 22 14 19 18 29
  21359569.313      -34272.213 7    -19312.418 8
  20603395.023      158954.675 7    123024.777 8
  23185796.492    -2389592.415 5  -1686855.335 5
  22324053.797    -2363994.679 6  -1756341.997 6
  20926738.000    -1503248.880 7  -1115261.153 9
 95  2 19 17 57  0.0000000  0  5 22 14 19 18 29
  21360858.227      -27476.873 7    -14017.357 8
  20606300.828      174205.057 7    134908.162 8
  23165911.836    -2494104.750 5  -1768293.468 5
  22304116.180    -2468764.654 6  -1837980.919 6
  20914485.508    -1567638.537 7  -1165434.903 9
 95  2 19 17 57 30.0000000  0  5 22 14 19 18 29
  21362292.109      -19959.349 7     -8159.559 8
  20609327.977      190131.944 7    147318.686 8
  23146088.281    -2598266.056 5  -1849458.046 5
  22284222.766    -2573306.015 6  -1919441.686 6
  20902289.914    -1631731.795 7  -1215377.702 9
 95  2 19 17 58  0.0000000  0  5 22 14 19 18 29
  21363851.281      -11753.725 7     -1765.578 8
  20612489.984      206724.607 7    160248.002 8
  23126327.211    -2702101.149 5  -1930368.442 5
  22264366.758    -2677641.189 6  -2000741.796 6
  20890143.086    -1695560.545 7  -1265114.386 9
 95  2 19 17 58 30.0000000  0  5 22 14 19 18 29
  21365545.742       -2857.194 7      5166.773 8
  20615771.500      223985.365 7    173697.921 8
  23106630.016    -2805612.991 5  -2011026.938 5
  22244554.180    -2781764.958 6  -2081877.174 6
  20878050.523    -1759104.395 7  -1314629.070 8
 95  2 19 17 59  0.0000000  0  5 22 14 19 18 29
  21367370.867        6721.585 7     12630.730 8
  20619184.445      241924.468 7    187676.412 8
  23086994.898    -2908798.719 5  -2091431.333 5
  22224776.562    -2885690.704 6  -2162858.253 6
  20866015.609    -1822345.212 7  -1363907.636 9
 95  2 19 17 59 30.0000000  0  5 22 14 19 18 29
  21369319.703       16976.107 7     20621.249 8
  20622732.938      260552.769 7    202191.940 8
  23067421.055    -3011664.469 5  -2171586.405 5
  22205039.625    -2989419.442 6  -2243685.811 6
  20854043.891    -1885266.315 7  -1412937.068 9
 95  2 19 18  0  0.0000000  0  5 22 14 19 18 29
  21371404.906       27915.833 7     29145.687 8
  20626400.086      279845.749 7    217225.395 8
  23047907.695    -3114212.732 5  -2251494.062 5
  22185338.242    -3092932.227 6  -2324345.120 6
  20842131.609    -1947856.048 7  -1461708.300 9
 95  2 19 18  0 30.0000000  0  5 22 14 19 18 29
  21373615.141       39558.553 7     38217.927 8
  20630200.773      299798.587 7    232773.034 8
  23028456.375    -3216426.516 5  -2331141.092 5
  22165687.406    -3196212.712 6  -2404823.397 6
  20830292.539    -2010087.210 7  -1510200.110 9
 95  2 19 18  1  0.0000000  0  5 22 14 19 18 29
  21375965.453       51894.204 7     47830.089 8
  20634123.406      320415.730 7    248838.309 8
  23009068.531    -3318301.776 5  -2410524.352 5
  22146082.789    -3299239.984 6  -2485104.367 6
  20818515.094    -2071962.067 7  -1558414.295 9
 95  2 19 18  1 29.9990000  0  5 22 14 19 18 29
  21378438.972       64895.841 7     57961.217 8
  20638166.769      341666.858 7    265397.590 8
  22989743.112    -3419859.496 5  -2489660.166 5
  22126524.573    -3402022.680 6  -2565194.731 6
  20806805.675    -2133492.423 7  -1606360.037 9
 95  2 19 18  1 59.9990000  0  5 22 14 19 18 29
  21381033.448       78546.135 7     68597.788 8
  20642328.237      363525.608 7    282430.351 8
  22970474.792    -3521118.407 5  -2568563.163 5
  22107006.690    -3504583.795 6  -2645112.462 6
  20795160.558    -2194701.083 7  -1654055.095 9
 95  2 19 18  2 29.9990000  0  5 22 14 19 18 29
  21383754.855       92835.486 7     79732.319 8
  20646603.253      386002.798 7    299945.017 8
  22951266.104    -3622061.006 5  -2647219.690 5
  22087527.425    -3606944.677 6  -2724874.171 6
  20783574.464    -2255584.102 7  -1701496.416 9
 95  2 19 18  2 59.9990000  0  5 22 14 19 18 29
  21386591.370      107733.995 6     91341.516 8
  20650991.714      409066.885 7    317917.001 8
  22932110.675    -3722722.129 5  -2725656.883 5
  22068078.308    -3709153.246 6  -2804517.177 6
  20772045.073    -2316169.675 7  -1748705.955 9
 95  2 19 18  3 29.9990000  0  5 22 14 19 18 29
  21389551.206      123303.363 7    103473.465 8
  20655500.589      432755.665 7    336375.763 8
  22913016.597    -3823056.736 5  -2803839.641 5
  22048664.073    -3811177.523 6  -2884016.586 6
  20760581.167    -2376415.731 7  -1795650.930 9
 95  2 19 18  3 59.9990000  0  5 22 14 19 18 29
  21392642.675      139539.102 7    116124.666 8
  20660123.511      457046.849 7    355303.913 8
  22893981.167    -3923083.393 5  -2881782.435 5
  22029283.183    -3913022.549 6  -2963376.315 6
  20749175.823    -2436347.628 7  -1842351.102 9
 95  2 19 18  4 29.9990000  0  5 22 14 19 18 29
  21395853.737      156407.970 6    129269.209 8
  20664857.065      481927.070 7    374691.063 8
  22875000.894    -4022835.687 5  -2959511.460 5
  22009934.628    -4014699.295 6  -3042604.920 6
  20737826.276    -2495994.826 7  -1888829.430 9
 95  2 19 18  4 59.9990000  0  5 22 14 19 18 29
  21399190.222      173931.441 6    142923.843 8
  20669707.151      507425.990 7    394560.316 8
  22856075.683    -4122294.658 5  -3037011.902 5
  21990629.769    -4116148.332 6  -3121656.093 6
  20726533.823    -2555340.768 7  -1935073.016 9
 95  2 19 18  5 29.9990000  0  5 22 14 19 18 29
  21402640.370      192076.961 6    157063.188 8
  20674679.151      533537.042 7    414906.560 8
  22837204.253    -4221460.252 5  -3114283.762 5
  21971369.433    -4217362.870 6  -3200524.544 6
  20715293.948    -2614404.613 7  -1981096.794 9
 95  2 19 18  5 59.9990000  0  5 22 14 19 18 29
  21406207.370      210819.352 7    171667.622 8
  20679766.011      560267.385 7    435735.361 8
  22818390.854    -4320317.397 5  -3191315.265 5
  21952152.722    -4318348.863 6  -3279214.904 6
  20704106.542    -2673186.736 7  -2026901.045 9
 95  2 19 18  6 29.9990000  0  5 22 14 19 18 29
  21409884.073      230153.885 7    186733.475 8
  20684971.315      587619.811 7    457048.903 8
  22799643.706    -4418845.213 5  -3268090.143 5
  21932977.331    -4419115.788 6  -3357734.559 6
  20692977.581    -2731673.474 7  -2072475.117 9
 95  2 19 18  6 59.9990000  0  5 22 14 19 18 29
  21413680.761      250092.391 7    202269.953 8
  20690291.128      615577.721 7    478834.258 8
  22780954.792    -4517037.227 5  -3344603.360 5
  21913842.253    -4519668.281 6  -3436087.121 6
  20681906.026    -2789857.486 7  -2117813.302 8
 95  2 19 18  7 29.9990000  0  5 22 14 19 18 29
  21417590.472      270633.632 7    218276.085 8
  20695722.144      644129.289 7    501082.193 8
  22762332.034    -4614910.131 5  -3420867.921 5
  21894746.339    -4620025.862 6  -3514287.822 6
  20670888.761    -2847747.003 7  -2162922.020 9
 95  2 19 18  7 59.9990000  0  5 22 14 19 18 29
  21421617.011      291805.238 7    234773.425 8
  20701270.354      673275.704 7    523793.652 8
  22743770.644    -4712464.263 5  -3496884.108 5
  21875686.925    -4720169.707 6  -3592321.958 6
  20659934.136    -2905319.341 7  -2207783.567 9
 95  2 19 18  8 29.9990000  0  5 22 14 19 18 29
  21425763.940      313588.769 7    251747.584 8
  20706924.597      702984.615 7    546943.421 8
  22725255.214    -4809745.107 5  -3572687.332 5
  21856669.058    -4820115.595 6  -3670201.859 6
  20649035.190    -2962588.881 7  -2252409.183 9
 95  2 19 18  8 59.9990000  0  5 22 14 19 18 29
  21430022.722      335979.144 7    269194.612 8
  20712687.878      733270.282 7    570542.605 8
  22706795.081    -4906756.679 5  -3648280.743 5
  21837689.651    -4919855.713 6  -3747921.419 7
  20638196.472    -3019547.598 7  -2296792.593 9
 95  2 19 18  9 29.9990000  0  5 22 14 19 18 29
  21434397.901      358969.205 7    287108.922 8
  20718562.800      764138.637 7    594595.829 8
  22688386.847    -5003489.322 5  -3723656.790 5
  21818746.347    -5019402.943 6  -3825490.663 7
  20627419.675    -3076177.700 7  -2340919.941 9
 95  2 19 18  9 59.9990000  0  5 22 14 19 18 29
  21438886.831      382551.553 7    305484.754 8
  20724545.573      795583.496 7    619098.283 8
  22670032.401    -5099943.797 5  -3798816.110 5
  21799836.667    -5118770.994 6  -3902920.292 7
  20616708.909    -3132465.652 7  -2384780.680 9
 95  2 19 18 10 29.9990000  0  5 22 14 19 18 29
  21443487.901      406724.527 7    324320.817 7
  20730640.948      827619.052 7    644061.016 8
  22651736.308    -5196109.569 5  -3873750.434 5
  21780959.354    -5217970.030 6  -3980218.216 7
  20606060.550    -3188423.222 7  -2428383.981 9
 95  2 19 18 10 59.9990000  0  5 22 14 19 18 29
  21448203.440      431503.302 7    343628.925 8
  20736853.073      860265.870 7    669500.056 8
  22633492.206    -5291967.782 5  -3948445.117 6
  21762117.104    -5316992.187 6  -4057378.334 7
  20595473.206    -3244058.752 7  -2471736.343 9
 95  2 19 18 11 29.9990000  0  5 22 14 19 18 29
  21453033.034      456883.052 7    363405.330 8
  20743175.940      893501.169 7    695397.654 8
  22615306.511    -5387544.921 5  -4022920.771 6
  21743303.823    -5415843.846 6  -4134405.579 7
  20584943.409    -3299396.013 7  -2514856.288 8
 95  2 19 18 11 59.9990000  0  5 22 14 19 18 29
  21457975.972      482861.318 7    383648.106 8
  20749612.284      927319.220 7    721749.336 8
  22597169.909    -5482854.802 5  -4097188.167 6
  21724530.667    -5514510.023 6  -4211288.305 7
  20574463.026    -3354461.392 7  -2557764.382 8
 95  2 19 18 12 29.9990000  0  5 22 14 19 18 29
  21463033.042      509438.131 7    404357.277 7
  20756156.979      961716.664 7    748552.493 8
  22579082.628    -5577895.482 5  -4171245.800 5
  21705792.573    -5612976.788 6  -4288015.629 7
  20564037.495    -3409254.475 7  -2600460.301 8
 95  2 19 18 12 59.9990000  0  5 22 14 19 18 29
  21468203.753      536609.776 7    425529.955 8
  20762810.550      996679.958 7    775796.573 8
  22561048.901    -5672673.728 5  -4245098.938 5
  21687095.128    -5711223.818 6  -4364571.734 7
  20553668.339    -3463746.598 7  -2642921.692 8
 95  2 19 18 13 29.9990000  0  5 22 14 19 18 29
  21473483.511      564353.125 7    447148.126 7
  20769566.206     1032172.711 7    803453.224 8
  22543060.065    -5767196.299 5  -4318752.853 5
  21668442.667    -5809249.433 6  -4440955.316 7
  20543358.464    -3517924.518 7  -2685138.257 9
 95  2 19 18 13 59.9990000  0  5 22 14 19 18 29
  21478866.761      592649.474 7    469197.195 7
  20776419.378     1068186.439 7    831515.826 8
  22525119.651    -5861460.822 5  -4392205.684 5
  21649830.925    -5907058.678 6  -4517170.294 7
  20533108.347    -3571792.168 7  -2727113.051 8
 95  2 19 18 14 29.9990000  0  5 22 14 19 18 29
  21484355.261      621488.289 7    491668.963 7
  20783372.987     1104725.192 7    859987.534 8
  22507237.370    -5955453.384 5  -4465446.604 5
  21631260.917    -6004645.932 6  -4593212.286 7
  20522918.065    -3625340.268 7  -2768838.854 8
 95  2 19 18 14 59.9990000  0  5 22 14 19 18 29
  21489945.448      650864.658 7    514559.608 7
  20790424.222     1141785.448 7    888865.611 8
  22489403.542    -6049163.324 5  -4538467.282 5
  21612732.159    -6102018.914 6  -4669087.313 7
  20512786.620    -3678580.397 7  -2810324.670 8
 95  2 19 18 15 29.9990000  0  5 22 14 19 18 29
  21495637.190      680779.774 7    537870.054 7
  20797575.230     1179366.191 6    918149.261 8
  22471623.690    -6142589.736 5  -4611267.035 6
  21594237.019    -6199199.214 6  -4744812.194 7
  20502711.159    -3731536.766 7  -2851589.379 8
 95  2 19 18 15 59.9990000  0  5 22 14 19 18 29
  21501437.604      711254.132 7    561616.281 7
  20804828.315     1217488.470 6    947854.895 8
  22453901.175    -6235727.621 5  -4683841.948 5
  21575780.839    -6296188.101 6  -4820387.940 7
  20492687.362    -3784207.990 7  -2892631.903 8
 95  2 19 18 16 29.9990000  0  6 22 14 19 18 29 28
  21507342.019      742278.244 7    585790.880 7
  20812186.097     1256143.329 6    977975.513 8
  22436230.448    -6328585.534 5  -4756198.723 5
  21557358.362    -6393002.309 6  -4895827.543 7
  20482719.776    -3836581.986 7  -2933442.803 8
  24585978.534          -0.46213
 95  2 19 18 16 59.9990000  0  6 22 14 19 18 29 28
  21513355.776      773876.974 7    610413.235 7
  20819643.206     1295336.625 6   1008515.687 8
  22418608.925    -6421172.984 5  -4828344.734 6
  21538970.526    -6489642.778 6  -4971131.787 7
  20472812.901    -3888641.245 7  -2974008.473 8
  24567256.886      -98400.602 2
 95  2 19 18 17 29.9990000  0  6 22 14 19 18 29 28
  21519477.034      806044.396 7    635478.728 7
  20827204.042     1335067.151 6   1039474.489 8
  22401042.542    -6513507.107 5  -4900293.361 6
  21520612.050    -6586105.480 6  -5046297.508 7
  20462968.292    -3940380.790 7  -3014325.007 9
  24548553.151     -196674.347 2
 95  2 19 18 17 59.9990000  0  6 22 14 19 18 29 28
  21525704.292      838765.190 7    660975.421 7
  20834868.276     1375345.802 6   1070860.391 8
  22383519.300    -6605580.407 5  -4972038.731 6
  21502292.683    -6682372.153 6  -5121310.470 7
  20453185.604    -3991788.212 7  -3054382.734 9
  24529883.472     -294812.580 3        -0.26611
 95  2 19 18 18 29.9990000  0  6 22 14 19 18 29 28
  21532032.300      872026.575 7    686893.351 7
  20842636.878     1416161.425 6   1102664.727 8
  22366049.339    -6697391.518 5  -5043579.813 5
  21484011.245    -6778444.860 6  -5196172.303 6
  20443462.620    -4042882.335 7  -3094196.342 9
  24511232.128     -392813.568 3    -76364.522 1
 95  2 19 18 18 59.9990000  0  6 22 14 19 18 29 28
  21538463.409      905830.930 7    713234.380 7
  20850506.261     1457506.004 6   1134881.234 8
  22348628.815    -6788935.623 5  -5114912.843 5
  21465768.979    -6874313.448 6  -5270875.076 6
  20433795.401    -4093684.756 7  -3133782.648 9
  24492610.120     -490674.128 3   -152619.378 1
 95  2 19 18 19 29.9990000  0  6 22 14 19 18 29 28
  21544997.190      940160.326 7    739984.525 7
  20858473.565     1499374.846 6   1167506.260 8
  22331264.409    -6880192.687 5  -5186022.203 5
  21447567.753    -6969959.689 6  -5345404.603 6
  20424184.878    -4144185.248 7  -3173133.686 8
  24474016.448     -588388.954 3   -228760.681 1
 95  2 19 18 19 59.9990000  0  6 22 14 19 18 29 28
  21551627.995      975016.513 7    767145.168 7
  20866537.183     1541752.830 7   1200528.015 8
  22313955.425    -6971160.546 6  -5256906.211 5
  21429405.448    -7065391.603 6  -5419767.115 7
  20414633.862    -4194383.632 7  -3212249.306 9
  24455451.331     -685960.341 3   -304790.209 1
 95  2 19 18 20 29.9990000  0  6 22 14 19 18 29 28
  21558364.847     1010420.636 6    794732.760 7
  20874697.565     1584640.523 6   1233946.949 8
  22296697.526    -7061840.129 6  -5327565.608 6
  21411286.956    -7160609.721 6  -5493963.042 6
  20405142.308    -4244263.429 7  -3251116.683 9
  24436910.706     -783376.534 3
 95  2 19 18 20 59.9990000  0  6 22 14 19 18 29 28
  21565203.386     1046348.476 7    822728.456 7
  20882953.667     1628030.838 7   1267757.525 8
  22279492.808    -7152261.306 5  -5398023.620 6
  21393209.120    -7255610.823 7  -5567989.852 6
  20395713.409    -4293804.060 7  -3289719.776 9
  24418402.987     -880640.429 3        -0.23312
 95  2 19 18 21 29.9990000  0  6 22 14 19 18 29 28
  21572138.808     1082784.712 7    851120.290 7
  20891305.050     1671917.453 7   1301954.839 8
  22262332.870    -7242438.323 5  -5468291.394 6
  21375170.433    -7350403.926 6  -5641854.588 6
  20386351.823    -4343005.291 7  -3328058.393 8
  24399922.979     -977759.666 3    -75677.449 1
 95  2 19 18 21 59.9990000  0  6 22 14 19 18 29 28
  21579169.831     1119733.117 7    879911.228 7
  20899753.292     1716303.403 7   1336541.247 8
  22245216.995    -7332377.220 5  -5538373.609 6
  21357169.112    -7445000.593 7  -5715566.248 6
  20377050.456    -4391880.689 7  -3366143.122 9
  24381469.519    -1074732.905 4   -151240.880 2
 95  2 19 18 22 29.9990000  0  6 22 14 19 18 29 28
  21586296.745     1157181.095 7    909091.439 7
  20908298.464     1761209.395 6   1371532.877 8
  22228149.479    -7422076.880 5  -5608269.413 6
  21339208.784    -7539385.166 7  -5789112.660 6
  20367812.870    -4440423.276 7  -3403968.510 9
  24363046.769    -1171546.050 3   -226679.583 1
 95  2 19 18 22 59.9990000  0  6 22 14 19 18 29 28
  21593514.573     1195127.336 7    938659.909 7
  20916941.644     1806624.044 7   1406920.865 8
  22211126.487    -7511522.575 5  -5677967.328 6
  21321288.909    -7633554.805 7  -5862491.580 7
  20358638.581    -4488639.439 7  -3441539.551 9
  24344649.425    -1268197.676 3   -301992.374 2
 95  2 19 18 23 29.9990000  0  6 22 14 19 18 29 28
  21600834.261     1233590.440 7    968631.134 7
  20925679.823     1852542.533 7   1442701.469 8
  22194154.940    -7600697.546 5  -5747454.272 6
  21303405.620    -7727528.367 7  -5935717.715 7
  20349520.565    -4536552.055 7  -3478874.053 9
  24326291.206    -1364690.392 4   -377181.352 1
 95  2 19 18 23 59.9990000  0  6 22 14 19 18 29 28
  21608254.425     1272577.671 7    999010.759 7
  20934512.769     1898969.167 7   1478878.008 7
  22177238.972    -7689593.002 5  -5816723.436 6
  21285562.456    -7821297.893 7  -6008784.865 7
  20340462.386    -4584153.852 7  -3515966.360 8
  24307960.722    -1461014.038 4   -452238.614 2
 95  2 19 18 24 29.9990000  0  6 22 14 19 18 29 28
  21615772.823     1312077.892 7   1029790.127 7
  20943438.597     1945883.090 7   1515434.249 7
  22160372.792    -7778221.450 5  -5885784.529 6
  21267757.573    -7914863.164 7  -6081692.858 7
  20331461.558    -4631452.980 7  -3552822.818 9
  24289660.651    -1557180.673 3   -527173.501 2
 95  2 19 18 24 59.9990000  0  6 22 14 19 18 29 28
  21623390.800     1352119.382 7   1060991.247 7
  20952459.698     1993281.720 6   1552368.201 7
  22143565.972    -7866559.194 6  -5954619.101 6
  21249996.761    -8008196.667 7  -6154420.254 7
  20322520.300    -4678438.574 7  -3589434.971 9
  24271389.058    -1653173.092 3   -601972.635 3
 95  2 19 18 25 29.9990000  0  6 22 14 19 18 29 28
  21631109.550     1392688.776 6   1092603.727 7
  20961574.604     2041165.099 7   1589679.876 7
  22126808.776    -7954619.345 6  -6023237.367 6
  21232283.659    -8101283.832 7  -6226955.700 7
  20313638.698    -4725110.552 7  -3625802.753 8
  24253163.276    -1748991.121 4   -676635.896 2
 95  2 19 18 25 59.9990000  0  6 22 14 19 18 29 28
  21638923.948     1433753.396 6   1124602.089 7
  20970772.284     2089512.033 7   1627352.755 7
  22110099.323    -8042410.196 5  -6091645.783 6
  21214617.823    -8194115.914 7  -6299292.364 7
  20304818.034    -4771468.801 7  -3661926.062 9
  24234957.550    -1844642.894 3   -751169.562 2
 95  2 19 18 26 29.9990000  0  6 22 14 19 18 29 28
  21646836.964     1475328.999 6   1156998.629 7
  20980060.104     2138328.815 7   1665391.756 7
  22093448.706    -8129917.185 6  -6159833.003 6
  21197003.651    -8286685.062 7  -6371424.163 7
  20296058.995    -4817493.373 7  -3697789.369 9
  24216787.729    -1940110.550 3   -825559.777 3
 95  2 19 18 26 59.9990000  0  6 22 14 19 18 29 28
  21654841.175     1517403.328 6   1189783.787 7
  20989443.519     2187618.804 7   1703799.491 7
  22076851.089    -8217143.005 6  -6227801.145 5
  21179435.222    -8379004.145 7  -6443361.096 7
  20287365.534    -4863177.551 7  -3733387.435 9
  24198660.292    -2035384.941 3   -899799.398 4
 95  2 19 18 27 29.9990000  0  6 22 14 19 18 29 28
  21662936.503     1559939.307 6   1222928.660 7
  20998909.737     2237370.447 7   1742566.957 7
  22060297.401    -8304119.580 6  -6295575.073 6
  21161904.917    -8471125.607 7  -6515144.040 7
  20278733.487    -4908541.213 7  -3768735.749 9
  24180564.394    -2130485.852 3   -973903.849 3
 95  2 19 18 27 59.9990000  0  6 22 14 19 18 29 28
  21671122.245     1602940.168 6   1256435.789 7
  21008465.550     2287599.384 7   1781706.335 7
  22043794.706    -8390848.891 6  -6363156.312 6
  21144410.081    -8563058.136 7  -6586779.762 7
  20270163.987    -4953570.737 7  -3803823.692 8
  24162495.198    -2225401.107 3  -1047863.633 4
 95  2 19 18 28 29.9990000  0  6 22 14 19 18 29 28
  21679391.909     1646399.259 7   1290299.976 7
  21018115.979     2338304.312 7   1821216.620 7
  22027333.550    -8477361.336 6  -6430568.559 6
  21126948.925    -8654812.615 7  -6658276.731 7
  20261658.440    -4998277.132 7  -3838659.862 8
  24144473.456    -2320134.922 3  -1121682.019 4
 95  2 19 18 28 59.9980000  0  6 22 14 19 18 29 28
  21687744.162     1690310.906 7   1324516.807 7
  21027859.334     2389496.896 6   1861106.903 7
  22010910.201    -8563654.134 6  -6497809.661 6
  21109528.951    -8746363.451 7  -6729615.027 7
  20253211.826    -5042654.269 7  -3873239.457 8
  24126478.279    -2414678.437 3  -1195352.121 3
 95  2 19 18 29 29.9980000  0  6 22 14 19 18 29 28
  21696198.311     1734718.022 7   1359119.719 7
  21037695.303     2441195.601 6   1901391.546 7
  21994536.857    -8649707.704 6  -6564864.335 6
  21092152.811    -8837671.488 7  -6800764.126 7
  20244835.404    -5086677.105 7  -3907542.967 9
  24108528.154    -2509014.902 3  -1268860.888 3
 95  2 19 18 29 59.9980000  0  6 22 14 19 18 29 28
  21704742.936     1779617.486 7   1394106.282 7
  21047623.115     2493371.630 6   1942048.138 7
  21978205.248    -8735521.829 6  -6631732.447 5
  21074826.537    -8928722.197 6  -6871712.704 7
  20236523.326    -5130356.448 7  -3941578.829 8
  24090614.998    -2603153.850 3  -1342215.735 3
 95  2 19 18 30 29.9980000  0  6 22 14 19 18 29 28
  21713375.115     1824993.721 7   1429464.350 7
  21057638.146     2545983.306 6   1983044.205 7
  21961919.943    -8821102.532 6  -6698418.672 6
  21057544.631    -9019536.500 7  -6942477.079 7
  20228270.545    -5173724.515 7  -3975372.133 8
  24072735.209    -2697117.619 3  -1415434.088 4
 95  2 19 18 30 59.9980000  0  6 22 14 19 18 29 28
  21722104.357     1870867.463 7   1465210.091 7
  21067734.193     2599050.831 6   2024395.468 7
  21945688.459    -8906404.688 6  -6764887.834 6
  21040313.787    -9110094.640 7  -7013041.838 8
  20220082.061    -5216758.245 7  -4008904.921 9
  24054892.115    -2790876.214 3  -1488492.579 4
 95  2 19 18 31 29.9980000  0  6 22 14 19 18 29 28
  21730926.803     1917221.789 6   1501330.284 7
  21077915.162     2652556.379 6   2066088.051 7
  21929503.100    -8991442.619 6  -6831151.100 6
  21023123.709    -9200427.690 7  -7083431.221 8
  20211951.795    -5259477.041 7  -4042192.303 8
  24037086.139    -2884440.818 3  -1561399.894 5
 95  2 19 18 31 59.9980000  0  6 22 14 19 18 29 28
  21739835.873     1964053.133 6   1537822.204 7
  21088186.514     2706519.554 6   2108137.221 7
  21913377.217    -9076203.809 6  -6897198.748 6
  21005975.131    -9290539.275 7  -7153648.014 7
  20203882.264    -5301881.476 7  -4075234.739 8
  24019325.615    -2977797.999 3  -1634145.593 2
 95  2 19 18 32 29.9980000  0  6 22 14 19 18 29 28
  21748835.303     2011334.842 6   1574665.046 7
  21098539.990     2760936.660 6   2150540.101 7
  21897292.764    -9160706.848 6  -6963045.256 6
  20988866.295    -9380445.744 7  -7223704.995 7
  20195870.443    -5343986.246 7  -4108043.658 8
  24001596.787    -3070957.244 3  -1706737.094 4
 95  2 19 18 32 59.9980000  0  6 22 14 19 18 29 28
  21757917.990     2059068.936 6   1611860.393 7
  21108985.561     2815830.495 6   2193314.455 7
  21881267.889    -9244938.674 6  -7028680.392 6
  20971801.982    -9470125.096 7  -7293584.992 8
  20187922.951    -5385757.269 7  -4140592.502 8
  23983908.365    -3163897.048 3  -1779157.574 3
 95  2 19 18 33 29.9980000  0  6 22 14 19 18 29 28
  21767088.850     2107261.709 6   1649413.148 7
  21119524.014     2871190.417 6   2236451.993 7
  21865285.670    -9328909.695 6  -7094112.326 6
  20954778.209    -9559582.274 7  -7363291.864 8
  20180036.873    -5427193.413 7  -4172880.413 8
  23966266.357    -3256621.429 3  -1851410.221 4
 95  2 19 18 33 59.9980000  0  6 22 14 19 18 29 28
  21776346.412     2155905.284 6   1687317.181 7
  21130138.756     2926985.551 6   2279928.659 7
  21849358.537    -9412615.358 6  -7159337.494 6
  20937798.521    -9648815.573 7  -7432824.289 7
  20172217.357    -5468289.017 7  -4204902.967 8
  23948653.779    -3349132.615 3  -1923496.728 3
 95  2 19 18 34 29.9980000  0  6 22 14 19 18 29 28
  21785688.357     2205002.059 6   1725574.361 7
  21140837.068     2983197.435 6   2323730.072 7
  21833483.061    -9496048.967 6  -7224350.675 6
  20920861.248    -9737810.830 7  -7502171.234 7
  20164465.982    -5509018.794 7  -4236640.460 8
  23931099.529    -3441420.382 4  -1995409.170 2
 95  2 19 18 34 59.9980000  0  6 22 14 19 18 29 28
  21795118.061     2254548.290 6   1764181.754 7
  21151610.771     3039817.449 6   2367849.505 7
  21817654.139    -9579219.044 6  -7289158.501 6
  20903973.553    -9826566.689 7  -7571331.630 7
  20156786.795    -5549373.249 7  -4268085.494 8
  23913578.170    -3533483.165 4  -2067146.316 3
 95  2 19 18 35 29.9980000  0  6 22 14 19 18 29 28
  21804633.420     2304544.250 6   1803139.595 7
  21162458.693     3096830.455 6   2412275.162 7
  21801876.982    -9662137.936 6  -7353770.611 6
  20887133.076    -9915073.712 7  -7640298.122 8
  20149175.342    -5589369.447 7  -4299251.359 9
  23896099.014    -3625327.812 4  -2138713.471 3
 95  2 19 18 35 59.9980000  0  6 22 14 19 18 29 28
  21814227.482     2354977.109 6   1842437.879 7
  21173387.701     3154251.100 6   2457018.463 7
  21786148.764    -9744789.560 6  -7418174.459 6
  20870339.795   -10003307.827 7  -7709051.971 7
  20141635.318    -5628992.732 7  -4330126.655 9
  23878665.756    -3716941.105 4  -2210100.387 3
 95  2 19 18 36 29.9980000  0  6 22 14 19 18 29 28
  21823909.053     2405841.713 6   1882072.595 7
  21184394.795     3212107.458 6   2502101.268 7
  21770466.623    -9827183.081 6  -7482377.175 6
  20853603.818   -10091259.551 7  -7777585.782 7
  20134167.396    -5668241.003 7  -4360709.728 8
  23861281.951    -3808316.386 4  -2281301.800 4
 95  2 19 18 36 59.9980000  0  6 22 14 19 18 29 28
  21833668.709     2457137.093 6   1922042.980 6
  21195492.787     3270411.568 6   2547532.989 7
  21754838.943    -9909326.520 6  -7546385.023 6
  20836920.545   -10178927.406 7  -7845898.379 7
  20126768.646    -5707120.978 7  -4391005.819 8
  23843938.740    -3899452.786 5  -2352317.104 4
 95  2 19 18 37 29.9980000  0  6 22 14 19 18 29 28
  21843516.131     2508874.996 6   1962358.184 6
  21206670.076     3329157.361 6   2593308.875 7
  21739255.061    -9991207.319 6  -7610188.235 6
  20820292.084   -10266315.232 7  -7913992.784 7
  20119440.045    -5745638.929 7  -4421019.808 9
  23826641.873    -3990342.489 5  -2423140.173 3
 95  2 19 18 37 59.9980000  0  6 22 14 19 18 29 28
  21853439.561     2561035.951 6   2003003.049 6
  21217932.420     3388337.103 6   2639422.901 7
  21723720.998   -10072845.108 6  -7673802.065 6
  20803709.131   -10353456.678 7  -7981895.207 7
  20112176.951    -5783802.123 7  -4450757.368 8
  23809396.803    -4080991.123 5  -2493775.392 3
 95  2 19 18 38 29.9980000  0  6 22 14 19 18 29 28
  21863447.615     2613626.062 6   2043982.308 6
  21229272.264     3447941.107 6   2685867.508 7
  21708227.412   -10154259.591 6  -7737241.897 6
  20787171.287   -10440362.932 7  -8049614.360 7
  20104979.928    -5821621.195 7  -4480226.778 8
  23792189.779    -4171398.248 5  -2564222.436 4
 95  2 19 18 38 59.9980000  0  6 22 14 19 18 29 28
  21873538.873     2666656.195 6   2085304.447 6
  21240699.482     3507975.239 6   2732647.304 7
  21692780.654   -10235430.832 6  -7800492.195 6
  20770680.568   -10527023.360 7  -8117141.957 8
  20097848.818    -5859096.469 7  -4509428.304 8
  23775029.748    -4261549.624 5  -2634470.199 2
 95  2 19 18 39 29.9980000  0  6 22 14 19 18 29 28
  21883709.623     2720105.232 6   2126953.004 6
  21252202.811     3568431.767 6   2779756.227 7
  21677382.920   -10316358.754 6  -7863552.875 6
  20754233.029   -10613446.120 7  -8184484.358 7
  20090780.873    -5896242.497 7  -4538373.261 8
  23757923.428    -4351451.712 5  -2704523.673 3
 95  2 19 18 39 59.9980000  0  6 22 14 19 18 29 28
  21893961.475     2773955.168 6   2168913.949 6
  21263786.748     3629309.607 6   2827193.445 6
  21662025.615   -10397050.614 6  -7926429.609 6
  20737835.264   -10699624.922 7  -8251636.660 7
  20083775.623    -5933052.379 7  -4567056.293 8
  23740866.412    -4441107.776 5  -2774385.489 4
 95  2 19 18 40 29.9980000  0  6 22 14 19 18 29 28
  21904280.326     2828205.615 6   2211186.987 6
  21275452.662     3690603.204 6   2874954.631 6
  21646723.506   -10477482.727 6  -7989103.951 6
  20721485.865   -10785536.010 7  -8318580.350 8
  20076836.342    -5969522.008 7  -4595474.190 8
  23723851.943    -4530511.909 5  -2844050.981 3
 95  2 19 18 40 59.9980000  0  6 22 14 19 18 29 28
  21914686.318     2882874.752 6   2253786.271 6
  21287190.904     3752311.844 6   2923039.234 6
  21631464.982   -10557639.831 6  -8051563.987 6
  20705193.990   -10871161.143 7  -8385301.236 8
  20069965.639    -6005624.402 7  -4623605.930 8
  23706887.740    -4619649.004 5  -2913508.409 3
 95  2 19 18 41 29.9980000  0  6 22 14 19 18 29 28
  21925166.717     2937958.159 6   2296708.366 6
  21299009.865     3814400.503 6   2971419.948 6
  21616264.146   -10637547.106 6  -8113829.350 6
  20688949.709   -10956518.292 7  -8451813.276 8
  20063166.381    -6041350.202 7  -4651444.219 8
  23689973.865    -4708531.777 5  -2982767.654 3
 95  2 19 18 41 59.9980000  0  6 22 14 19 18 29 28
  21935727.217     2993450.770 6   2339949.325 6
  21310891.561     3876849.042 6   3020081.097 6
  21601096.998   -10717226.254 6  -8175916.956 6
  20672757.225   -11041614.040 7  -8518121.652 8
  20056439.936    -6076699.877 7  -4678989.430 9
  23673111.561    -4797167.388 5  -3051834.284 2
 95  2 19 18 42 29.9980000  0  7 22 14 19 18 29 28 31
  21946368.459     3049375.548 6   2383527.026 6
  21322850.053     3939677.915 6   3069038.608 6
  21585985.459   -10796655.649 6  -8237809.952 6
  20656616.412   -11126423.049 7  -8584206.583 8
  20049789.295    -6111656.662 7  -4706228.486 8
  23656292.396    -4885529.209 5  -3120687.591 3
  24169328.381          -0.49513
 95  2 19 18 42 59.9980000  0  7 22 14 19 18 29 28 31
  21957091.053     3105713.411 6   2427426.633 6
  21334874.756     4002878.087 6   3118285.439 6
  21570911.717   -10875856.010 6  -8299524.478 6
  20640532.045   -11210961.982 7  -8650081.072 8
  20043209.881    -6146230.102 7  -4733168.834 8
  23639528.107    -4973625.517 5  -3189334.022 3
  24148021.764     -111985.977 3
 95  2 19 18 43 29.9980000  0  7 22 14 19 18 29 28 31
  21967884.029     3162439.371 6   2471628.654 6
  21346974.779     4066455.516 6   3167826.244 6
  21555889.787   -10954812.930 6  -8361049.312 6
  20624494.654   -11295229.999 7  -8715744.450 8
  20036697.553    -6180444.870 7  -4759829.700 8
  23622814.451    -5061461.085 5  -3257777.275 2
  24126696.146     -224020.926 3        -0.04513
 95  2 19 18 43 59.9980000  0  7 22 14 19 18 29 28 31
  21978752.725     3219546.469 6   2516127.644 6
  21359145.147     4130425.336 6   3217672.795 6
  21540912.271   -11033505.988 6  -8422368.537 6
  20608514.498   -11379213.910 7  -8781186.451 8
  20030252.389    -6214320.768 7  -4786226.519 8
  23606151.826    -5149026.782 5  -3326010.202 4
  24105378.975     -336109.062 3    -87341.275 2
 95  2 19 18 44 29.9980000  0  7 22 14 19 18 29 28 31
  21989690.420     3277031.141 6   2560920.863 6
  21371393.826     4194783.163 6   3267821.697 6
  21525991.865   -11111924.740 6  -8483474.021 6
  20592584.732   -11462918.445 7  -8846410.757 8
  20023869.803    -6247862.460 7  -4812362.902 8
  23589540.053    -5236320.165 4  -3394030.981 5
  24084032.092     -448247.319 3   -174721.534 2
 95  2 19 18 44 59.9980000  0  7 22 14 19 18 29 28 31
  22000703.396     3334907.816 6   2606019.530 6
  21383714.600     4259528.829 6   3318272.807 6
  21511118.201   -11190075.406 6  -8544370.615 6
  20576709.162   -11546346.574 7  -8911419.684 8
  20017551.818    -6281064.335 7  -4838234.492 8
  23572978.498    -5323338.426 3  -3461837.343 4
  24062688.436     -560417.264 3   -262126.566 2
 95  2 19 18 45 29.9980000  0  7 22 14 19 18 29 28 31
  22011793.787     3393198.724 6   2651440.964 6
  21396110.537     4324668.246 6   3369030.727 6
  21496296.537   -11267961.863 6  -8605061.333 6
  20560887.357   -11629491.298 7  -8976207.780 8
  20011298.178    -6313919.343 7  -4863835.813 8
  23556477.264    -5410069.984 4  -3529420.318 4
  24041334.303     -672589.557 2   -349533.368 2
 95  2 19 18 45 59.9980000  0  7 22 14 19 18 29 28 31
  22022965.131     3451897.850 6   2697180.492 7
  21408577.420     4390186.419 6   3420083.786 6
  21481521.107   -11345618.120 6  -8665572.676 6
  20545116.146   -11712369.992 7  -9040788.581 8
  20005115.967    -6346414.663 7  -4889156.852 8
  23540023.068    -5496517.652 3  -3596782.105 3
  24019997.639                          -0.01912
 95  2 19 18 46 29.9980000  0  7 22 14 19 18 29 28 31
  22034213.420     3510993.001 6   2743228.623 7
  21421115.928     4456074.223 6   3471424.878 6
  21466779.701   -11423066.074 6  -8725921.701 6
  20529394.951   -11794994.957 7  -9105171.663 8
  19999003.436    -6378535.266 7  -4914185.892 8
  23523633.857    -5582684.091 4  -3663924.727 5
  23998655.975     -112118.318 2        -0.15812
 95  2 19 18 46 59.9980000  0  7 22 14 19 18 29 28 31
  22045530.076     3570471.543 6   2789575.485 7
  21433723.857     4522323.058 6   3523047.291 6
  21452083.232   -11500313.972 6  -8786114.851 6
  20513716.076   -11877369.804 7  -9169359.854 8
  19992961.670    -6410283.422 7  -4938924.715 8
  23507290.193    -5668567.784 4  -3730847.021 5
  23977334.045     -224216.452 3    -87349.229 1
 95  2 19 18 47 29.9980000  0  6 22 14 19 18 29 28
  22056918.787     3630315.600 6   2836207.169 7
  21446395.529     4588924.217 6   3574944.240 6
  21437427.553   -11577338.524 6  -8846133.947 6
  20498093.568   -11959472.046 7  -9233335.625 8
  19986991.412    -6441655.956 7  -4963370.860 8
  23490999.123    -5754158.782 4  -3797541.236 4
 95  2 19 18 47 59.9980000  0  7 22 14 19 18 29 28 31
  22068372.553     3690507.098 6   2883109.577 7
  21459134.686     4655860.285 6   3627102.157 6
  21422810.740   -11654136.216 6  -8905976.279 6
  20482524.201   -12041302.496 7  -9297099.615 8
  19981090.732    -6472660.515 7  -4987530.263 8
  23474768.990    -5839463.530 4  -3864012.422 4
  23934678.717          -0.04012
 95  2 19 18 48 29.9980000  0  7 22 14 19 18 29 28 31
  22079893.951     3751051.965 6   2930287.345 7
  21471935.490     4723132.856 6   3679522.292 6
  21408243.053   -11730678.563 6  -8965619.641 6
  20467005.576   -12122848.107 7  -9360641.649 8
  19975260.967    -6503299.831 7  -5011405.060 8
  23458591.701    -5924472.315 3  -3930252.989 5
  23913329.639     -112117.475 2
 95  2 19 18 48 59.9980000  0  7 22 14 19 18 29 28 31
  22091482.029     3811946.117 6   2977737.284 7
  21484799.311     4790732.004 6   3732196.893 6
  21393730.193   -11806959.210 6  -9025059.080 6
  20451543.170   -12204094.144 7  -9423950.246 9
  19969498.553    -6533580.033 7  -5035000.027 8
  23442466.826    -6009184.812 3  -3996262.666 5
  23892004.576     -224252.179 3        -0.05813
 95  2 19 18 49 29.9980000  0  7 22 14 19 18 29 28 31
  22103133.100     3873180.498 6   3025452.336 7
  21497724.271     4858657.174 6   3785125.540 6
  21379263.326   -11882984.879 6  -9084299.838 6
  20436139.654   -12285041.221 7  -9487025.884 9
  19963806.326    -6563494.189 7  -5058309.766 8
  23426398.772    -6093604.687 4  -4062044.335 5
  23870655.678     -336396.310 2    -87384.894 2
 95  2 19 18 49 59.9980000  0  7 22 14 19 18 29 28 31
  22114850.186     3934761.288 6   3073437.313 7
  21510717.748     4926930.447 6   3838325.427 6
  21364843.100   -11958754.624 6  -9143341.171 6
  20420790.646   -12365708.833 7  -9549883.752 9
  19958187.107    -6593024.157 7  -5081320.143 8
  23410395.467    -6177722.565 4  -4127590.682 4
  23849318.490     -448536.289 3   -174766.502 2
 95  2 19 18 50 29.9980000  0  7 22 14 19 18 29 28 31
  22126632.881     3996660.073 6   3121670.081 7
  21523771.607     4995534.402 6   3891783.004 6
  21350467.920   -12034293.633 6  -9202202.716 6
  20405489.732   -12446114.533 7  -9612537.541 9
  19952639.982    -6622176.956 7  -5104036.615 8
  23394443.850    -6261555.487 5  -4192915.021 4
  23827969.873     -560673.447 3   -262145.902 1
 95  2 19 18 50 59.9980000  0  7 22 14 19 18 29 28 31
  22138473.764     4058893.352 6   3170163.491 6
  21536892.920     5064481.391 6   3945507.867 6
  21336134.584   -12109611.923 6  -9260892.266 6
  20390241.725   -12526240.180 7  -9674973.106 9
  19947166.037    -6650936.348 7  -5126446.537 8
  23378551.154    -6345088.317 5  -4258005.493 5
  23806644.787     -672788.301 3   -349507.932 2
 95  2 19 18 51 29.9980000  0  7 22 14 19 18 29 28 31
  22150386.334     4121489.527 6   3218939.661 6
  21550080.365     5133788.923 6   3999513.682 6
  21321847.420   -12184689.427 6  -9319394.184 6
  20375051.553   -12606072.107 7  -9737179.793 9
  19941773.576    -6679278.982 7  -5148531.716 8
  23362712.217    -6428300.846 5  -4322846.432 4
  23785318.068     -784874.740 3   -436847.806 1
 95  2 19 18 51 59.9980000  0  7 22 14 19 18 29 28 31
  22162365.920     4184442.837 6   3267994.128 6
  21563334.576     5203436.520 6   4053784.476 6
  21307603.631   -12259544.053 6  -9377722.424 6
  20359914.014   -12685619.906 7  -9799165.087 9
  19936452.717    -6707238.761 7  -5170318.569 8
  23346935.709    -6511209.191 5  -4387450.316 5
  23763987.631     -896959.810 3   -524186.629 1
 95  2 19 18 52 29.9980000  0  8 22 14 19 18 29 28 31 27
  22174413.623     4247759.083 6   3317331.396 6
  21576653.295     5273416.667 6   4108314.399 6
  21293401.568   -12334182.066 6  -9435881.884 6
  20344836.818   -12764855.027 7  -9860906.730 9
  19931203.311    -6734827.638 7  -5191816.399 8
  23331216.748    -6593806.952 5  -4451812.195 5
  23742658.014    -1009042.843 3
  24432676.811          -0.21212
 95  2 19 18 52 59.9980000  0  8 22 14 19 18 29 28 31 27
  22186532.100     4311437.962 6   3366951.237 6
  21590029.896     5343721.045 6   4163096.975 6
  21279239.490   -12408598.226 6  -9493868.472 6
  20329818.021   -12843778.676 7  -9922405.670 9
  19926021.436    -6762057.491 7  -5213034.480 8
  23315560.787    -6676094.706 5  -4515932.489 5
  23721329.607    -1121130.976 4        -0.05611
  24413041.631     -103150.053 3        -0.23911
 95  2 19 18 53 29.9980000  0  8 22 14 19 18 29 28 31 27
  22198718.123     4375474.270 6   3416849.606 6
  21603472.350     5414357.333 6   4218138.170 6
  21265124.920   -12482773.397 6  -9551667.288 6
  20314857.514   -12922388.151 7  -9983659.792 9
  19920910.021    -6788917.280 7  -5233964.195 8
  23299961.693    -6758059.290 5  -4579801.013 4
  23700004.170    -1233191.783 3    -87319.963 1
  24393432.490     -206198.501 3
 95  2 19 18 53 59.9980000  0  8 22 14 19 18 29 28 31 27
  22210967.217     4439844.209 6   3467007.954 6
  21616975.959     5485319.247 6   4273433.112 6
  21251054.545   -12556730.210 6  -9609295.959 7
  20299954.373   -13000694.864 7 -10044678.008 9
  19915866.943    -6815419.988 7  -5254615.674 8
  23284425.365    -6839703.113 5  -4643419.569 5
  23678689.303    -1345214.227 4   -174610.013 1
  24373845.482     -309155.379 3
 95  2 19 18 54 29.9980000  0  8 22 14 19 18 29 28 31 27
  22223275.350     4504524.536 6   3517408.148 6
  21630537.217     5556582.098 6   4328962.549 6
  21237019.451   -12630489.116 6  -9666770.413 6
  20285106.850   -13078718.815 7 -10105475.890 9
  19910889.826    -6841569.333 7  -5274991.797 8
  23268945.451    -6921035.777 5  -4706795.655 4
  23657373.498    -1457198.202 3   -261870.114 1
  24354266.803     -412037.405 3        -0.04111
 95  2 19 18 54 59.9980000  0  8 22 14 19 18 29 28 31 27
  22235643.912     4569513.120 6   3568048.539 6
  21644151.256     5628136.481 6   4384719.147 6
  21223020.561   -12704042.625 6  -9724084.812 6
  20270311.021   -13156470.161 7 -10166061.348 9
  19905985.428    -6867346.168 7  -5295077.647 8
  23253528.693    -7002055.863 5  -4769928.189 4
  23636072.146    -1569137.490 4   -349095.412 1
  24334709.131     -514826.145 3    -80095.137 1
 95  2 19 18 55 29.9980000  0  8 22 14 19 18 29 28 31 27
  22248069.209     4634813.016 6   3618931.519 6
  21657826.318     5699992.416 6   4440710.711 6
  21209060.928   -12777385.226 6  -9781234.868 6
  20255568.678   -13233944.955 7 -10226431.320 9
  19901153.123    -6892740.729 7  -5314865.624 8
  23238173.506    -7082750.255 5  -4832806.934 4
  23614774.146    -1681037.645 3   -436290.180 1
  24315170.443     -617498.258 3   -160099.447 1
 95  2 19 18 55 59.9980000  0  8 22 14 19 18 29 28 31 27
  22260552.975     4700423.174 6   3670056.257 6
  21671556.943     5772143.223 6   4496932.070 6
  21195149.701   -12850511.621 6  -9838216.453 6
  20240877.967   -13311131.386 7 -10286576.587 9
  19896395.115    -6917744.990 7  -5334349.474 8
  23222884.295    -7163115.960 5  -4895429.557 5
  23593491.271    -1792925.361 4   -523475.323 1
  24295650.139     -720057.976 3   -240016.085 1
 95  2 19 18 56 29.9980000  0  8 22 14 19 18 29 28 31 27
  22273096.943     4766337.685 6   3721418.164 6
  21685341.561     5844575.212 6   4553372.520 6
  21181274.834   -12923411.471 6  -9895021.512 6
  20226247.326   -13388023.478 7 -10346492.506 9
  19891712.928    -6942351.855 7  -5353523.659 8
  23207648.115    -7243159.609 5  -4957801.237 4
  23572199.889    -1904812.979 3   -610660.385 3
  24276155.225     -822511.091 3   -319849.659 1
 95  2 19 18 56 59.9980000  0  8 22 14 19 18 29 28 31 27
  22285695.701     4832537.634 6   3773002.477 6
  21699174.787     5917288.918 6   4610032.481 6
  21167448.928   -12996077.712 6  -9951644.546 6
  20211671.178   -13464617.860 7 -10406176.440 9
  19887103.248    -6966565.033 7  -5372391.084 8
  23192476.139    -7322884.553 5  -5019924.563 4
  23550907.771    -2016698.549 3   -697843.865 2
  24256676.303     -924864.073 3   -399605.163 2
 95  2 19 18 57 29.9980000  0  8 22 14 19 18 29 28 31 27
  22298347.232     4899029.332 6   3824814.134 6
  21713069.662     5990304.237 6   4666927.483 6
  21153664.951   -13068506.286 6 -10008082.375 7
  20197156.873   -13540897.197 7 -10465614.886 9
  19882572.803    -6990378.442 7  -5390946.998 8
  23177371.092    -7402277.088 5  -5081788.874 4
  23529618.920    -2128556.195 3   -785005.609 3
  24237214.084    -1027124.747 3   -479288.791 2
 95  2 19 18 57 59.9980000  0  8 22 14 19 18 29 28 31 27
  22311054.834     4965811.012 6   3876851.755 5
  21727021.451     6063604.428 6   4724044.448 5
  21139927.076   -13140706.548 6 -10064342.305 6
  20182702.170   -13616861.410 7 -10524807.782 9
  19878117.061    -7013798.218 7  -5409196.179 8
  23162326.576    -7481342.965 5  -5143398.641 5
  23508346.037    -2240359.488 3   -872124.988 3
  24217772.186    -1129314.154 3   -558916.864 1
 95  2 19 18 58 29.9980000  0  8 22 14 19 18 29 28 31 27
  22323820.428     5032891.707 6   3929122.365 5
  21741024.209     6137198.010 6   4781390.035 5
  21126230.514   -13212668.587 6 -10120416.603 6
  20168308.123   -13692510.842 7 -10583755.391 9
  19873731.490    -7036832.978 7  -5427145.348 8
  23147342.100    -7560074.953 5  -5204748.207 4
  23487086.451    -2352079.474 3   -959179.480 2
  24198343.256    -1231425.573 3   -638484.141 1
 95  2 19 18 58 59.9980000  0  8 22 14 19 18 29 28 31 27
  22336640.092     5100257.481 6   3981615.127 5
  21755080.771     6211068.829 6   4838951.663 5
  21112581.154   -13284413.632 6 -10176321.815 6
  20153969.373   -13767858.786 7 -10642468.064 9
  19869418.295    -7059508.614 7  -5444814.693 8
  23132423.803    -7638478.236 5  -5265841.630 5
  23465839.936    -2463723.749 3  -1046174.971 2
  24178924.701    -1333456.292 2   -717988.514 1
 95  2 19 18 59 29.9970000  0  8 22 14 19 18 29 28 31 27
  22349514.704     5167909.964 6   4034331.303 6
  21769185.829     6285193.612 6   4896711.177 5
  21098966.642   -13355948.577 6 -10232063.321 6
  20139687.806   -13842908.640 7 -10700948.476 9
  19865170.228    -7081829.669 7  -5462207.737 8
  23117566.399    -7716549.667 5  -5326676.465 4
  23444598.118    -2575304.505 2  -1133120.960 4
  24159525.954    -1435400.085 1   -797425.184 3
 95  2 19 18 59 59.9970000  0  8 22 14 19 18 29 28 31 27
  22362441.774     5235834.723 6   4087259.634 6
  21783336.603     6359547.926 6   4954649.548 5
  21085389.931   -13427285.671 6 -10287650.663 6
  20125461.556   -13917675.736 7 -10759208.546 9
  19860986.360    -7103812.026 7  -5479336.857 8
  23102770.501    -7794300.959 5  -5387261.849 4
  23423382.993    -2686850.408 3  -1220039.787 3
  24140138.001    -1537267.133 2   -876802.002 2
 95  2 19 19  0 29.9970000  0  8 22 14 19 18 29 28 31 27
  22375418.079     5304040.154 6   4140406.677 6
  21797532.321     6434144.462 6   5012776.644 5
  21071853.595   -13498416.160 6 -10343077.000 6
  20111290.134   -13992142.741 7 -10817234.774 9
  19856872.259    -7125436.190 7  -5496186.866 8
  23088035.595    -7871709.938 5  -5447580.502 5
  23402164.782    -2798353.442 3  -1306925.217 5
  24120773.595    -1639032.349 2   -956099.431 2
 95  2 19 19  0 59.9970000  0  8 22 14 19 18 29 28 31 27
  22388445.985     5372502.929 6   4193754.243 6
  21811768.813     6508964.975 6   5071078.291 6
  21058353.345   -13569362.230 6 -10398359.636 6
  20097173.134   -14066324.078 7 -10875038.414 9
  19852827.032    -7146690.460 7  -5512748.652 8
  23073369.493    -7948783.156 5  -5507637.515 4
  23380950.134    -2909827.134 3  -1393787.753 2
  24101423.712    -1740707.059 2  -1035326.364 1
 95  2 19 19  1 29.9970000  0  8 22 14 19 18 29 28 31 27
  22401526.735     5441240.277 6   4247315.759 6
  21826055.571     6584031.033 6   5129571.262 5
  21044893.110   -13640097.419 6 -10453477.968 6
  20083114.439   -14140208.363 7 -10932610.582 9
  19848857.423    -7167552.093 7  -5529004.482 8
  23058769.540    -8025502.738 5  -5567418.963 5
  23359741.634    -3021250.598 3  -1480611.165 4
  24082100.837    -1842286.852 2  -1114479.386 2
 95  2 19 19  1 59.9970000  0  8 22 14 19 18 29 28 31 27
  22414658.251     5510243.407 6   4301084.372 6
  21840387.368     6659350.092 6   5188261.377 5
  21031471.454   -13710632.264 6 -10508440.175 7
  20069109.665   -14213800.130 7 -10989954.815 9
  19844961.329    -7188031.161 7  -5544962.207 8
  23044244.837    -8101877.266 5  -5626931.550 5
  23338553.970    -3132616.974 4  -1567390.058 3
  24062781.048    -1943786.731 2  -1193570.148 2
 95  2 19 19  2 29.9970000  0  8 22 14 19 18 29 28 31 27
  22427841.626     5579515.902 6   4355062.869 6
  21854770.087     6734938.418 6   5247161.284 6
  21018087.939   -13780957.410 6 -10563238.974 7
  20055164.188   -14287083.471 7 -11047058.719 9
  19841138.571    -7208118.540 7  -5560614.730 8
  23029772.313    -8177901.377 5  -5686171.065 5
  23317376.938    -3243916.703 4  -1654117.035 3
  24043478.399    -2045207.162 2  -1272598.975 1
 95  2 19 19  2 59.9970000  0  7 22 14 19 18 29 28 31
  22441074.251     5649056.310 6   4409250.117 6
  21869207.595     6810808.009 6   5306280.377 6
  21004750.743   -13851047.749 6 -10617854.815 7
  20041285.220   -14360034.400 7 -11103903.597 9
  19837393.532    -7227801.003 7  -5575951.728 8
  23015372.501    -8253563.364 5  -5745128.427 5
  23296210.837    -3355145.191 4  -1740788.485 4
 95  2 19 19  3 29.9970000  0  7 22 14 19 18 29 28 31
  22454355.399     5718851.635 5   4463635.998 6
  21883696.485     6886937.852 6   5365602.273 5
  20991454.665   -13920929.932 6 -10672308.456 7
  20027463.431   -14432659.632 7 -11160494.684 9
  19833718.142    -7247114.373 7  -5591001.122 8
  23001042.509    -8328888.418 5  -5803823.238 5
  23275052.470    -3466328.504 5  -1827424.734 4
 95  2 19 19  3 59.9970000  0  7 22 14 19 18 29 28 31
  22467684.868     5788901.626 5   4518220.303 6
  21898231.868     6963333.734 6   5425131.458 6
  20978193.446   -13990621.250 6 -10726613.377 7
  20013706.501   -14504943.663 7 -11216819.900 9
  19830117.407    -7266042.736 7  -5605750.510 8
  22986779.048    -8403864.362 5  -5862246.034 5
  23253901.274    -3577458.627 4  -1914019.529 3
 95  2 19 19  4 29.9970000  0  8 22 14 19 18 29 28 31 27
  22481062.462     5859197.076 5   4572995.891 6
  21912818.853     7039978.441 6   5484854.531 6
  20964964.454   -14060120.558 6 -10780768.666 7
  20000016.438   -14576894.963 7 -11272885.845 8
  19826588.228    -7284588.289 7  -5620201.602 8
  22972573.243    -8478490.869 5  -5920396.539 5
  23232763.892    -3688545.923 4  -2000580.931 2
  23966414.345     -101148.546 3
 95  2 19 19  4 59.9970000  0  8 22 14 19 18 29 28 31 27
  22494487.040     5929757.780 5   4627978.153 6
  21927449.829     7116877.528 6   5544775.832 6
  20951781.478   -14129423.232 6 -10834770.741 7
  19986387.954   -14648510.159 7 -11328689.890 9
  19823133.423    -7302732.604 7  -5634340.050 8
  22958441.220    -8552748.746 5  -5978259.801 5
  23211640.274    -3799564.966 5  -2087089.170 2
  23947181.493     -202210.317 3        -0.35312
 95  2 19 19  5 29.9970000  0  8 22 14 19 18 29 28 31 27
  22507964.267     6000588.232 5   4683170.604 6
  21942131.118     7194011.468 5   5604880.118 5
  20938623.642   -14198542.049 6 -10888629.553 7
  19972820.681   -14719805.993 7 -11384245.084 8
  19819754.446    -7320487.883 7  -5648175.351 8
  22944383.720    -8626638.114 5  -6035835.909 5
  23190526.884    -3910502.647 5  -2173534.042 1
  23927971.595     -303187.090 3    -78683.495 2
 95  2 19 19  5 59.9970000  0  8 22 14 19 18 29 28 31 27
  22521495.509     6071675.941 5   4738563.540 6
  21956851.228     7271361.146 5   5665152.527 5
  20925511.321   -14267461.563 6 -10942333.058 7
  19959313.501   -14790785.675 7 -11439553.936 8
  19816450.290    -7337854.694 7  -5661707.949 8
  22930394.243    -8700154.811 5  -6093121.634 5
  23169433.173    -4021345.715 4  -2259905.139 1
  23908768.423     -404062.796 3   -157287.610 2
 95  2 19 19  6 29.9970000  0  8 22 14 19 18 29 28 31 27
  22535073.892     6143026.715 6   4794161.457 6
  21971607.673     7348910.592 5   5725580.573 5
  20912440.634   -14336159.558 6 -10995863.957 7
  19945867.556   -14861438.209 7 -11494607.859 8
  19813219.259    -7354837.744 7  -5674941.508 8
  22916470.212    -8773298.040 5  -6150116.325 5
  23148362.493    -4132084.211 4  -2346194.784 1
  23889600.665     -504827.196 3   -235805.225 2
 95  2 19 19  6 59.9970000  0  8 22 14 19 18 29 28 31 27
  22548697.689     6214632.396 5   4849957.997 6
  21986399.860     7426655.118 5   5786160.631 5
  20899407.673   -14404638.510 6 -11049224.171 7
  19932486.462   -14931755.239 7 -11549400.347 8
  19810060.665    -7371435.920 7  -5687875.163 8
  22902627.384    -8846067.466 5  -6206819.768 5
  23127312.985    -4242711.306 4  -2432397.633 2
  23870445.829     -605490.628 3   -314244.229 3
 95  2 19 19  7 29.9970000  0  8 22 14 19 18 29 28 31 27
  22562371.860     6286490.237 5   4905951.043 6
  22001234.071     7504598.844 5   5846895.927 6
  20886417.751   -14472887.104 6 -11102404.887 7
  19919173.853   -15001724.309 7 -11603921.704 8
  19806975.063    -7387647.715 7  -5700507.753 8
  22888850.657    -8918456.433 5  -6263226.739 5
  23106277.860    -4353227.893 4  -2518514.352 2
  23851305.243     -706051.522 3   -392603.337 2
 95  2 19 19  7 59.9970000  0  8 22 14 19 18 29 28 31 27
  22576092.610     6358581.897 6   4962126.278 6
  22016104.821     7582744.421 5   5907788.509 5
  20873474.524   -14540909.956 6 -11155409.701 7
  19905926.634   -15071346.129 7 -11658172.475 8
  19803962.790    -7403478.235 7  -5712843.237 8
  22875149.845    -8990469.315 5  -6319340.664 5
  23085267.345    -4463635.753 3  -2604546.394 2
  23832189.532     -806523.771 3   -470893.331 1
 95  2 19 19  8 29.9970000  0  8 22 14 19 18 29 28 31 27
  22589851.571     6430889.231 6   5018469.579 6
  22031013.485     7661098.684 5   5968843.686 5
  20860569.274   -14608728.423 6 -11208255.259 7
  19892739.563   -15140639.102 7 -11712166.998 8
  19801021.454    -7418937.637 7  -5724889.542 8
  22861514.087    -9062114.067 5  -6375167.725 5
  23064274.282    -4573951.234 3  -2690506.438 1
  23813083.134     -906933.693 3   -549134.760 2
 95  2 19 19  8 59.9970000  0  8 22 14 19 18 29 28 31 27
  22603653.704     6503414.666 5   5074982.823 6
  22045969.829     7739686.374 5   6030080.767 5
  20847703.790   -14676345.429 6 -11260943.832 7
  19879612.782   -15209618.013 7 -11765916.800 8
  19798153.696    -7434008.148 7  -5736632.817 8
  22847953.790    -9133376.870 5  -6430697.165 5
  23043300.735    -4684167.117 3  -2776388.873 3
  23793991.728    -1007275.543 2   -627323.116 2
 95  2 19 19  9 29.9970000  0  8 22 14 19 18 29 28 31 27
  22617496.743     6576161.078 5   5131668.257 6
  22060968.220     7818510.537 6   6091502.117 5
  20834876.509   -14743754.350 6 -11313470.260 7
  19866545.298   -15278275.340 7 -11819416.019 8
  19795360.821    -7448681.414 7  -5748066.548 8
  22834469.915    -9204248.920 5  -6485922.119 5
  23022348.595    -4794281.644 4  -2862192.307 3
  23774905.126    -1107536.799 2   -705448.700 1
 95  2 19 19  9 59.9970000  0  8 22 14 19 18 29 28 31 27
  22631376.228     6649097.225 6   5188501.542 5
  22076008.728     7897548.324 6   6153089.913 5
  20822079.626   -14810982.561 6 -11365855.878 7
  19853539.626   -15346627.903 7 -11872677.754 8
  19792642.063    -7462967.983 7  -5759198.961 8
  22821055.962    -9274745.542 5  -6540854.512 5
  23001413.165    -4904307.984 4  -2947927.055 2
  23755838.009    -1207730.409 2   -783521.581 1
 95  2 19 19 10 29.9970000  0  8 22 14 19 18 29 28 31 27
  22645295.618     6722244.436 6   5245499.289 5
  22091091.743     7976807.851 6   6214850.505 5
  20809325.681   -14878006.643 6 -11418082.424 7
  19840594.884   -15414660.769 7 -11925690.387 8
  19790005.001    -7476831.492 7  -5770001.707 8
  22807711.470    -9344845.067 5  -6595477.488 5
  22980489.610    -5014235.095 4  -3033584.492 4
  23736791.196    -1307841.976 2   -861530.576 1
 95  2 19 19 10 59.9970000  0  7 22 14 19 18 29 28 31
  22659255.063     6795600.158 6   5302659.518 5
  22106210.665     8056259.797 6   6276761.031 5
  20796611.985   -14944841.124 6 -11470161.227 7
  19827706.759   -15482375.132 7 -11978454.826 8
  19787445.962    -7490277.209 7  -5780478.905 8
  22794447.634    -9414557.519 5  -6649798.855 5
  22959588.868    -5124071.162 4  -3119170.969 3
 95  2 19 19 11 29.9970000  0  7 22 14 19 18 29 28 31
  22673253.774     6869167.388 6   5359984.562 5
  22121361.251     8135883.654 6   6338805.511 5
  20783925.704   -15011485.771 6 -11522092.119 7
  19814889.728   -15549741.669 7 -12030948.235 8
  19784964.720    -7503310.918 7  -5790635.062 8
  22781259.056    -9483876.609 5  -6703813.697 5
  22938708.274    -5233807.260 5  -3204679.575 3
 95  2 19 19 11 59.9970000  0  7 22 14 19 18 29 28 31
  22687296.048     6942956.011 6   5417482.118 5
  22136546.962     8215673.532 6   6400979.363 5
  20771283.735   -15077934.124 6 -11573870.055 7
  19802132.931   -15616761.547 7 -12083171.527 8
  19782561.649    -7515941.868 7  -5800477.378 8
  22768142.040    -9552795.208 5  -6757516.486 5
  22917848.532    -5343424.505 5  -3290095.544 5
 95  2 19 19 12 29.9970000  0  8 22 14 19 18 29 28 31 27
  22701378.806     7016967.202 6   5475153.102 5
  22151761.548     8295624.893 6   6463279.040 5
  20758675.813   -15144194.298 6 -11625501.351 7
  19789446.946   -15683433.708 7 -12135123.860 8
  19780231.103    -7528189.661 7  -5810021.134 8
  22755097.188    -9621323.241 5  -6810914.911 5
  22897013.743    -5452928.609 5  -3375423.353 5
  23660712.798          -0.64412
 95  2 19 19 12 59.9970000  0  8 22 14 19 18 29 28 31 27
  22715507.446     7091214.775 6   5533008.273 5
  22167005.337     8375738.228 6   6525704.930 5
  20746103.063   -15210259.929 7
  19776832.149   -15749731.526 7
  19777972.064    -7540062.688 7  -5819272.857 8
  22742135.321    -9689450.414 5  -6864000.985 5
  22876196.235    -5562300.887 5  -3460648.446 5
  23641725.892      -99782.623 3
 95  2 19 19 13 29.9970000  0  8 22 14 19 18 29 28 31 27
  22729673.329     7165662.808 6   5591019.636 5
  22182283.220     8456001.147 6   6588247.364 5
  20733572.274   -15276135.037 6
  19764281.165   -15815670.093 7
  19775780.595    -7551577.812 7  -5828245.693 8
  22729244.774    -9757194.576 5  -6916788.596 5
  22855410.923    -5671547.180 5  -3545775.377 5
  23622749.368     -199492.291 3        -0.26611
 95  2 19 19 13 59.9970000  0  8 22 14 19 18 29 28 31 27
  22743881.603     7240331.027 5   5649202.590 5
  22197591.501     8536464.736 6   6650946.171 5
  20721077.056   -15341774.117 7
  19751809.610   -15881226.413 7
  19773664.220    -7562698.579 7  -5836911.245 8
  22716431.563    -9824523.899 5  -6969252.978 5
  22834652.298    -5780632.718 5  -3630777.025 5
  23603790.774     -299109.054 3    -77623.666 2
 95  2 19 19 14 29.9970000  0  8 22 14 19 18 29 28 31 27
  22758131.931     7315196.169 6   5707538.990 5
  22212940.360     8617123.340 5   6713796.938 5
  20708630.509   -15407190.672 6 -11830433.568 7
  19739403.282   -15946411.378 7 -12340041.553 8
  19771625.860    -7573411.314 7  -5845258.851 8
  22703697.009    -9891454.055 5  -7021406.293 5
  22813918.415    -5889578.891 5  -3715670.085 5
  23584852.048     -398644.673 3   -155183.853 2
 95  2 19 19 14 59.9970000  0  8 22 14 19 18 29 28 31 27
  22772411.782     7390237.078 6   5766012.338 5
  22228323.790     8697959.281 5   6776785.878 5
  20696222.571   -15472391.740 6 -11881239.581 7
  19727065.751   -16011249.823 7 -12390565.011 8
  19769666.274    -7583712.786 7  -5853285.986 8
  22691035.665    -9957988.429 5  -7073251.219 5
  22793215.446    -5998386.629 5  -3800455.273 4
  23565930.087     -498100.707 4   -232682.014 4
 95  2 19 19 15 29.9970000  0  8 22 14 19 18 29 28 31 27
  22786723.774     7465445.786 5   5824616.433 5
  22243743.603     8778992.120 5   6839928.253 5
  20683851.157   -15537383.743 6 -11931882.690 7
  19714795.563   -16075741.855 7 -12440818.532 8
  19767785.876    -7593588.127 7  -5860981.068 8
  22678452.579   -10024114.656 5  -7124778.093 5
  22772536.493    -6107047.621 5  -3885126.099 4
  23547014.228     -597489.695 4   -310127.910 5
 95  2 19 19 15 59.9970000  0  8 22 14 19 18 29 28 31 27
  22801069.228     7540845.108 5   5883369.053 5
  22259200.298     8860220.743 5   6903223.184 5
  20671526.321   -15602175.908 6 -11982370.080 7
  19702587.712   -16139880.957 7 -12490797.059 8
  19765989.595    -7603031.986 7  -5868339.938 8
  22665947.415   -10089817.405 5  -7175974.991 5
  22751891.165    -6215554.215 5  -3969676.650 4
  23528114.368     -696791.956 3   -387506.221 4
 95  2 19 19 16 29.9970000  0  8 22 14 19 18 29 28 31 27
  22815448.860     7616406.325 5   5942247.838 5
  22274684.892     8941600.861 5   6966636.145 5
  20659221.657   -15666812.058 6 -12032735.907 7
  19690447.696   -16203689.893 7 -12540518.310 8
  19764269.923    -7612069.885 7  -5875382.482 8
  22653523.181   -10155118.366 5  -7226858.787 5
  22731268.024    -6323921.153 5  -4054118.351 5
  23509235.485     -796015.401 3   -464823.136 1
 95  2 19 19 16 59.9970000  0  8 22 14 19 18 29 28 31 27
  22829859.188     7692140.294 5   6001261.232 5
  22290201.751     9023133.836 5   7030168.231 5
  20646955.243   -15731288.088 6 -12082976.961 7
  19678366.454   -16267161.973 7 -12589977.071 8
  19762626.509    -7620709.997 7  -5882115.050 8
  22641176.532   -10219999.217 5  -7277415.246 5
  22710676.571    -6432136.939 5  -4138442.270 5
  23490369.751     -895150.483 3   -542071.218 2
 95  2 19 19 17 29.9970000  0  8 22 14 19 18 29 28 31 27
  22844305.431     7768045.120 5   6060407.747 5
  22305743.235     9104807.850 5   7093810.202 5
  20634718.415   -15795605.353 6
  19666354.493   -16330289.618 7 -12639167.438 8
  19761055.759    -7628963.927 7  -5888546.698 8
  22628903.595   -10284462.490 5
  22690109.790    -6540214.021 5  -4222658.124 4
  23471521.759     -994196.259 4   -619249.676 2
 95  2 19 19 17 59.9970000  0  8 22 14 19 18 29 28 31 27
  22858785.423     7844127.149 5   6119692.354 5
  22321313.688     9186631.284 5   7157568.595 5
  20622511.251   -15859737.255 6 -12183067.217 7
  19654409.626   -16393068.288 7 -12688085.874 8
  19759560.337    -7636815.418 7  -5894664.759 8
  22616723.571   -10348494.145 5  -7377541.047 5
  22669569.720    -6648137.672 5  -4306754.420 5
  23452696.103    -1093134.201 3   -696344.112 4
 95  2 19 19 18 29.9970000  0  8 22 14 19 18 29 28 31 27
  22873295.556     7920382.872 5   6179112.304 6
  22336914.689     9268605.382 5   7221444.397 5
  20610342.978   -15923675.596 7 -12232889.292 7
  19642531.642   -16455492.839 7 -12736728.386 8
  19758144.392    -7644260.981 7  -5900466.511 8
  22604617.907   -10412093.299 5  -7427098.786 5
  22649064.001    -6755908.583 5  -4390731.701 4
  23433884.884    -1191979.534 3   -773366.415 4
 95  2 19 19 18 59.9970000  0  8 22 14 19 18 29 28 31 27
  22887841.181     7996820.879 5   6238674.295 6
  22352541.532     9350728.417 5   7285436.269 5
  20598215.837   -15987410.800 6 -12282553.077 7
  19630717.446   -16517561.518 7 -12785093.588 8
  19756804.134    -7651304.840 7  -5905955.249 8
  22592599.774   -10475266.573 5  -7476324.662 5
  22628582.759    -6863537.742 5  -4474598.504 5
  23415089.462    -1290748.383 3   -850329.081 3
 95  2 19 19 19 29.9970000  0  8 22 14 19 18 29 28 31 27
  22902424.095     8073443.615 5   6298380.238 6
  22368198.806     9433003.387 5   7349546.515 5
  20586128.970   -16050939.079 6 -12332055.611 7
  19618975.790   -16579261.072 7 -12833171.150 8
  19755542.220    -7657937.906 7  -5911123.888 8
  22580661.438   -10538013.165 5  -7525218.073 5
  22608132.142    -6971001.522 5  -4558336.463 4
  23396312.103    -1389434.519 3   -927227.340 2
 95  2 19 19 19 59.9970000  0  8 22 14 19 18 29 28 31 27
  22917039.642     8150254.115 5   6358232.493 6
  22383883.618     9515426.188 5   7413771.955 5
  20574076.587   -16114257.222 6 -12381394.413 7
  19607309.978   -16640576.088 7 -12880949.085 8
  19754360.884    -7664146.916 7  -5915962.097 8
  22568799.876   -10600330.115 6  -7573776.692 5
  22587715.298    -7078279.703 5  -4641929.771 5
  23377548.681    -1488045.654 3  -1004067.122 2
 95  2 19 19 20 29.9970000  0  8 22 14 19 18 29 28 31 27
  22931695.790     8227268.179 6   6418243.381 6
  22399596.087     9597984.724 5   7478103.156 5
  20562069.657   -16177359.646 6 -12430565.130 7
  19595720.040   -16701478.066 7 -12928405.166 8
  19753260.196    -7669925.421 7  -5920464.851 8
  22557027.024   -10662210.687 5  -7621995.264 5
  22567338.103    -7185356.786 5  -4725366.383 4
  23358796.813    -1586571.792 4  -1080840.708 1
 95  2 19 19 20 59.9970000  0  8 22 14 19 18 29 28 31 27
  22946383.774     8304456.774 5   6478390.255 6
  22415326.563     9680667.039 5   7542530.826 4
  20550099.610   -16240260.217 6 -12479578.561 7
  19584206.446   -16761983.451 7 -12975552.217 8
  19752238.853    -7675289.115 7  -5924644.371 8
  22545330.892   -10723667.958 5  -7669883.994 5
  22547001.454    -7292240.608 5  -4808652.401 5
  23340063.493    -1685031.440 4  -1157562.499 2
 95  2 19 19 21 29.9970000  0  8 22 14 19 18 29 28 31 27
  22961100.204     8381800.496 5   6538658.008 6
  22431086.689     9763476.122 5   7607057.254 5
  20538170.524   -16302963.629 6 -12528438.358 7
  19572769.821   -16822084.531 7 -13022384.228 8
  19751298.618    -7680233.621 7  -5928497.258 8
  22533715.798   -10784690.551 5  -7717434.020 5
  22526699.649    -7398918.580 5  -4891778.007 5
  23321338.681    -1783415.833 4  -1234225.618 1
 95  2 19 19 21 59.9970000  0  8 22 14 19 18 29 28 31 27
  22975844.720     8459279.849 5   6599031.452 6
  22446866.548     9846408.944 5   7671680.133 4
  20526273.970   -16365471.124 6 -12577145.490 7
  19561408.751   -16881780.158 7 -13068900.305 8
  19750436.720    -7684770.898 7  -5932032.819 8
  22522190.915   -10845276.918 6  -7764644.139 5
  22506439.735    -7505409.085 5  -4974757.536 5
  23302630.634    -1881734.361 4  -1310837.394 4
 95  2 19 19 22 29.9970000  0  8 22 14 19 18 29 28 31 27
  22990613.806     8536890.952 5   6659507.543 5
  22462675.313     9929484.541 5   7736414.212 4
  20514414.868   -16427786.854 6 -12625703.193 7
  19550125.376   -16941080.413 7 -13115108.290 9
  19749646.462    -7688909.859 7  -5935258.015 8
  22510746.126   -10905416.637 6  -7811506.199 5
  22486205.548    -7611718.817 5  -5057596.182 5
  23283934.767    -1979983.316 4  -1387394.975 4
 95  2 19 19 22 59.9970000  0  8 22 14 19 18 29 28 31 27
  23005404.892     8614626.651 5   6720080.729 5
  22478511.673    10012717.664 5   7801271.081 3
  20502593.704   -16489911.825 6 -12674112.258 7
  19538915.032   -16999989.345 7 -13161011.354 9
  19748937.517    -7692650.075 7  -5938172.490 8
  22499387.704   -10965102.810 6  -7858014.847 5
  22466012.024    -7717856.581 5  -5140300.840 5
  23265255.118    -2078150.308 5  -1463888.710 4
 95  2 19 19 23 29.9970000  0  8 22 14 19 18 29 28 31 27
  23020216.673     8692464.795 5   6780733.738 5
  22494375.438    10096076.296 5   7866225.742 4
  20490802.931   -16551869.507 6 -12722390.968 7
  19527778.509   -17058512.259 7 -13206613.621 9
  19748297.220    -7696003.076 7  -5940785.239 8
  22488109.774   -11024349.223 5  -7904180.847 5
  22445843.188    -7823836.298 5  -5222882.320 5
  23246585.142    -2176243.032 5  -1540324.554 4
 95  2 19 19 23 59.9970000  0  8 22 14 19 18 29 28 31 27
  23035056.103     8770440.158 5   6841493.679 5
  22510264.806    10179561.864 5   7931279.309 4
  20479046.368   -16613640.257 7 -12770524.025 7
  19516716.735   -17116645.730 7 -13251912.432 8
  19747738.188    -7698948.335 7  -5943080.264 8
  22476928.665   -11083139.648 6  -7949991.503 5
  22425705.923    -7929647.375 5  -5305332.412 5
  23227933.681    -2274249.900 4  -1616693.502 3
 95  2 19 19 24 29.9970000  0  8 22 14 19 18 29 28 31 27
  23049918.212     8848550.147 5   6902358.505 5
  22526171.868    10263146.922 5   7996410.397 2
  20467327.462   -16675241.288 6 -12818524.827 7
  19505722.962   -17174410.293 7 -13296923.776 9
  19747255.931    -7701483.447 7  -5945055.705 8
  22465819.556   -11141490.823 6  -7995459.891 5
  22405604.134    -8035294.156 5  -5387654.465 4
  23209298.579    -2372182.750 3  -1693004.772 5
 95  2 19 19 24 59.9970000  0  8 22 14 19 18 29 28 31 27
  23064816.540     8926823.192 5   6963350.393 5
  22542094.189    10346838.773 5   8061624.713 4
  20455639.360   -16736640.104 7 -12866368.059 7
  19494809.259   -17231775.437 7 -13341623.880 8
  19746859.087    -7703565.735 7  -5946678.284 8
  22454803.321   -11199379.955 5  -8040568.240 5
  22385540.298    -8140732.642 5  -5469814.244 4
  23190682.126    -2470019.809 4  -1769241.363 4
 95  2 19 19 25 29.9970000  0  8 22 14 19 18 29 28 31 27
  23079742.267     9005256.351 5   7024467.054 4
  22558038.134    10430620.405 5   8126908.958 4
  20443993.649   -16797850.294 7 -12914064.302 7
  19483966.267   -17288745.888 7 -13386016.443 8
  19746544.563    -7705209.183 7  -5947958.915 8
  22443879.173   -11256814.793 5  -8085322.583 5
  22365509.728    -8245959.625 5  -5551809.201 4
  23172074.915    -2567794.302 3  -1845429.224 4
 95  2 19 19 25 59.9970000  0  8 22 14 19 18 29 28 31 27
  23094698.071     9083866.244 5   7085721.417 4
  22574004.993    10514505.410 5   8192273.749 5
  20432386.259   -16858852.831 7 -12961598.742 7
  19473200.235   -17345313.772 7 -13430095.315 8
  19746315.665    -7706412.019 7  -5948896.219 8
  22433032.978   -11313782.298 5  -8129712.782 5
  22345533.110    -8350968.935 5  -5633634.564 3
  23153486.134    -2665499.265 3  -1921562.927 3
 95  2 19 19 26 29.9970000  0  8 22 14 19 18 29 28 31 27
  23109684.298     9162626.376 5   7147092.862 4
  22589986.446    10598497.570 5   8257722.045 4
  20420814.892   -16919660.463 7 -13008981.300 7
  19462517.165   -17401467.551 7 -13473851.505 9
  19746167.993    -7707191.448 7  -5949503.588 8
  22422279.274   -11370287.105 5  -8173742.427 5
  22325592.681    -8455749.872 5  -5715281.958 3
  23134904.767    -2763140.457 3  -1997646.929 4
 95  2 19 19 26 59.9970000  0  8 22 14 19 18 29 28 31 27
  23124700.071     9241518.120 5   7208566.872 4
  22605985.360    10682583.480 5   8323243.398 5
  20409275.985   -16980285.756 7 -13056221.791 7
  19451909.188   -17457212.702 7 -13517289.282 8
  19746095.392    -7707576.531 7
  22411616.689   -11426333.223 6  -8217414.650 5
  22305696.954    -8560312.997 5  -5796759.631 3
  23116334.118    -2860719.720 3  -2073682.671 3
 95  2 19 19 27 29.9970000  0  8 22 14 19 18 29 28 31 27
  23139736.743     9320535.849 5   7270139.037 5
  22622004.103    10766753.494 5   8388830.266 5
  20397774.126   -17040737.349 7 -13103326.916 7
  19441377.970   -17512554.993 7 -13560413.143 9
  19746092.165    -7707587.103 7
  22401040.134   -11481918.500 6  -8260727.775 5
  22285838.251    -8664663.076 5  -5878071.306 3
  23097777.235    -2958229.585 4  -2149664.352 4
 95  2 19 19 27 59.9970000  0  8 22 14 19 18 29 28 31 27
  23154797.009     9399687.840 5   7331815.833 5
  22638036.181    10851003.507 5   8454479.477 5
  20386307.509   -17100997.409 7 -13150282.804 7
  19430921.618   -17567494.796 7
  19746166.384    -7707194.961 7
  22390555.587   -11537032.789 6
  22266026.337    -8768783.014 5  -5959203.659 2
  23079243.376    -3055643.122 4  -2225570.960 3
 95  2 19 19 28 29.9970000  0  8 22 14 19 18 29 28 31 27
  23169882.470     9478958.855 5   7393585.373 5
  22654078.540    10935310.768 5   8520173.299 5
  20374870.899   -17161092.557 7 -13197110.200 7
  19420539.517   -17622057.461 7
  19746316.517    -7706404.416 7  -5948890.417 8
  22380150.751   -11591694.400 5
  22246255.438    -8872676.075 5  -6040159.217 2
  23060722.782    -3152978.610 4  -2301416.757 4
 95  2 19 19 28 59.9970000  0  8 22 14 19 18 29 28 31 27
  23184994.853     9558377.259 5   7455469.754 5
  22670135.704    11019689.688 5   8585922.957 5
  20363471.548   -17220987.517 7 -13243781.578 7
  19410233.095   -17676228.290 7
  19746553.774    -7705175.934 7  -5947933.177 8
  22369841.017   -11645873.173 5
  22226534.048    -8976318.172 5  -6120919.232 2
  23042218.173    -3250199.957 4  -2377173.611 2
 95  2 19 19 29 29.9970000  0  8 22 14 19 18 29 28 31 27
  23200131.923     9637922.472 5   7517452.942 5
  22686204.681    11104140.249 5   8651728.429 4
  20352111.134   -17280690.237 7 -13290303.173 8
  19399994.524   -17730024.329 7
  19746870.673    -7703500.212 7  -5946627.447 8
  22359623.071   -11699582.001 5
  22206853.267    -9079716.094 5  -6201488.959 3
  23023733.228    -3347340.246 4  -2452867.325 2
 95  2 19 19 29 59.9970000  0  8 22 14 19 18 29 28 31 27
  23215291.384     9717580.812 5   7579524.283 5
  22702294.470    11188678.622 5   8717602.331 5
  20340788.454   -17340193.547 7 -13336669.385 8
  19389829.993   -17783436.516 7 -13771489.652 8
  19747276.407    -7701369.406 7  -5944967.106 8
  22349492.079   -11752820.061 5  -8471820.036 5
  22187227.845    -9182864.885 5  -6281864.569 4
  23005261.915    -3444408.141 4  -2528504.619 4
 95  2 19 19 30 29.9970000  0  8 22 14 19 18 29 28 31 27
  23230464.454     9797333.235 5   7641668.921 5
  22718402.024    11273324.291 5   8783559.847 4
  20329501.009   -17399509.226 7 -13382889.384 8
  19379741.079   -17836457.717 7 -13812804.883 8
  19747768.798    -7698797.865 7  -5942963.335 8
  22339444.579   -11805584.689 5  -8512935.277 6
  22167646.501    -9285763.852 5  -6362045.501 4
  22986805.204    -3541407.010 4  -2604088.142 3
 95  2 19 19 30 59.9960000  0  8 22 14 19 18 29 28 31 27
  23245657.066     9877170.703 4   7703879.828 5
  22734532.191    11358085.564 5   8849607.436 5
  20318249.949   -17458623.492 7 -13428952.452 8
  19369732.629   -17889068.153 7 -13853800.029 8
  19748341.363    -7695777.771 7  -5940610.043 9
  22329496.473   -11857863.156 5  -8553671.677 6
  22148116.590    -9388401.411 5  -6442022.746 5
  22968362.355    -3638329.215 4  -2679611.863 5
 95  2 19 19 31 29.9960000  0  8 22 14 19 18 29 28 31 27
  23260867.035     9957088.486 4   7766153.327 5
  22750684.473    11442965.238 5   8915747.283 5
  20307042.012   -17517551.040 7 -13474870.015 8
  19359795.207   -17941262.464 7 -13894470.925 8
  19748995.652    -7692330.774 7  -5937924.097 8
  22319639.926   -11909670.292 5  -8594040.824 6
  22128629.598    -9490796.322 5  -6521810.907 5
  22949924.902    -3735205.884 4  -2755100.120 5
 95  2 19 19 31 59.9960000  0  8 22 14 19 18 29 28 31 27
  23276086.270    10037081.858 4   7828485.734 5
  22766851.871    11527937.797 5   8981959.508 4
  20295858.309   -17576295.015 7 -13520644.544 7
  19349946.566   -17993039.026 7 -13934816.299 8
  19749728.465    -7688482.424 7  -5934925.413 8
  22309873.012   -11961008.375 5  -8634044.459 6
  22109190.191    -9592948.708 5  -6601410.096 5
  22931503.481    -3832012.015 4  -2830533.414 4
 95  2 19 19 32 29.9960000  0  8 22 14 19 18 29 28 31 27
  23291331.113    10117187.767 4   7890905.803 5
  22783039.613    11613003.712 5   9048244.477 5
  20284722.309   -17634844.202 7 -13566267.300 7
  19340172.223   -18044378.468 7 -13974821.066 8
  19750543.934    -7684207.984 7  -5931594.712 8
  22300190.223   -12011857.496 5  -8673667.112 5
  22089800.066    -9694845.729 5  -6680810.276 5
  22913097.949    -3928721.449 4  -2905891.374 4
 95  2 19 19 32 59.9960000  0  8 22 14 19 18 29 28 31 27
  23306593.652    10197415.723 5   7953421.000 5
  22799240.316    11698134.400 5   9114579.925 4
  20273618.027   -17693196.336 7 -13611736.495 8
  19330485.934   -18095284.088 7 -14014487.786 8
  19751436.027    -7679515.816 7  -5927938.504 9
  22290606.145   -12062225.908 5  -8712915.179 6
  22070455.785    -9796503.340 5  -6760023.922 5
  22894712.520    -4025350.599 4  -2981186.771 5
 95  2 19 19 33 29.9960000  0  8 22 14 19 18 29 28 31 27
  23321893.465    10277778.522 5   8016041.258 4
  22815448.941    11783313.945 5   9180953.457 4
  20262548.223   -17751363.653 7 -13657061.681 8
  19320878.473   -18145775.344 7 -14053831.631 8
  19752403.465    -7674426.763 7  -5923973.041 9
  22281116.512   -12112119.436 5  -8751793.195 6
  22051154.973    -9897932.883 5  -6839059.849 5
  22876343.145    -4121894.142 4  -3056415.472 4
 95  2 19 19 33 59.9960000  0  8 22 14 19 18 29 28 31 27
  23337215.363    10358298.789 5   8078784.226 4
  22831669.793    11868545.272 5   9247367.313 4
  20251517.543   -17809338.208 7 -13702236.647 8
  19311348.910   -18195848.933 7 -14092850.015 8
  19753454.918    -7668904.786 7  -5919670.233 9
  22271708.988   -12161519.442 5  -8790286.683 5
  22031901.512    -9999111.247 5  -6917900.052 5
  22857993.816    -4218331.169 4  -3131561.183 4
 95  2 19 19 34 29.9960000  0  8 22 14 19 18 29 28 31 27
  23352566.254    10438970.162 5   8141644.938 3
  22847900.277    11953828.932 5   9313821.942 3
  20240515.582   -17867132.694 7 -13747271.322 8
  19301902.371   -18245502.978 7 -14131541.477 8
  19754589.121    -7662947.746 7  -5915028.417 9
  22262408.746   -12210427.515 5  -8828396.843 6
  22012696.441   -10100037.227 5  -6996543.583 5
  22839651.371    -4314691.117 4  -3206646.839 4
 95  2 19 19 34 59.9960000  0  8 22 14 19 18 29 28 31 27
  23367936.035    10519753.181 5   8204592.648 3
  22864136.363    12039160.585 5   9380313.984 3
  20229552.426   -17924752.354 7 -13792169.760 7
  19292532.574   -18294742.800 7 -14169910.175 8
  19755800.082    -7656579.762 7  -5910066.385 9
  22253191.770   -12258849.633 5  -8866128.339 6
  21993538.887   -10200710.780 5  -7074990.412 5
  22821329.215    -4410978.324 4  -3281675.828 3
 95  2 19 19 35 29.9960000  0  8 22 14 19 18 29 28 31 27
  23383331.152    10600631.996 5   8267615.003 2
  22880387.637    12124556.016 4   9446855.724 2
  20218619.246   -17982193.473 7 -13836929.090 8
  19283246.449   -18343548.530 7 -14207940.625 8
  19757094.090    -7649780.757 7  -5904768.492 9
  22244076.637   -12306770.204 5  -8903469.020 6
  21974434.152   -10301105.531 5  -7153219.980 5
  22803023.449    -4507181.302 4  -3356639.168 4
 95  2 19 19 35 59.9960000  0  8 22 14 19 18 29 28 31 27
  23398729.465    10681560.120 5   8330675.766 3
  22896646.262    12210000.331 5   9513435.554 3
  20207722.020   -18039472.276 7 -13881561.917 8
  19274040.238   -18391918.454 7 -14245631.466 8
  19758469.668    -7642554.390 7  -5899137.592 9
  22235049.027   -12354201.509 5  -8940428.456 6
  21955380.152   -10401221.976 5  -7231232.716 5
  22784723.512    -4603335.946 4  -3431564.846 4
 95  2 19 19 36 29.9960000  0  8 22 14 19 18 29 28 31 27
  23414135.691    10762523.643 4   8393764.100 3
  22912914.176    12295497.326 4   9580056.432 3
  20196854.629   -18096583.010 7 -13926063.787 8
  19264917.332   -18439852.431 7 -14282982.630 8
  19759923.582    -7634909.853 7  -5893180.836 9
  22226116.371   -12401139.780 5  -8977003.704 6
  21936383.824   -10501054.899 5  -7309024.511 5
  22766438.113    -4699435.705 4  -3506447.752 4
 95  2 19 19 36 59.9960000  0  8 22 14 19 18 29 28 31 27
  23429549.723    10843519.925 4   8456877.961 3
  22929191.191    12381024.889 4   9646701.113 4
  20186018.652   -18153512.445 7 -13970424.393 8
  19255878.043   -18487361.596 7 -14320002.754 8
  19761458.535    -7626847.939 7  -5886898.863 9
  22217282.074   -12447590.525 5  -9013199.076 6
  21917443.566   -10600604.104 5  -7386595.232 5
  22748160.590    -4795482.454 4  -3581289.355 4
 95  2 19 19 37 29.9960000  0  8 22 14 19 18 29 28 31 27
  23444975.293    10924576.357 4   8520038.724 4
  22945469.699    12466568.427 5   9713358.259 3
  20175220.824   -18210250.770 7 -14014636.088 8
  19246922.082   -18534443.384 7 -14356689.858 8
  19763075.074    -7618351.623 7  -5880278.387 9
  22208531.340   -12493550.403 5  -9049011.942 6
  21898551.332   -10699863.126 5  -7463939.837 5
  22729892.598    -4891487.417 4  -3656098.378 4
 95  2 19 19 37 59.9960000  0  8 22 14 19 18 29 28 31 27
  23460416.926    11005720.431 4   8583267.745 3
  22961755.332    12552136.375 5   9780034.438 1
  20164470.824   -18266769.872 7 -14058676.941 8
  19238041.527   -18581086.976 7 -14393035.513 8
  19764774.504    -7609421.121 7  -5873319.587 9
  22199877.230   -12539008.793 5  -9084434.044 6
  21879721.707   -10798825.851 5  -7541053.552 5
  22711635.332    -4987424.749 4  -3730854.721 4
 95  2 19 19 38 29.9960000  0  8 22 14 19 18 29 28 31 27
  23475875.262    11086962.524 4   8646573.142 4
  22978037.355    12637711.834 5   9846716.461 3
  20153754.668   -18323061.006 7 -14102540.156 8
  19229252.145   -18627296.824 7 -14429043.193 8
  19766553.988    -7600069.526 7  -5866032.663 9
  22191319.184   -12583972.749 5  -9119470.874 6
  21860938.910   -10897508.255 5  -7617948.838 5
  22693393.520    -5083281.246 4  -3805548.089 5
 95  2 19 19 38 59.9960000  0  8 22 14 19 18 29 28 31 27
  23491353.980    11168292.638 3   8709947.139 4
  22994322.879    12723277.073 5   9913390.515 2
  20143083.379   -18379138.888 7 -14146237.210 8
  19220540.965   -18673060.124 7 -14464702.920 8
  19768413.324    -7590301.800 7  -5858421.477 9
  22182863.105   -12628447.452 6  -9154126.466 6
  21842214.504   -10995920.842 5  -7694633.873 5
  22675170.301    -5179062.676 4  -3880182.944 5
 95  2 19 19 39 29.9960000  0  8 22 14 19 18 29 28 31 27
  23506836.285    11249691.509 3   8773374.708 4
  23010604.855    12808846.404 4   9980067.754 2
  20132450.981   -18435029.301 7 -14189788.182 8
  19211913.863   -18718378.776 7 -14500016.161 8
  19770351.816    -7580110.365 7  -5850480.126 9
  22174495.027   -12672431.161 6  -9188399.459 6
  21823532.520   -11094068.864 5  -7771112.755 5
  22656956.324    -5274756.533 4  -3954749.560 5
 95  2 19 19 39 59.9960000  0  8 22 14 19 18 29 28 31 27
  23522340.863    11331155.345 3   8836852.901 5
  23026894.535    12894442.968 4  10046766.207 2
  20121849.504   -18490737.031 7 -14233196.792 8
  19203377.566   -18763242.672 7 -14534975.042 8
  19772374.754    -7569479.151 7  -5842196.099 9
  22166220.910   -12715908.447 6  -9222277.833 6
  21804915.105   -11191930.335 5  -7847368.344 5
  22638769.527    -5370351.835 5  -4029239.371 5
 95  2 19 19 40 29.9960000  0  8 22 14 19 18 29 28 31 27
  23537859.754    11412665.329 4   8900367.032 3
  23043182.988    12980050.201 5  10113472.987 3
  20111275.395   -18546285.657 7 -14276481.433 8
  19194927.129   -18807664.525 7 -14569589.481 8
  19774484.606    -7558399.386 7  -5833562.541 9
  22158042.301   -12758878.123 5  -9255760.666 6
  21786350.379   -11289493.685 5  -7923391.640 5
  22620589.551    -5465867.330 5  -4103667.019 5
 95  2 19 19 40 59.9960000  0  8 22 14 19 18 29 28 31 27
  23553371.215    11494197.033 4   8963898.103 4
  23059476.785    13065672.752 5  10180191.696 4
  20100735.105   -18601691.228 7 -14319654.608 8
  19186554.301   -18851660.644 7 -14603872.178 8
  19776676.941    -7546875.482 7  -5824582.901 9
  22149960.871   -12801341.629 6  -9288849.065 6
  21767838.816   -11386747.904 5  -7999174.061 5
  22602425.441    -5561325.714 5  -4178050.155 5
 95  2 19 19 41 29.9960000  0  8 22 14 19 18 29 28 31 27
  23568889.629    11575749.035 4   9027444.989 4
  23075777.902    13151321.448 4  10246930.778 2
  20090219.738   -18656942.880 7 -14362707.834 8
  19178260.473   -18895245.928 7 -14637834.743 8
  19778951.316    -7534919.014 7  -5815266.201 9
  22141981.684   -12843297.141 6  -9321541.634 6
  21749395.191   -11483682.861 5  -8074707.707 5
  22584271.230    -5656741.071 5  -4252399.760 5
 95  2 19 19 41 59.9960000  0  8 22 14 19 18 29 28 31 27
  23584417.738    11657340.858 4   9091022.914 2
  23092080.137    13236995.419 4  10313689.544 2
  20079740.434   -18712018.850 7 -14405624.171 8
  19170045.004   -18938406.297 7 -14671466.207 8
  19781309.449    -7522536.371 7  -5805617.411 9
  22134092.902   -12884732.674 6  -9353829.020 6
  21731010.168   -11580284.874 5  -8149981.920 5
  22566122.035    -5752107.875 4  -4326711.523 5
 95  2 19 19 42 29.9960000  0  8 22 14 19 18 29 28 31 27
  23599954.691    11738976.865 4   9154635.272 2
  23108384.223    13322682.977 4  10380458.899 3
  20069296.363   -18766905.940 7 -14448393.330 8
  19161912.816   -18981146.566 7 -14704770.316 8
  19783740.113    -7509750.989 7  -5795654.800 9
  22126305.902   -12925655.715 6  -9385717.066 6
  21712691.777   -11676565.462 6  -8225005.684 5
  22547986.988    -5847414.851 5  -4400976.673 5
 95  2 19 19 42 59.9960000  0  8 22 14 19 18 29 28 31 27
  23615505.871    11820686.102 5   9218304.668 3
  23124698.535    13408411.872 4  10447260.484 2
  20058892.535   -18821588.217 7 -14491002.893 8
  19153861.941   -19023455.298 7 -14737738.161 8
  19786251.676    -7496555.824 7  -5785372.882 9
  22118613.754   -12966056.433 6  -9417198.099 6
  21694431.559   -11772520.590 6  -8299775.850 5
  22529861.270    -5942643.239 4  -4475180.617 4
 95  2 19 19 43 29.9960000  0  8 22 14 19 18 29 28 31 27
  23631068.941    11902478.494 5   9282038.881 2
  23141015.566    13494163.220 3  10514079.553 3
  20048522.715   -18876070.265 7 -14533456.439 8
  19145893.582   -19065323.657 7 -14770362.863 8
  19788841.918    -7482946.659 7  -5774768.361 9
  22111025.090   -13005937.551 6  -9448274.264 6
  21676229.309   -11868166.055 6  -8374304.721 5
  22511762.723    -6037775.957 4  -4549309.989 2
 95  2 19 19 43 59.9960000  0  8 22 14 19 18 29 28 31 27
  23646650.230    11984364.530 5   9345846.065 2
  23157336.074    13579922.785 3  10580905.039 2
  20038189.410   -18930357.316 7 -14575758.038 8
  19138015.621   -19106741.334 7 -14802636.380 8
  19791512.543    -7468908.739 7  -5763829.754 8
  22103536.746   -13045299.979 6  -9478946.250 6
  21658085.254   -11963508.954 6  -8448597.822 5
  22493676.949    -6132802.548 4  -4623356.663 5
 95  2 19 19 44 29.9960000  0  8 22 14 19 18 29 28 31 27
  23662247.004    12066328.051 5   9409713.618 2
  23173657.355    13665688.797 3  10647735.527 2
  20027899.020   -18984459.794 7 -14617915.807 8
  19130217.324   -19147704.235 7 -14834555.525 8
  19794265.832    -7454443.171 7  -5752557.916 9
  22096139.176   -13084146.543 6  -9509216.271 6
  21640005.660   -12058541.363 6
  22475606.098    -6227731.527 4
 95  2 19 19 44 59.9960000  0  8 22 14 19 18 29 28 31 27
  23677857.590    12148356.975 4   9473632.142 2
  23189977.020    13751468.156 3  10714576.424 1
  20017634.887   -19038389.393 7 -14659938.885 8
  19122514.652   -19188189.595 7 -14866102.564 8
  19797104.520    -7439528.670 7  -5740936.255 9
  22088853.270   -13122465.052 6  -9539074.826 6
  21621979.176   -12153254.293 6  -8596451.213 5
  22457567.840    -6322571.655 4  -4771228.673 4
 95  2 19 19 45 29.9960000  0  8 22 14 19 18 29 28 31 27
  23693473.012    12230428.932 4   9537584.197 1
  23206302.441    13837234.650 3  10781407.275 1
  20007402.559   -19092152.357 7 -14701832.111 8
  19114904.066   -19228190.452 7 -14897272.064 8
  19800024.379    -7424178.292 7  -5728974.950 8
  22081659.801   -13160261.193 6  -9568526.325 6
  21604017.020   -12247653.482 6  -8670008.959 5
  22439532.832    -6417333.670 5  -4845069.166 3
 95  2 19 19 45 59.9960000  0  8 22 14 19 18 29 28 31 27
  23709099.902    12312557.288 3   9601580.183 1
  23222621.965    13923017.710 3  10848251.011 1
  19997208.434   -19145736.165 7 -14743585.719 8
  19107386.043   -19267691.359 7 -14928051.992 8
  19803028.324    -7408390.968 7  -5716673.164 8
  22074568.137   -13197520.312 6  -9597559.379 6
  21586119.465   -12341692.955 6  -8743286.399 5
  22421515.160    -6512015.752 5  -4918847.387 4
 95  2 19 19 46 29.9960000  0  8 22 14 19 18 29 28 31 27
  23724738.316    12394725.546 3   9665607.258 1
  23238950.723    14008806.749 3  10915099.469 1
  19987043.559   -19199142.100 7 -14785200.746 8
  19099964.262   -19306693.615 7 -14958443.371 7
  19806115.316    -7392178.752 7  -5704040.305 9
  22067581.410   -13234244.053 6  -9626175.261 6
  21568296.082   -12435355.478 6  -8816270.122 5
  22403511.801    -6606630.502 5  -4992573.146 5
 95  2 19 19 46 59.9960000  0  8 22 14 19 18 29 28 31 27
  23740381.551    12476939.019 3   9729669.572 1
  23255272.105    14094567.644 3  10981925.950 2
  19976913.535   -19252379.048 7 -14826684.092 8
  19092634.285   -19345213.567 7 -14988458.923 7
  19809279.395    -7375550.644 7  -5691083.375 9
  22060692.910   -13270446.514 6  -9654384.946 6
  21550540.270   -12528656.817 6  -8888972.394 6
  22385515.348    -6701194.873 5  -5066259.641 4
 95  2 19 19 47 29.9960000  0  8 22 14 19 18 29 28 31 27
  23756037.371    12559208.811 3   9793775.832 1
  23271581.996    14180294.569 3  11048725.986 1
  19966815.293   -19305434.798 7 -14868026.241 8
  19085395.520   -19383263.779 7 -15018108.457 8
  19812523.316    -7358502.029 7  -5677798.769 8
  22053897.613   -13306127.531 5  -9682188.326 6
  21532857.832   -12621578.463 6  -8961378.802 5
  22367535.223    -6795692.529 5  -5139894.154 5
 95  2 19 19 47 59.9960000  0  8 22 14 19 18 29 28 31 27
  23771704.434    12641545.515 3   9857934.188 1
  23287894.363    14265999.993 3  11115509.242 1
  19956753.613   -19358300.511 7 -14909220.302 8
  19078243.855   -19420841.155 7 -15047389.539 7
  19815850.793    -7341010.670 7  -5664169.175 8
  22047217.699   -13341274.225 5  -9709575.335 6
  21515254.926   -12714100.334 6  -9033473.696 5
  22349563.941    -6890109.954 5  -5213466.163 5
 95  2 19 19 48 29.9960000  0  7 14 19 18 29 28 31 27
  23304197.082    14351663.087 3  11182259.539 2
  19946728.910   -19410982.841 7 -14950271.470 8
  19071182.543   -19457955.744 7 -15076309.996 8
  19819266.098    -7323064.676 7  -5650185.313 8
  22040626.191   -13375892.010 5  -9736550.212 6
  21497718.449   -12806250.337 6  -9105278.825 5
  22331611.551    -6984457.259 5  -5286983.523 5
 95  2 19 19 48 59.9960000  0  7 14 19 18 29 28 31 27
  23320494.910    14437317.353 3  11249002.878 3
  19936742.395   -19463479.148 7 -14991177.680 8
  19064205.066   -19494609.694 7 -15104871.520 7
  19822771.191    -7304651.359 7  -5635837.311 8
  22034141.762   -13409968.703 5  -9763103.469 6
  21480253.129   -12898032.799 5  -9176797.566 5
  22313675.574    -7078712.115 5  -5360428.829 5
 95  2 19 19 49 29.9960000  0  7 14 19 18 29 28 31 27
  23336791.176    14522954.145 3  11315732.662 1
  19926782.512   -19515810.492 7 -15031955.350 9
  19057312.207   -19530830.076 7 -15133095.206 7
  19826360.691    -7285789.868 7  -5621140.074 8
  22027762.582   -13443522.880 6  -9789249.563 6
  21462848.949   -12989473.560 5  -9248050.041 5
  22295756.871    -7172896.197 5  -5433819.014 4
 95  2 19 19 49 59.9960000  0  7 14 19 18 29 28 31 27
  23353083.926    14608583.869 3  11382456.926 1
  19916862.145   -19567956.164 7 -15072588.343 8
  19050504.129   -19566604.395 7 -15160971.310 7
  19830035.988    -7266475.315 7  -5606089.808 8
  22021471.191   -13476543.756 5  -9814980.106 6
  21445517.855   -13080575.310 6  -9319038.360 5
  22277846.504    -7267009.136 5  -5507153.728 5
 95  2 19 19 50 29.9960000  0  7 14 19 18 29 28 31 27
  23369380.605    14694212.960 3  11449180.715 2
  19906974.730   -19619901.111 7 -15113064.927 8
  19043784.363   -19601926.199 7 -15188494.801 7
  19833796.020    -7246713.094 7  -5590690.711 8
  22015292.434   -13509024.683 5  -9840289.908 6
  21428242.191   -13171336.188 6  -9389761.044 5
  22259950.043    -7361047.041 5  -5580430.008 5
 95  2 19 19 50 59.9960000  0  7 14 19 18 29 28 31 27
  23385672.223    14779828.368 3  11515893.792 2
  19897131.309   -19671630.307 7 -15153373.395 8
  19037149.379   -19636793.192 7 -15215663.905 7
  19837640.496    -7226511.226 7  -5574949.029 8
  22009215.481   -13540962.785 5  -9865176.740 6
  21411042.395   -13261745.593 6  -9460209.884 5
  22242074.027    -7454995.842 5  -5653636.855 4
 95  2 19 19 51 29.9960000  0  7 14 19 18 29 28 31 27
  23401955.871    14865394.256 3  11582568.319 1
  19887330.191   -19723138.198 7 -15193509.409 8
  19030603.098   -19671188.753 7 -15242465.645 7
  19841568.371    -7205874.021 7  -5558868.119 8
  22003237.082   -13572362.391 5  -9889643.959 6
  21393901.980   -13351796.782 6  -9530379.585 6
  22224211.434    -7548858.318 5  -5726776.440 5
 95  2 19 19 51 59.9960000  0  7 14 19 18 29 28 31 27
  23418231.496    14950921.340 3  11649212.577 2
  19877571.582   -19774425.180 7 -15233473.294 8
  19024151.824   -19705089.180 7 -15268881.578 7
  19845577.895    -7184804.359 7  -5542450.232 8
  21997368.160   -13603215.675 6  -9913685.482 6
  21376840.340   -13441461.861 6  -9600248.417 6
  22206367.770    -7642619.255 5  -5799836.897 5
 95  2 19 19 52 29.9960000  0  7 14 19 18 29 28 31 27
  23434493.621    15036393.102 3  11715813.726 2
  19867844.246   -19825526.113 7 -15273292.205 8
  19017797.715   -19738489.789 7 -15294908.031 7
  19849666.418    -7163318.801 7  -5525708.265 8
  21991599.559   -13633529.457 6  -9937306.615 6
  21359856.449   -13530726.749 6  -9669805.422 6
  22188546.840    -7736282.395 5  -5872821.151 5
 95  2 19 19 52 59.9960000  0  7 14 19 18 29 28 31 27
  23450750.129    15121813.543 3  11782374.856 3
  19858157.715   -19876441.699 7 -15312966.685 8
  19011541.074   -19771371.302 7 -15320530.004 7
  19853835.715    -7141410.466 7  -5508636.877 8
  21985933.559   -13663295.521 6  -9960500.950 6
  21342947.004   -13619568.118 6  -9739032.403 6
  22170741.129    -7829842.296 5  -5945724.968 5
 95  2 19 19 53 29.9960000  0  7 14 19 18 29 28 31 27
  23466996.824    15207200.781 3  11848910.160 2
  19848499.762   -19927193.917 7 -15352513.866 8
  19005380.660   -19803729.678 7 -15345744.333 7
  19858082.316    -7119088.669 7  -5491243.298 8
  21980373.012   -13692517.236 6  -9983271.132 6
  21326121.098   -13707991.681 6  -9807933.822 6
  22152950.176    -7923320.237 5  -6018564.898 5
 95  2 19 19 53 59.9960000  0  7 14 19 18 29 28 31 27
  23483237.621    15292542.484 3  11915409.943 2
  19838867.231   -19977808.437 7 -15391953.743 8
  18999317.879   -19835599.297 7 -15370577.807 7
  19862403.848    -7096377.599 7  -5473546.400 8
  21974911.934   -13721211.008 5 -10005629.910 6
  21309370.707   -13796024.874 6  -9876531.055 6
  22135173.488    -8016748.265 5  -6091365.957 5
 95  2 19 19 54 29.9960000  0  7 14 19 18 29 28 31 27
  23499474.504    15377841.212 3  11981876.241 1
  19829269.621   -20028253.534 7 -15431261.611 8
  18993347.574   -19866970.449 7 -15395022.880 7
  19866805.527    -7073251.633 7  -5455526.201 8
  21969558.715   -13749357.320 6 -10027562.114 6
  21292692.082   -13883664.994 6  -9944822.000 6
  22117406.293    -8110119.489 5  -6164122.752 5
 95  2 19 19 54 59.9960000  0  7 14 19 18 29 28 31 27
  23515696.738    15463103.017 3  12048313.819 1
  19819704.668   -20078506.673 7 -15470419.898 8
  18987471.363   -19897848.413 7 -15419083.642 7
  19871288.012    -7049694.886 7  -5437170.337 8
  21964308.191   -13776949.627 5 -10049062.611 6
  21276084.801   -13970928.009 6 -10012819.080 6
  22099648.426    -8203429.460 5  -6236831.823 5
 95  2 19 19 55 29.9960000  0  8  2 14 19 18 29 28 31 27
  23633297.855          -0.14313
  23531911.855    15548318.262 3  12114715.099 1
  19810180.160   -20128574.128 7 -15509433.495 8
  18981683.527   -19928258.176 7 -15442779.572 7
  19875853.004    -7025705.775 7  -5418477.557 8
  21959161.363   -13803991.430 5 -10070134.158 6
  21259550.223   -14057832.143 6 -10080536.523 6
  22081906.262    -8296674.323 5  -6309490.154 5
 95  2 19 19 55 59.9960000  0  7  2 19 18 29 28 31 27
  23610849.527     -117958.729 2        -0.11513
  19800690.043   -20178447.712 7 -15548296.036 8
  18975981.606   -19958217.804 7 -15466124.751 7
  19880501.496    -7001279.798 7  -5399444.364 8
  21954121.113   -13830490.170 5 -10090782.524 6
  21243083.902   -14144366.987 6 -10147966.217 6
  22064174.988    -8389846.376 5  -6382091.744 5
 95  2 19 19 56 29.9960000  0  7  2 19 18 29 28 31 27
  23588435.660     -235734.259 2    -91773.213 2
  19791236.285   -20228110.620 7 -15586994.405 8
  18970370.980   -19987710.287 7 -15489105.915 7
  19885236.059    -6976395.097 7  -5380053.726 8
  21949182.230   -13856439.348 6 -10111002.645 6
  21226690.801   -14230510.794 6 -10215091.200 6
  22046466.121    -8482924.839 5  -6454620.408 5
 95  2 19 19 56 59.9960000  0  7  2 19 18 29 28 31 27
  23566060.527     -353330.099 2   -183406.231 3
  19781823.746   -20277575.394 7 -15625538.374 8
  18964848.559   -20016733.354 7 -15511721.303 7
  19890058.113    -6951061.304 7  -5360313.143 8
  21944352.082   -13881842.867 5 -10130797.588 6
  21210373.660   -14316251.683 6 -10281902.228 6
  22028772.004    -8575900.814 5  -6527069.215 5
 95  2 19 19 57 29.9960000  0  7  2 19 18 29 28 31 27
  23543714.184     -470773.508 2   -274920.483 1
  19772447.551   -20326859.837 7 -15663941.840 8
  18959413.957   -20045285.095 7 -15533969.424 7
  19894960.582    -6925292.004 7  -5340233.209 8
  21939617.574   -13906706.141 5 -10150171.559 6
  21194136.809   -14401579.023 6 -10348391.006 6
  22011092.137    -8668791.606 5  -6599451.626 5
 95  2 19 19 57 59.9960000  0  7  2 19 18 29 28 31 27
  23521387.988     -588063.021 3   -366314.818 2
  19763103.707   -20375943.327 7 -15702188.716 8
  18954079.496   -20073329.810 7 -15555822.462 7
  19899950.535    -6899070.865 7  -5319801.176 8
  21934991.230   -13931008.853 5 -10169108.730 6
  21177983.707   -14486464.546 6 -10414535.504 6
  21993435.223    -8761578.869 5  -6671753.373 5
 95  2 19 19 58 29.9960000  0  7  2 19 18 29 28 31 27
  23499100.340     -705206.806 3   -457595.549 1
  19753797.395   -20424848.874 7 -15740296.940 8
  18948839.051   -20100865.824 7 -15577279.105 7
  19905022.855    -6872413.788 7  -5299029.455 8
  21930471.754   -13954754.625 5 -10187611.921 6
  21161912.660   -14570921.809 6 -10480346.311 6
  21975800.582    -8854275.399 5  -6743984.421 5
 95  2 19 19 58 59.9960000  0  7  2 19 18 29 28 31 27
  23476835.770     -822219.684 3   -548774.301 2
  19744519.246   -20473600.537 7 -15778285.251 8
  18943693.074   -20127911.322 7 -15598353.528 7
  19910172.230    -6845350.466 7  -5277941.183 8
  21926057.535   -13977949.579 5 -10205685.901 6
  21145919.809   -14654961.177 6 -10545831.474 6
  21958169.621    -8946904.902 5  -6816163.234 5
 95  2 19 19 59 29.9960000  0  7  2 19 18 29 28 31 27
  23454593.559     -939110.821 3   -639858.184 3
  19735271.785   -20522209.207 7 -15816162.132 8
  18938632.590   -20154494.676 7 -15619067.846 7
  19915398.988    -6817888.469 7  -5256542.265 8
  21921750.059   -14000607.287 5 -10223341.248 6
  21130000.996   -14738606.554 6 -10611009.639 6
  21940549.957    -9039490.120 5  -6888307.533 5
 95  2 19 19 59 59.9960000  0  7  2 19 18 29 28 31 27
  23432372.090    -1055836.230 3   -730812.941 2
  19726054.848   -20570642.412 7 -15853902.291 8
  18933667.184   -20180592.911 7 -15639404.149 7
  19920705.981    -6790003.121 7  -5234813.456 8
  21917542.988   -14022708.480 5 -10240562.936 6
  21114162.566   -14821833.579 6 -10675861.817 6
  21922946.020    -9132001.211 5  -6960394.076 5
 95  2 19 20  0 29.9960000  0  7  2 19 18 29 28 31 27
  23410199.051    -1172396.242 3   -821638.780 3
  19716872.238   -20618904.745 7 -15891509.310 8
  18928791.981   -20206205.885 7 -15659362.328 7
  19926091.020    -6761708.251 7  -5212765.536 8
  21913436.090   -14044262.962 5 -10257358.633 6
  21098406.191   -14904640.950 6 -10740386.995 6
  21905354.395    -9224457.436 5  -7032437.850 5
 95  2 19 20  0 59.9960000  0  7  2 19 18 29 28 31 27
  23388049.496    -1288787.305 3   -912332.984 2
  19707723.582   -20666982.301 7 -15928972.347 8
  18924013.480   -20231317.692 7 -15678929.986 7
  19931554.113    -6732995.259 7  -5190391.802 8
  21909444.965   -14065268.942 5 -10273726.925 6
  21082733.402   -14987017.782 6 -10804576.691 6
  21887773.988    -9316850.440 5  -7104432.380 5
 95  2 19 20  1 29.9960000  0  7  2 19 18 29 28 31 27
  23365940.004    -1404977.921 3  -1002870.992 2
  19698617.504   -20714836.675 7 -15966261.462 8
  18919338.090   -20255886.309 7 -15698074.377 7
  19937108.199    -6703814.236 7  -5167653.379 8
  21905553.895   -14085701.318 5 -10289648.252 6
  21067142.816   -15068930.365 6 -10868404.631 6
  21870211.527    -9409137.250 5  -7176344.161 5
 95  2 19 20  1 59.9960000  0  7  2 19 18 29 28 31 27
  23343863.965    -1520988.443 3  -1093268.645 1
  19689546.566   -20762491.956 7 -16003395.449 8
  18914768.855   -20279912.238 7 -15716795.898 7
  19942745.746    -6674187.127 7  -5144567.351 8
  21901769.527   -14105579.711 5 -10305137.902 6
  21051641.387   -15150387.526 6 -10931877.707 6
  21852667.480    -9501334.242 5  -7248185.970 5
 95  2 19 20  2 29.9960000  0  7  2 19 18 29 28 31 27
  23321817.855    -1636823.501 2  -1183529.606 2
  19680517.254   -20809947.551 7 -16040373.841 8
  18910295.598   -20303401.635 7 -15735099.350 7
  19948468.012    -6644113.683 7  -5121133.531 8
  21898098.051   -14124898.522 6 -10320191.520 6
  21036229.293   -15231388.630 6 -10994995.401 6
  21835141.246    -9593429.526 5  -7319948.496 5
 95  2 19 20  2 59.9950000  0  7  2 19 18 29 28 31 27
  23299804.421    -1752492.136 3  -1273660.902 1
  19671525.890   -20857218.413 7 -16077208.279 8
  18905922.796   -20326391.743 7 -15753013.731 7
  19954275.038    -6613596.011 7  -5097353.574 8
  21894526.124   -14143665.769 5 -10334815.350 6
  21020899.905   -15311942.793 6 -11057764.835 6
  21817639.179    -9685424.607 5  -7391632.955 5
 95  2 19 20  3 29.9950000  0  7  2 19 18 29 28 31 27
  23277830.382    -1867995.415 3  -1363663.325 1
  19662558.312   -20904308.245 7 -16113901.644 8
  18901641.476   -20348890.489 7 -15770545.242 7
  19960166.765    -6582637.157 7  -5073229.821 8
  21891056.694   -14161876.583 5 -10349005.594 6
  21005655.304   -15392052.565 6 -11120187.989 6
  21800145.757    -9777337.364 5  -7463253.258 6
 95  2 19 20  3 59.9950000  0  7  2 19 18 29 28 31 27
  23255878.733    -1983347.078 3  -1453547.651 1
  19653631.554   -20951234.913 7 -16150467.880 8
  18897449.788   -20370913.117 7 -15787705.754 7
  19966135.319    -6551265.460 7  -5048784.385 8
  21887698.093   -14179535.372 6 -10362765.705 6
  20990492.952   -15471714.290 6 -11182262.021 6
  21782669.030    -9869179.045 5  -7534818.158 6
 95  2 19 20  4 29.9950000  0  7  2 19 18 29 28 31 27
  23233959.210    -2098544.401 4  -1543311.726 1
  19644740.210   -20997987.291 7 -16186898.299 8
  18893349.640   -20392463.348 7 -15804498.159 7
  19972186.648    -6519471.130 7  -5024009.626 8
  21884444.390   -14196633.507 6 -10376088.914 6
  20975422.022   -15550911.300 6 -11243973.925 6
  21765207.530    -9960945.607 5  -7606324.532 5
 95  2 19 20  4 59.9950000  0  7  2 19 18 29 28 31 27
  23212063.999    -2213593.657 4  -1632960.397 3
  19635868.163   -21044570.756 7 -16223197.102 8
  18889341.452   -20413525.878 7 -15820910.529 7
  19978319.429    -6487247.713 7  -4998900.503 8
  21881298.233   -14213169.805 6 -10388974.334 6
  20960442.304   -15629633.887 6 -11305316.182 6
  21747754.108   -10052651.374 5  -7677783.523 5
 95  2 19 20  5 29.9950000  0  7  2 19 18 29 28 31 27
  23190199.194    -2328491.793 4  -1722491.321 2
  19627036.804   -21090970.971 7 -16259353.105 8
  18885435.429   -20434061.316 7 -15836912.181 7
  19984533.679    -6454590.375 7  -4973453.266 8
  21878256.827   -14229134.706 5 -10401414.524 6
  20945555.694   -15707874.270 6 -11366282.666 6
  21730319.726   -10144276.771 5  -7749179.909 5
 95  2 19 20  5 59.9950000  0  7  2 19 18 29 28 31 27
  23168360.554    -2443255.912 3  -1811917.829 3
  19618245.913   -21137207.135 7 -16295381.282 8
  18881624.069   -20454092.489 7 -15852520.905 7
  19990825.562    -6421519.725 6  -4947683.970 8
  21875324.608   -14244552.617 5 -10413428.474 6
  20930755.749   -15785652.002 6 -11426888.664 6
  21712896.851   -10235831.941 5  -7820521.566 5
 95  2 19 20  6 29.9950000  0  7  2 19 18 29 28 31 27
  23146551.312    -2557838.849 3  -1901203.120 2
  19609482.187   -21183246.910 7 -16331256.435 8
  18877910.108   -20473598.579 7 -15867720.472 7
  19997200.468    -6388018.846 6  -4921579.425 8
  21872499.968   -14259409.155 6 -10425004.992 6
  20916041.921   -15862968.482 6 -11487135.238 6
  21695489.585   -10327308.030 5  -7891801.611 5
 95  2 19 20  6 59.9950000  0  7  2 19 18 29 28 31 27
  23124790.077    -2672222.003 3  -1990332.753 3
  19600750.108   -21229087.748 7 -16366976.572 9
  18874300.702   -20492570.567 7 -15882503.849 7
  20003655.062    -6354099.841 6  -4895149.072 8
  21869777.273   -14273702.490 6 -10436142.657 6
  20901415.483   -15939835.182 6 -11547031.321 6
  21678099.499   -10418702.082 5  -7963017.712 5
 95  2 19 20  7 29.9950000  0  7  2 19 18 29 28 31 27
  23103066.218    -2786388.093 2  -2079293.220 2
  19592075.601   -21274729.730 7 -16402541.753 9
  18870789.265   -20511014.332 7 -15896875.626 7
  20010186.468    -6319783.992 6  -4868409.492 8
  21867166.069   -14287437.100 6 -10446844.946 6
  20886874.890   -16016258.610 6 -11606581.998 6
  21660722.585   -10510009.202 5  -8034166.107 5
 95  2 19 20  7 59.9950000  0  7  2 19 18 29 28 31 27
  23081387.421    -2900303.277 3  -2168058.231 4
  19583430.366   -21320164.887 7 -16437945.766 8
  18867377.812   -20528941.099 7 -15910844.545 7
  20016793.874    -6285066.238 6  -4841356.732 8
  21864661.327   -14300605.014 6 -10457105.649 6
  20872416.569   -16092229.867 6 -11665780.329 6
  21643361.741   -10601240.016 5  -8105255.028 5
 95  2 19 20  8 29.9950000  0  7  2 19 18 29 28 31 27
  23059753.616    -3013991.929 3  -2256646.709 2
  19574816.804   -21365403.041 7 -16473196.284 8
  18864061.968   -20546364.957 7 -15924421.587 7
  20023475.007    -6249955.175 6  -4813997.515 8
  21862255.991   -14313220.186 5 -10466935.641 6
  20858040.632   -16167754.387 6 -11724630.538 6
  21626014.413   -10692399.557 5  -8176288.398 5
 95  2 19 20  8 59.9950000  0  7  2 19 18 29 28 31 27
  23038154.515    -3127480.585 3  -2345079.337 3
  19566243.351   -21410459.514 7 -16508305.239 8
  18860840.694   -20563290.656 7 -15937610.457 7
  20030232.187    -6214438.862 6  -4786322.511 8
  21859966.062   -14325280.849 5 -10476333.578 6
  20843758.812   -16242810.707 6 -11783115.928 6
  21608685.718   -10783473.873 5  -8247255.367 5
 95  2 19 20  9 29.9950000  0  7  2 19 18 29 28 31 27
  23016591.179    -3240789.850 3  -2433372.240 2
  19557705.405   -21455332.442 7 -16543271.156 8
  18857712.944   -20579740.359 7 -15950428.410 7
  20037067.874    -6178512.417 6  -4758327.923 8
  21857775.890   -14336793.666 6 -10485304.628 6
  20829569.788   -16317391.976 6 -11841231.136 6
  21591367.343   -10874475.420 5  -8318165.645 5
 95  2 19 20  9 59.9950000  0  7  2 19 18 29 28 31 27
  22995063.218    -3353937.238 3  -2521538.967 2
  19549201.046   -21500015.344 7 -16578089.004 8
  18854671.679   -20595716.200 7 -15962877.127 7
  20043988.226    -6142153.385 6  -4729996.249 8
  21855685.851   -14347752.181 6 -10493843.738 6
  20815467.218   -16391485.063 6 -11898965.946 6
  21574064.562   -10965393.412 5  -8389010.798 5
 95  2 19 20 10 29.9950000  0  7  2 19 18 29 28 31 27
  22973553.874    -3466958.325 3  -2609607.270 3
  19540734.921   -21544517.811 7 -16612766.258 9
  18851721.921   -20611210.862 7 -15974950.904 7
  20050988.655    -6105363.042 6  -4701328.488 8
  21853703.265   -14358163.623 6 -10501956.576 6
  20801463.702   -16465083.129 6 -11956315.019 6
  21556782.312   -11056218.969 5  -8459783.918 5
 95  2 19 20 10 59.9950000  0  7  2 19 18 29 28 31 27
  22952073.202    -3579851.422 3  -2697575.868 3
  19532299.327   -21588840.014 7 -16647303.036 8
  18848865.937   -20626214.952 7 -15986642.406 7
  20058070.788    -6068147.288 6  -4672329.238 8
  21851832.647   -14368024.574 5 -10509640.453 6
  20787551.077   -16538192.821 6 -12013283.540 6
  21539518.101   -11146955.159 5  -8530487.415 5
 95  2 19 20 11 29.9950000  0  7  2 19 18 29 28 31 27
  22930613.358    -3692603.580 3  -2785434.587 2
  19523900.546   -21632976.442 7 -16681695.060 8
  18846111.069   -20640705.356 7 -15997933.646 7
  20065231.491    -6030510.707 6  -4643002.076 8
  21850056.812   -14377330.186 5 -10516891.615 6
  20773729.491   -16610814.237 6 -12069871.596 6
  21522265.280   -11237603.278 5  -8601122.279 5
 95  2 19 20 11 59.9950000  0  7  2 19 18 29 28 31 27
  22909191.999    -3805187.247 3  -2873162.042 4
  19515538.921   -21676923.818 7 -16715939.760 8
  18843457.999   -20654642.670 7 -16008793.908 7
  20072476.913    -5992439.946 6  -4613336.599 8
  21848394.554   -14386064.247 5 -10523697.424 6
  20760005.491   -16682935.273 6 -12126069.745 6
  21505038.843   -11328134.098 5  -8671665.766 6
 95  2 19 20 12 29.9950000  0  7  2 19 18 29 28 31 27
  22887803.390    -3917587.754 4  -2960746.772 4
  19507206.608   -21720691.970 7 -16750044.813 8
  18840913.632   -20668024.754 7 -16019221.521 7
  20079803.874    -5953949.636 6  -4583344.187 8
  21846845.460   -14394231.104 6 -10530061.251 6
  20746377.491   -16754563.089 6 -12181883.564 6
  21487829.882   -11418562.359 5  -8742129.315 6
 95  2 19 20 12 59.9950000  0  7  2 19 18 29 28 31 27
  22866449.374    -4029796.066 4  -3048181.748 3
  19498908.968   -21764294.810 7 -16784021.061 8
  18838469.374   -20680868.735 7 -16029229.837 7
  20087202.218    -5915060.853 6  -4553041.280 8
  21845396.062   -14401845.535 6 -10535994.593 6
  20732837.749   -16825715.393 6 -12237326.868 6
  21470637.194   -11508919.720 5  -8812537.632 6
 95  2 19 20 13 29.9950000  0  7  2 19 18 29 28 31 27
  22845140.398    -4141777.580 4  -3135440.007 4
  19490649.851   -21807714.209 7 -16817854.357 9
  18836128.132   -20693160.977 7 -16038808.225 7
  20094683.773    -5875742.796 6  -4522403.877 8
  21844055.280   -14408889.902 5 -10541483.741 6
  20719392.054   -16896363.223 6 -12292377.069 6
  21453456.929   -11599191.161 5  -8882878.980 6
 95  2 19 20 13 59.9950000  0  7  2 19 18 29 28 31 27
  22823873.413    -4253537.472 5  -3222525.566 3
  19482422.608   -21850942.864 7 -16851539.012 9
  18833889.140   -20704926.042 7 -16047975.831 7
  20102248.608    -5835998.663 6  -4491434.469 8
  21842820.187   -14415373.233 5 -10546535.708 6
  20706044.390   -16966508.995 6 -12347036.057 6
  21436293.648   -11689386.276 5  -8953160.862 6
 95  2 19 20 14 29.9950000  0  7  2 19 18 29 28 31 27
  22802646.991    -4365096.961 4  -3309455.001 3
  19474231.476   -21893988.890 7 -16885081.356 8
  18831746.694   -20716189.892 7 -16056752.877 7
  20109888.452    -5795847.625 6  -4460147.992 8
  21841691.601   -14421312.114 5 -10551163.443 6
  20692791.921   -17036155.930 6 -12401306.349 6
  21419135.515   -11779530.048 5  -9023402.735 6
 95  2 19 20 14 59.9950000  0  7  2 19 18 29 28 31 27
  22781458.132    -4476446.884 4  -3396221.113 4
  19466081.155   -21936818.984 7 -16918455.442 8
  18829701.937   -20726940.160 7 -16065129.718 7
  20117609.530    -5755272.349 6  -4428530.946 8
  21840667.577   -14426689.455 5 -10555353.590 6
  20679636.608   -17105284.830 6 -12455172.981 6
  21402001.624   -11869603.524 5  -9093589.810 6
 95  2 19 20 15 29.9950000  0  7  2 19 18 29 28 31 27
  22760305.679    -4587595.821 4  -3482830.642 2
  19457969.163   -21979443.660 7 -16951669.463 9
  18827751.444   -20737184.007 7 -16073111.960 7
  20125410.140    -5714278.962 6  -4396588.087 8
  21839750.116   -14431510.180 5 -10559110.001 6
  20666580.757   -17173898.092 6 -12508637.813 6
  21384874.358   -11959602.142 5  -9163718.591 6
 95  2 19 20 15 59.9950000  0  7  2 19 18 29 28 31 27
  22739191.960    -4698550.771 4  -3569288.991 3
  19449897.522   -22021871.252 7 -16984729.920 9
  18825897.890   -20746917.494 7 -16080696.514 7
  20133284.772    -5672898.402 6  -4364343.544 8
  21838938.546   -14435773.764 5 -10562432.284 6
  20653622.796   -17241992.180 6 -12561698.092 6
  21367760.444   -12049531.038 5  -9233793.018 6
 95  2 19 20 16 29.9950000  0  7  2 19 18 29 28 31 27
  22718115.108    -4809297.639 4  -3655585.174 5
  19441854.077   -22064119.353 7 -17017650.517 9
  18824146.569   -20756130.757 7 -16087875.698 7
  20141233.757    -5631135.620 6  -4331801.158 7
  21838235.843   -14439475.678 5 -10565316.904 6
  20640763.460   -17309565.099 6 -12614352.276 6
  21350660.030   -12139386.998 5  -9303810.609 6
 95  2 19 20 16 59.9950000  0  7  2 19 18 29 28 31 27
  22697084.554    -4919817.962 4  -3741704.854 4
  19433851.569   -22106195.092 7 -17050436.792 9
  18822493.233   -20764812.204 7 -16094640.486 7
  20149251.710    -5588986.714 6  -4298957.905 7
  21837632.429   -14442610.509 5 -10567759.652 6
  20628000.296   -17376628.079 6 -12666609.106 6
  21333576.718   -12229164.786 5  -9373767.272 6
 95  2 19 20 17 29.9950000  0  7  2 19 18 29 28 31 27
  22676094.960    -5030117.231 4  -3827652.267 4
  19425872.218   -22148130.715 7 -17083113.904 9
  18820938.632   -20772974.990 7 -16101001.115 7
  20157345.483    -5546462.255 6  -4265822.004 7
  21837149.765   -14445192.720 5 -10569771.772 6
  20615331.827   -17443195.321 6 -12718479.643 6
  21316506.546   -12318869.374 5  -9443666.913 6
 95  2 19 20 17 59.9950000  0  7  2 19 18 29 28 31 27
  22655151.569    -5140200.816 4  -3913431.601 5
  19417917.632   -22189915.503 7 -17115673.470 8
  18819484.249   -20780626.661 7 -16106963.474 7
  20165508.452    -5503564.702 6  -4232395.380 7
  21836761.124   -14447226.150 5 -10571356.278 6
  20602759.093   -17509277.188 6 -12769971.974 6
  21299453.116   -12408501.231 5  -9513509.869 6
 95  2 19 20 18 29.9950000  0  7  2 19 18 29 28 31 27
  22634241.140    -5250061.718 4  -3999037.449 4
  19409999.226   -22231527.600 7 -17148098.482 8
  18818127.319   -20787766.000 7 -16112526.610 7
  20173748.530    -5460260.063 6  -4198651.555 7
  21836473.218   -14448706.220 5 -10572509.601 6
  20590275.562   -17574875.370 6 -12821087.404 6
  21282409.726   -12498041.503 5  -9583281.464 6
 95  2 19 20 18 59.9950000  0  7  2 19 18 29 28 31 27
  22613376.366    -5359716.556 4  -4084482.708 4
  19402115.843   -22272955.628 7 -17180380.064 8
  18816864.577   -20794397.524 7 -16117694.051 7
  20182068.882    -5416540.634 7  -4164584.506 7
  21836302.054   -14449638.784 5 -10573236.285 6
  20577886.015   -17639980.487 6 -12871818.631 6
  21265392.765   -12587487.860 5  -9652979.879 6
 95  2 19 20 19 29.9950000  0  7  2 19 18 29 28 31 27
  22592544.132    -5469188.234 4  -4169785.256 4
  19394271.296   -22314193.091 7 -17212513.158 8
  18815697.327   -20800528.611 7 -16122471.539 7
  20190467.601    -5372405.014 7  -4130193.154 7
  21836221.265   -14450028.950 5
  20565593.374   -17704576.419 6 -12922153.088 6
  21248384.085   -12676845.619 5  -9722609.254 6
 95  2 19 20 19 59.9950000  0  7  2 19 18 29 28 31 27
  22571745.147    -5578472.555 4  -4254941.803 5
  19386462.960   -22355221.877 7 -17244483.647 8
  18814629.382   -20806142.467 7 -16126845.990 7
  20198945.780    -5327844.123 6  -4095470.425 7
  21836252.773   -14449866.014 5
  20553402.913   -17768644.815 6 -12972076.493 6
  21231399.147   -12766114.265 6  -9792169.194 6
 95  2 19 20 20 29.9950000  0  7  2 19 18 29 28 31 27
  22550987.780    -5687561.539 4  -4339946.132 4
  19378692.882   -22396050.017 7 -17276297.786 8
  18813664.960   -20811213.334 7 -16130797.329 7
  20207508.585    -5282843.704 7  -4060405.209 7
  21836393.366   -14449140.805 5 -10572848.367 6
  20541316.343   -17832162.564 6 -13021570.812 6
  21214428.812   -12855290.654 5  -9861657.243 6
 95  2 19 20 20 59.9950000  0  7  2 19 18 29 28 31 27
  22530260.710    -5796472.021 3  -4424811.386 4
  19370957.062   -22436704.554 7 -17307976.650 8
  18812801.343   -20815753.186 7 -16134334.891 7
  20216151.507    -5237424.556 6  -4025013.710 7
  21836639.015   -14447863.755 5 -10571853.305 6
  20529331.226   -17895132.903 6 -13070638.578 6
  21197472.062   -12944397.506 6  -9931091.105 6
 95  2 19 20 21 29.9950000  0  7  2 19 18 29 28 31 27
  22509569.562    -5905203.150 3  -4509536.880 4
  19363251.515   -22477190.310 7 -17339523.993 8
  18812034.663   -20819769.536 7 -16137464.528 7
  20224870.944    -5191605.725 7  -3989310.770 7
  21836990.124   -14446035.767 5 -10570428.918 6
  20517452.694   -17957565.696 6 -13119287.500 7
  21180528.046   -13033437.941 6 -10000473.231 6
 95  2 19 20 21 59.9950000  0  7  2 19 18 29 28 31 27
  22488916.398    -6013747.190 4  -4594116.580 4
  19355579.007   -22517515.887 7 -17370946.533 8
  18811368.358   -20823277.273 7 -16140197.837 7
  20233663.468    -5145407.153 7  -3953311.933 7
  21837436.351   -14443662.252 5 -10568579.468 6
  20505674.015   -18019465.298 6 -13167520.943 6
  21163600.773   -13122409.636 6 -10069801.782 6
 95  2 19 20 22 29.9950000  0  7  2 19 18 29 28 31 27
  22468297.187    -6122092.404 4  -4678541.368 4
  19347936.569   -22557671.604 7 -17402236.709 8
  18810801.233   -20826266.422 7 -16142527.068 7
  20242529.702    -5098818.887 7  -3917009.433 7
  21837990.827   -14440736.360 5 -10566299.579 6
  20493996.288   -18080816.555 6 -13215327.107 7
  21146684.218   -13211294.212 5 -10139062.448 6
 95  2 19 20 22 59.9950000  0  7  2 19 18 29 28 31 27
  22447722.835    -6230223.683 5  -4762799.455 3
  19340332.882   -22597626.207 7 -17433370.175 8
  18810331.577   -20828738.650 7 -16144453.494 7
  20251468.382    -5051840.037 6  -3880402.575 7
  21838658.233   -14437244.440 5 -10563578.603 6
  20482431.499   -18141607.450 6 -13262696.617 7
  21129791.358   -13300072.072 6 -10208239.965 6
 95  2 19 20 23 29.9950000  0  7  2 19 18 29 28 31 27
  22427187.069    -6338136.031 5  -4846886.961 4
  19332768.538   -22637380.563 7 -17464347.596 8
  18809956.522   -20830696.563 7 -16145979.152 7
  20260478.812    -5004491.797 6  -3843507.890 7
  21839427.444   -14433204.935 5 -10560430.965 6
  20470966.202   -18201852.336 6 -13309640.678 7
  21112914.046   -13388761.162 6 -10277348.312 6
 95  2 19 20 23 59.9950000  0  7  2 19 18 29 28 31 27
  22406695.702    -6445812.170 5  -4930790.402 5
  19325245.827   -22676919.034 7 -17495156.804 8
  18809685.398   -20832113.202 7 -16147083.047 7
  20269563.507    -4956746.256 6  -3806303.622 6
  21840303.601   -14428607.724 5 -10556848.715 6
  20459605.835   -18261543.792 6 -13356153.496 7
  21096052.187   -13477356.978 6 -10346383.966 6
 95  2 19 20 24 29.9950000  0  7  2 19 18 29 28 31 27
  22386250.749    -6553261.394 4  -5014517.020 5
  19317761.593   -22716246.746 7 -17525801.765 8
  18809520.327   -20832988.635 7 -16147765.212 7
  20278724.968    -4908612.937 6  -3768797.185 6
  21841279.296   -14423464.691 5 -10552841.164 6
  20448350.312   -18320701.541 6 -13402250.430 7
  21079206.405   -13565878.784 6 -10415361.960 6
 95  2 19 20 24 59.9950000  0  7  2 19 18 29 28 31 27
  22365844.702    -6660493.508 5  -5098074.455 4
  19310315.054   -22755370.614 7 -17556287.897 8
  18809453.757   -20833340.670 7
  20287955.187    -4860108.423 6  -3731001.501 6
  21842365.569   -14417781.644 5 -10548412.823 6
  20437193.593   -18379334.895 6 -13447938.753 7
  21062375.585   -13654340.643 6 -10484293.237 6
 95  2 19 20 25 29.9950000  0  7  2 19 18 29 28 31 27
  22345481.022    -6767509.055 5  -5181463.154 4
  19302908.046   -22794296.484 7 -17586619.742 9
  18809491.366   -20833161.781 7
  20297256.655    -4811222.884 6  -3692908.925 7
  21843548.155   -14411555.184 5 -10543561.056 6
  20426134.030   -18437437.351 6 -13493213.386 7
  21045552.804   -13742736.216 6 -10553172.871 6
 95  2 19 20 25 59.9950000  0  7  2 19 18 29 28 31 27
  22325152.327    -6874331.944 5  -5264701.733 4
  19295534.944   -22833045.926 7 -17616814.114 8
  18809617.515   -20832470.227 7 -16147361.310 7
  20306631.983    -4761958.283 6  -3654520.977 6
  21844838.944   -14404786.195 5 -10538286.514 6
  20415181.077   -18495002.523 6 -13538069.355 7
  21028747.335   -13831052.560 6 -10621990.756 6
 95  2 19 20 26 29.9950000  0  7  2 19 18 29 28 31 27
  22304861.726    -6980960.917 5  -5347789.196 4
  19288193.085   -22871630.675 7 -17646880.152 8
  18809844.843   -20831276.702 7 -16146431.308 7
  20316073.897    -4712330.906 6  -3615850.348 6
  21846226.796   -14397475.758 5 -10532590.088 6
  20404331.515   -18552015.812 6 -13582495.282 7
  21011956.460   -13919291.043 6 -10690747.972 6
 95  2 19 20 26 59.9950000  0  8  2 16 19 18 29 28 31 27
  22284605.741    -7087405.835 5  -5430733.271 3
  23268763.069      -82466.503 3
  19280879.257   -22910064.487 7 -17676828.582 8
  18810165.062   -20829588.999 7 -16145116.235 7
  20325587.702    -4662349.180 6  -3576903.593 7
  21847719.358   -14389634.133 5 -10526479.761 6
  20393587.577   -18608482.741 6 -13626495.484 7
  20995177.288   -14007460.372 6 -10759451.293 6
 95  2 19 20 27 29.9950000  0  8  2 16 19 18 29 28 31 27
  22264393.366    -7193626.580 5  -5513502.644 5
  23253152.335     -164462.915 3        -0.04513
  19273596.116   -22948332.611 7 -17706647.891 8
  18810589.655   -20827379.915 7 -16143394.891 7
  20335169.257    -4611991.148 6  -3537663.623 7
  21849317.327   -14381248.577 5 -10519945.589 6
  20382948.265   -18664384.490 6 -13670055.264 7
  20978415.530   -14095544.503 6 -10828088.223 6
 95  2 19 20 27 59.9950000  0  8  2 16 19 18 29 28 31 27
  22244226.819    -7299603.357 5  -5596081.928 5
  23237646.718     -245981.576 3    -63521.067 2
  19266348.390   -22986425.674 7 -17736330.798 8
  18811110.632   -20824638.257 7 -16141258.553 7
  20344823.921    -4561255.874 6  -3498129.700 7
  21851015.226   -14372317.311 5 -10512986.200 6
  20372421.710   -18719717.938 6 -13713172.210 7
  20961669.218   -14183551.424 6 -10896664.999 6
 95  2 19 20 28 29.9950000  0  8  2 16 19 18 29 28 31 27
  22224109.819    -7405313.956 5  -5678453.789 5
  23222215.460     -327029.746 3   -126675.449 2
  19259134.124   -23024320.724 7 -17765859.411 8
  18811734.507   -20821360.045 7 -16138704.127 7
  20354550.398    -4510142.566 6  -3458301.206 7
  21852818.921   -14362841.260 5 -10505602.290 6
  20361997.968   -18774493.865 6 -13755854.735 6
  20944936.577   -14271482.211 6 -10965182.447 6
 95  2 19 20 28 59.9950000  0  8  2 16 19 18 29 28 31 27
  22204042.257    -7510761.109 5  -5760620.342 5
  23206883.351     -407625.555 4   -189477.362 1
  19251964.694   -23062009.479 7 -17795227.270 8
  18812462.241   -20817536.886 7 -16135725.066 7
  20364349.499    -4458644.111 6  -3418172.605 6
  21854726.616   -14352820.785 5 -10497794.173 6
  20351677.804   -18828709.983 6 -13798101.042 6
  20928224.515   -14359316.824 6 -11033624.955 6
 95  2 19 20 29 29.9950000  0  8  2 16 19 18 29 28 31 27
  22184026.577    -7615957.602 5  -5842591.591 5
  23191631.140     -487775.925 3   -251932.130 2
  19244829.726   -23099499.068 7 -17824439.939 8
  18813290.429   -20813181.624 7 -16132331.382 7
  20374223.929    -4406758.683 6  -3377742.469 6
  21856734.577   -14342259.624 5 -10489564.743 6
  20341468.405   -18882367.277 6 -13839911.901 7
  20911528.530   -14447049.804 6 -11101988.284 6
 95  2 19 20 29 59.9950000  0  8  2 16 19 18 29 28 31 27
  22164049.976    -7720927.141 5  -5924385.970 5
  23176466.522     -567474.508 3   -314034.903 1
  19237736.124   -23136785.266 7 -17853494.115 8
  18814219.312   -20808296.734 7 -16128524.999 7
  20384172.663    -4354481.895 6  -3337007.355 7
  21858849.890   -14331151.876 5 -10480909.418 6
  20331363.210   -18935465.753 6 -13881287.304 6
  20894854.272   -14534664.516 6 -11170259.440 6
 95  2 19 20 30 29.9950000  0  8  2 16 19 18 29 28 31 27
  22144113.921    -7825684.397 5  -6006014.943 5
  23161388.233     -646718.557 3   -375783.534 2
  19230677.179   -23173876.038 7 -17882396.022 8
  18815249.382   -20802889.375 7 -16124311.494 7
  20394193.765    -4301812.715 6  -3295966.496 6
  21861069.476   -14319495.671 5 -10471826.723 6
  20321365.069   -18987995.056 6 -13922219.206 7
  20878206.030   -14622150.947 6 -11238430.640 6
 95  2 19 20 30 59.9950000  0  8  2 16 19 18 29 28 31 27
  22124218.515    -7930250.547 5  -6087495.009 5
  23146393.468     -725493.361 3   -437166.479 1
  19223651.882   -23210786.667 7 -17911157.541 8
  18816376.929   -20796963.482 7 -16119693.935 7
  20404291.687    -4248749.128 6  -3254618.307 6
  21863388.421   -14307292.254 5 -10462317.622 6
  20311483.757   -19039942.747 6 -13962697.905 6
  20861580.358   -14709524.013 6 -11306513.497 6
 95  2 19 20 31 29.9950000  0  8  2 16 19 18 29 28 31 27
  22104355.647    -8034630.661 5  -6168830.100 5
  23131496.140     -803803.917 3   -498187.751 1
  19216659.296   -23247530.877 7 -17939789.397 8
  18817597.312   -20790551.503 7 -16114697.613 7
  20414463.148    -4195302.821 6  -3212971.895 6
  21865812.929   -14294552.891 5 -10452390.876 6
  20301705.046   -19091324.333 6 -14002735.486 7
  20844969.507   -14796810.791 6 -11374529.137 6
 95  2 19 20 31 59.9950000  0  8  2 16 19 18 29 28 31 27
  22084532.983    -8138794.249 5  -6249996.493 5
  23116681.515     -881640.503 3   -558839.643 1
  19209704.351   -23284085.963 7 -17968273.884 8
  18818913.437   -20783634.028 7 -16109307.396 7
  20424706.679    -4141472.497 6  -3171026.236 7
  21868337.483   -14281268.664 5 -10442039.581 6
  20292038.765   -19142118.493 6 -14042315.328 6
  20828376.491   -14884015.610 6 -11442480.891 6
 95  2 19 20 32 29.9950000  0  8  2 16 19 18 29 28 31 27
  22064756.624    -8242721.466 5  -6330978.695 5
  23101956.413     -959007.642 3   -619125.701 1
  19202785.335   -23320448.149 7 -17996608.052 8
  18820327.929   -20776202.838 7 -16103516.884 8
  20435020.749    -4087269.835 6  -3128790.457 7
  21870969.780   -14267443.366 5 -10431266.663 6
  20282489.124   -19192309.985 6 -14081425.564 7
  20811792.116   -14971152.387 6 -11510379.636 6
 95  2 19 20 32 59.9950000  0  8  2 16 19 18 29 28 31 27
  22045024.069    -8346409.913 5  -6411774.842 5
  23087326.460    -1035907.664 3   -679047.790 2
  19195905.390   -23356607.182 7 -18024783.924 8
  18821837.140   -20768266.395 7 -16097332.663 7
  20445406.069    -4032702.732 6  -3086270.706 7
  21873704.218   -14253085.151 5 -10420078.477 6
  20273047.437   -19241917.295 6 -14120080.595 7
  20795223.772   -15058226.518 6 -11578229.566 6
 95  2 19 20 33 29.9950000  0  8  2 16 19 18 29 28 31 27
  22025344.116    -8449830.399 5  -6492362.166 5
  23072784.202    -1112332.007 3   -738599.227 1
  19189066.562   -23392537.685 7 -18052781.715 8
  18823447.202   -20759805.220 7 -16090739.567 8
  20455859.812    -3977768.507 6  -3043464.882 7
  21876540.226   -14238181.512 5 -10408465.284 6
  20263720.280   -19290935.517 6 -14158276.598 7
  20778670.999   -15145211.138 6 -11646009.757 6
 95  2 19 20 33 59.9950000  0  8  2 16 19 18 29 28 31 27
  22005711.101    -8552999.237 5  -6572753.415 5
  23058334.515    -1188275.677 3   -797776.137 2
  19182271.726   -23428242.119 7 -18080603.347 8
  18825159.897   -20750807.632 7 -16083728.478 7
  20466381.687    -3922466.750 6  -3000372.666 7
  21879478.288   -14222734.693 5 -10396428.835 6
  20254502.726   -19339368.852 6 -14196016.845 7
  20762139.194   -15232098.162 6 -11713713.897 6
 95  2 19 20 34 29.9950000  0  8  2 16 19 18 29 28 31 27
  21986123.038    -8655948.235 5  -6652973.341 5
  23043967.249    -1263747.154 3   -856585.080 1
  19175517.890   -23463746.711 7 -18108269.267 8
  18826969.976   -20741295.895 7 -16076316.760 8
  20476975.023    -3866800.941 6  -2956996.785 7
  21882518.085   -14206758.037 5 -10383979.518 5
  20245390.819   -19387250.289 6 -14233327.044 7
  20745618.640   -15318891.624 6 -11781345.123 6
 95  2 19 20 34 59.9950000  0  8  2 16 19 18 29 28 31 27
  21966573.351    -8758673.634 5  -6733019.046 5
  23029696.538    -1338739.219 3   -915020.465 2
  19168797.226   -23499056.053 7 -18135783.032 8
  18828876.023   -20731276.144 7 -16068509.182 8
  20487639.585    -3810759.565 6  -2913328.243 7
  21885659.468   -14190246.680 5 -10371113.554 6
  20236384.179   -19434586.565 6 -14270212.445 7
  20729125.476   -15405578.870 6 -11848893.589 6
 95  2 19 20 35 29.9950000  0  8  2 16 19 18 29 28 31 27
  21947069.765    -8861174.896 5  -6812890.077 5
  23015517.366    -1413275.148 3   -973100.411 1
  19162109.226   -23534202.875 7 -18163170.163 8
  18830879.179   -20720744.056 7 -16060302.387 8
  20498372.882    -3754359.736 6  -2869380.396 7
  21888903.272   -14173214.574 5 -10357841.823 5
  20227481.421   -19481380.392 6 -14306675.161 7
  20712644.851   -15492179.452 6 -11916374.523 6
 95  2 19 20 35 59.9940000  0  8  2 16 19 18 29 28 31 27
  21927614.580    -8963415.795 5  -6892558.243 5
  23001425.658    -1487318.966 3  -1030796.924 1
  19155456.041   -23569158.478 7 -18190408.293 8
  18832990.033   -20709661.228 7 -16051666.438 8
  20509177.939    -3697567.262 6  -2825126.573 7
  21892250.252   -14155633.702 5 -10344142.469 5
  20218687.447   -19527586.317 6 -14342679.776 7
  20696186.330   -15578670.904 6 -11983770.421 6
 95  2 19 20 36 29.9940000  0  8  2 16 19 18 29 28 31 27
  21908207.900    -9065393.706 5  -6972021.489 5
  22987424.705    -1560888.011 3  -1088123.453 2
  19148840.275   -23603933.003 7 -18217505.329 8
  18835199.244   -20698039.687 7 -16042610.724 7
  20520055.908    -3640414.604 6  -2780592.095 7
  21895695.510   -14137522.016 5 -10330029.500 5
  20210007.291   -19573206.948 6 -14378228.309 7
  20679740.611   -15665090.294 6 -12051110.167 6
 95  2 19 20 36 59.9940000  0  8  2 16 19 18 29 28 31 27
  21888854.447    -9167090.329 5  -7051265.558 5
  22973521.666    -1633957.401 3  -1145060.661 2
  19142260.104   -23638503.994 7 -18244443.761 8
  18837519.854   -20685863.392 7 -16033122.728 8
  20530997.674    -3582911.551 6  -2735784.587 6
  21899242.729   -14118869.291 5 -10315494.937 5
  20201444.143   -19618207.549 6 -14413293.707 7
  20663312.580   -15751421.446 6 -12118381.151 6
 95  2 19 20 37 29.9940000  0  8  2 16 19 18 29 28 31 27
  21869550.963    -9268533.768 5  -7130312.329 5
  22959708.971    -1706530.492 3  -1201611.089 2
  19135724.338   -23672867.727 7 -18271220.688 8
  18839940.385   -20673132.743 7 -16023202.764 8
  20542006.033    -3525068.163 6  -2690711.883 7
  21902893.627   -14099685.021 5 -10300546.205 5
  20192994.736   -19662595.762 6 -14447881.922 7
  20646899.150   -15837671.000 6 -12185588.560 6
 95  2 19 20 37 59.9940000  0  8  2 16 19 18 29 28 31 27
  21850295.150    -9369729.128 5  -7209165.793 5
  22945999.854    -1778591.846 3  -1257762.793 1
  19129225.893   -23707002.171 7 -18297818.960 8
  18842468.799   -20659848.781 7 -16012851.655 8
  20553080.104    -3466870.275 6  -2645362.946 6
  21906650.666   -14079957.756 5 -10285174.359 5
  20184668.408   -19706358.589 6 -14481982.819 7
  20630507.627   -15923807.106 6 -12252707.561 6
 95  2 19 20 38 29.9940000  0  8  2 16 19 18 29 28 31 27
  21831077.314    -9470699.249 5  -7287843.740 5
  22932376.197    -1850168.864 3  -1313537.096 2
  19122771.127   -23740927.874 7 -18324254.568 8
  18845096.346   -20646039.532 7 -16002091.224 8
  20564217.900    -3408340.087 6  -2599755.078 7
  21910505.252   -14059703.925 5 -10269392.194 5
  20176453.564   -19749519.589 6 -14515614.768 7
  20614139.869   -16009827.792 6 -12319736.616 6
 95  2 19 20 38 59.9940000  0  8  2 16 19 18 29 28 31 27
  21811905.127    -9571456.431 5  -7366355.761 5
  22918847.565    -1921264.268 3  -1368936.124 2
  19116354.682   -23774649.936 7 -18350531.505 8
  18847825.408   -20631699.905 7 -15990917.514 8
  20575422.697    -3349453.254 6  -2553869.310 7
  21914458.252   -14038921.487 5 -10253198.128 5
  20168352.635   -19792081.985 6 -14548780.275 7
  20597796.385   -16095713.601 6 -12386660.585 6
 95  2 19 20 39 29.9940000  0  8  2 16 19 18 29 28 31 27
  21792777.635    -9671978.690 5  -7444684.731 5
  22905414.697    -1991877.573 3  -1423959.443 1
  19109975.479   -23808162.892 7 -18376645.490 8
  18850655.064   -20616831.631 7 -15979331.870 8
  20586700.799    -3290191.246 6  -2507691.196 6
  21918513.439   -14017604.065 5 -10236587.210 5
  20160373.650   -19834031.777 6 -14581468.419 7
  20581479.932   -16181458.234 6 -12453474.534 6
 95  2 19 20 39 59.9940000  0  8  2 16 19 18 29 28 31 27
  21773694.947    -9772247.220 5  -7522815.987 5
  22892069.455    -2062005.784 3  -1478604.817 2
  19103638.721   -23841467.568 7 -18402597.176 8
  18853585.080   -20601439.075 7 -15967337.693 8
  20598047.736    -3230557.890 6  -2461223.714 6
  21922669.783   -13995752.935 5 -10219560.377 5
  20152510.463   -19875351.170 6 -14613665.349 7
  20565187.424   -16267074.802 6 -12520188.699 6
 95  2 19 20 40 29.9940000  0  8  2 16 19 18 29 28 31 27
  21754665.189    -9872263.436 5  -7600750.638 5
  22878816.275    -2131631.717 3  -1532858.787 2
  19097337.908   -23874572.123 7 -18428392.937 9
  18856610.354   -20585532.134 7 -15954942.696 8
  20609466.807    -3170559.481 6  -2414471.782 6
  21926930.682   -13973376.615 5 -10202124.313 5
  20144768.713   -19916040.163 6 -14645371.053 7
  20548914.744   -16352590.561 6 -12586824.308 6
 95  2 19 20 40 59.9940000  0  8  2 16 19 18 29 28 31 27
  21735679.041    -9972031.972 5  -7678492.304 5
  22865662.244    -2200748.789 3  -1586716.227 2
  19091075.236   -23907490.515 7 -18454043.626 8
  18859731.846   -20569125.640 7 -15942158.434 8
  20620949.377    -3110208.857 6  -2367445.384 6
  21931287.244   -13950491.247 5 -10184291.599 5
  20137140.244   -19956114.626 6 -14676597.898 7
  20532652.440   -16438036.973 6 -12653405.885 6
 95  2 19 20 41 29.9940000  0  8  2 16 19 18 29 28 31 27
  21716747.533   -10071527.057 5  -7756020.887 5
  22852610.143    -2269341.183 3  -1640164.840 2
  19084849.791   -23940204.872 7 -18479535.340 8
  18862952.400   -20552202.055 7 -15928971.240 8
  20632503.752    -3049501.095 6  -2320140.700 6
  21935743.846   -13927076.049 5 -10166046.023 5
  20129637.197   -19995561.836 6 -14707335.980 7
  20516409.455   -16523400.831 6 -12719923.121 7
 95  2 19 20 41 59.9940000  0  8  2 16 19 18 29 28 31 27
  21697862.775   -10170748.899 5  -7833336.556 5
  22839660.080    -2337405.517 3  -1693201.964 2
  19078661.002   -23972717.872 7 -18504870.142 8
  18866275.963   -20534746.462 7 -15915369.506 8
  20644121.924    -2988436.636 6  -2272558.063 6
  21940297.354   -13903130.705 5 -10147387.354 5
  20122243.197   -20034407.566 6 -14737605.377 7
  20500184.838   -16608668.093 6 -12786365.090 7
 95  2 19 20 42 29.9940000  0  8  2 16 19 18 29 28 31 27
  21679030.768   -10269707.070 5  -7910446.758 5
  22826802.799    -2404955.977 3  -1745838.657 1
  19072509.940   -24005045.668 7 -18530060.628 8
  18869695.033   -20516773.820 7 -15901364.868 8
  20655808.807    -2927030.581 6  -2224709.257 6
  21944952.619   -13878666.587 5 -10128324.444 5
  20114960.096   -20072680.749 6 -14767428.635 7
  20483980.135   -16693825.263 6 -12852721.280 7
 95  2 19 20 42 59.9940000  0  8  2 16 19 18 29 28 31 27
  21660250.135   -10368409.988 5  -7987358.051 5
  22814040.736    -2472027.297 3  -1798102.005 2
  19066393.775   -24037192.030 7 -18555109.744 8
  18873210.190   -20498292.213 7 -15886963.631 8
  20667554.611    -2865298.869 6  -2176606.691 6
  21949705.268   -13853691.659 5 -10108863.508 5
  20107780.861   -20110395.482 6 -14796816.738 7
  20467795.549   -16778865.059 6 -12918986.009 7
 95  2 19 20 43 29.9940000  0  8  2 16 19 18 29 28 31 27
  21641517.752   -10466851.819 5  -8064065.907 5
  22801368.838    -2538611.019 3  -1849985.435 1
  19060313.322   -24069136.141 7 -18580001.258 8
  18876827.424   -20479289.653 7 -15872156.456 8
  20679364.994    -2803235.159 6  -2128245.431 6
  21954561.416   -13828197.432 5 -10088997.919 5
  20100716.158   -20147538.984 6 -14825759.723 7
  20451642.682   -16863756.365 6 -12985135.033 7
 95  2 19 20 43 59.9940000  0  8  2 16 19 18 29 28 31 27
  21622832.158   -10565052.337 5  -8140585.732 5
  22788790.072    -2604715.894 3  -1901495.671 1
  19054271.791   -24100884.373 7 -18604740.138 8
  18880539.049   -20459795.929 7 -15856966.558 8
  20691235.400    -2740855.488 6  -2079637.963 6
  21959504.768   -13802206.948 5 -10068745.623 5
  20093753.439   -20184121.422 6 -14854265.519 7
  20435514.080   -16948510.173 6 -13051176.915 7
 95  2 19 20 44 29.9940000  0  8  2 16 19 18 29 28 31 27
  21604193.252   -10662987.027 5  -8216898.411 5
  22776314.158    -2670302.881 3  -1952602.371 2
  19048275.416   -24132398.956 7 -18629296.950 8
  18884344.580   -20439790.342 7 -15841377.807 8
  20703172.213    -2678131.689 6  -2030762.355 6
  21964545.322   -13775694.903 5 -10048086.918 5
  20086911.479   -20220081.584 6 -14882286.424 7
  20419412.775   -17033120.314 6 -13117106.847 7
 95  2 19 20 44 59.9940000  0  8  2 16 19 18 29 28 31 27
  21585609.088   -10760664.481 5  -8293010.647 5
  22763925.940    -2735365.272 3  -2003300.274 2
  19042323.721   -24163676.453 7 -18653669.019 8
  18888249.486   -20419268.138 7 -15825386.506 8
  20715172.908    -2615064.952 6  -1981619.517 6
  21969691.479   -13748669.529 5 -10027028.220 4
  20080185.643   -20255416.420 6 -14909820.063 7
  20403332.510   -17117618.235 6 -13182949.342 7
 95  2 19 20 45 29.9940000  0  8  2 16 19 18 29 28 31 27
  21567064.971   -10858085.660 5  -8368923.175 5
  22751648.885    -2799897.484 3  -2053585.076 1
  19036417.283   -24194716.657 7 -18677856.177 8
  18892253.822   -20398228.226 7 -15808991.789 8
  20727241.611    -2551645.467 6  -1932201.805 6
  21974930.010   -13721136.423 5 -10005573.899 5
  20073582.697   -20290127.009 6 -14936867.276 7
  20387273.463   -17202019.030 6 -13248716.153 7
 95  2 19 20 45 59.9940000  0  8  2 16 19 18 29 28 31 27
  21548577.916   -10955250.709 5  -8444636.121 5
  22739470.182    -2863919.905 3  -2103472.619 3
  19030550.104   -24225541.789 7 -18701875.761 8
  18896356.775   -20376670.639 7 -15792193.692 8
  20739378.494    -2487870.201 6  -1882506.867 6
  21980271.533   -13693100.106 5  -9983727.452 5
  20067095.244   -20324207.213 6 -14963423.277 7
  20371224.283   -17286351.644 6 -13314429.841 7
 95  2 19 20 46 29.9940000  0  8  2 16 19 18 29 28 31 27
  21530139.072   -11052155.159 5  -8520145.997 5
  22727376.932    -2927436.211 3  -2152965.860 2
  19024724.432   -24256152.215 7 -18725728.037 8
  18900559.041   -20354589.076 7 -15774987.298 8
  20751582.971    -2423741.532 6  -1832536.548 6
  21985697.471   -13664558.513 5  -9961487.301 5
  20060733.213   -20357654.686 6 -14989486.236 7
  20355187.346   -17370624.814 6 -13380097.206 7
 95  2 19 20 46 59.9940000  0  8  2 16 19 18 29 28 31 27
  21511747.119   -11148799.641 5  -8595453.290 5
  22715386.971    -2990464.653 3  -2202078.885 2
  19018941.354   -24286558.935 7 -18749421.583 8
  18904861.025   -20331983.353 7 -15757372.469 8
  20763849.650    -2359268.155 6  -1782297.621 6
  21991221.924   -13635511.709 5  -9938853.472 5
  20054479.182   -20390495.652 6 -15015076.598 7
  20339166.033   -17454822.245 6 -13445705.564 7
 95  2 19 20 47 29.9940000  0  8  2 16 19 18 29 28 31 27
  21493405.158   -11245184.634 5  -8670558.392 6
  22703483.986    -3053023.400 3  -2250825.942 1
  19013192.049   -24316767.161 7 -18772960.461 8
  18909260.643   -20308858.657 7 -15739353.239 8
  20776182.682    -2294461.379 6  -1731798.914 6
  21996849.041   -13605961.947 5  -9915827.734 5
  20048348.674   -20422728.715 6 -15040193.261 7
  20323159.971   -17538933.392 6 -13511246.669 7
 95  2 19 20 47 59.9940000  0  8  2 16 19 18 29 28 31 27
  21475113.127   -11341304.162 5  -8745456.626 6
  22691666.689    -3115091.005 3  -2299190.239 2
  19007479.033   -24346776.079 7 -18796344.025 8
  18913760.283   -20285210.650 7 -15720926.259 8
  20788574.455    -2229336.053 6  -1681051.992 6
  22002569.885   -13575900.456 5  -9892403.241 5
  20042334.830   -20454331.100 6 -15064818.487 7
  20307172.580   -17622940.633 6 -13576706.820 7
 95  2 19 20 48 29.9940000  0  8  2 16 19 18 29 28 31 27
  21456867.158   -11437187.976 5  -8820171.189 6
  22679956.033    -3176660.818 2  -2347166.671 2
  19001808.166   -24376584.608 7 -18819571.444 8
  18918354.541   -20261057.655 7 -15702105.764 8
  20801023.643    -2163923.438 6  -1630081.198 6
  22008384.666   -13545342.409 5  -9868591.825 5
  20036438.080   -20485321.161 6 -15088966.574 7
  20291207.908   -17706845.487 6 -13642087.197 7
 95  2 19 20 48 59.9940000  0  8  2 16 19 18 29 28 31 27
  21438664.658   -11532836.951 5  -8894702.759 5
  22668338.127    -3237719.461 2  -2394744.784 2
  18996173.463   -24406199.021 7 -18842647.606 8
  18923051.557   -20236389.416 7 -15682883.793 8
  20813524.197    -2098231.441 6  -1578892.700 6
  22014294.252   -13514289.760 5  -9844395.002 5
  20030655.408   -20515697.642 6 -15112636.546 7
  20275262.299   -17790636.129 6 -13707378.590 7
 95  2 19 20 49 29.9940000  0  8  2 16 19 18 29 28 31 27
  21420512.525   -11628248.737 5  -8969049.513 6
  22656813.377    -3298250.106 2  -2441911.478 2
  18990579.307   -24435608.391 7
  18927842.377   -20211213.394 7 -15663266.139 8
  20826079.346    -2032251.684 6  -1527479.976 6
  22020296.674   -13482743.311 5  -9819813.409 5
  20024994.049   -20545436.964 6
  20259341.025   -17874309.847 6 -13772578.852 7
 95  2 19 20 49 59.9940000  0  8  2 16 19 18 29 28 31 27
  21402400.322   -11723411.655 5  -9043202.326 6
  22645392.869    -3358230.491 2  -2488649.408 1
  18985020.736   -24464811.211 7 -18888319.441 8
  18932730.846   -20185528.366 7 -15643251.850 8
  20838692.143    -1965963.798 6  -1475827.150 6
  22026393.643   -13450694.681 5  -9794840.531 5
  20019455.705   -20574540.178 6
  20243443.775   -17957845.672 6 -13837671.665 7
 95  2 19 20 50 29.9940000  0  8  2 16 19 18 29 28 31 27
  21384339.658   -11818327.403 5  -9117162.561 6
  22634079.885    -3417687.032 2  -2534979.118 2
  18979500.682   -24493814.360 7 -18910919.296 8
  18937713.877   -20159339.443 7 -15622844.923 8
  20851367.416    -1899362.716 6  -1423930.285 6
  22032586.104   -13418159.072 5  -9769488.167 5
  20014034.705   -20603045.963 6        -0.12717
  20227570.791   -18041249.136 6 -13902661.350 7
 95  2 19 20 50 59.9940000  0  8  2 16 19 18 29 28 31 27
  21366330.447   -11912962.814 5  -9190904.361 6
  22622881.619    -3476620.898 2  -2580901.594 3
  18974022.572   -24522610.724 7 -18933358.023 8
  18942791.635   -20132648.671 7 -15602046.944 8
  20864107.869    -1832420.988 6  -1371767.993 6
  22038870.299   -13385126.177 5  -9743748.307 5
  20008723.674   -20630943.159 6    -21738.179 7
  20211729.729   -18124504.038 6 -13967535.257 7
 95  2 19 20 51 29.9940000  0  8  2 16 19 18 29 28 31 27
  21348373.002   -12007333.798 5  -9264440.089 6
  22611748.705    -3535059.487 3  -2626438.119 3
  18968579.885   -24551215.257 7 -18955647.270 8
  18947961.322   -20105486.144 7 -15580881.368 8
  20876910.135    -1765141.873 6  -1319342.794 6
  22045248.635   -13351610.197 5  -9717632.022 5
  20003527.385   -20658251.542 6    -43017.440 7
  20195911.604   -18207635.475 6 -14032312.964 7
 95  2 19 20 51 59.9940000  0  8  2 16 19 18 29 28 31 27
  21330466.322   -12101436.601 5  -9337766.875 6
  22600728.033    -3592999.541 3  -2671586.199 3
  18963170.783   -24579635.994 7 -18977793.302 8
  18953224.252   -20077828.956 7 -15559330.336 8
  20889772.932    -1697538.485 6  -1266664.912 6
  22051722.690   -13317608.948 5  -9691137.610 5
  19998444.080   -20684970.008 6    -63837.011 7
  20180113.549   -18290643.317 6 -14096994.355 7
 95  2 19 20 52 29.9940000  0  8  2 16 19 18 29 28 31 27
  21312608.643   -12195271.305 5  -9410884.744 6
  22589794.768    -3650438.953 3  -2716344.143 1
  18957797.307   -24607866.707 7 -18999791.249 8
  18958580.065   -20049677.594 7 -15537394.235 8
  20902699.471    -1629618.205 6  -1213740.092 6
  22058283.635   -13283125.517 5  -9664267.456 5
  19993476.932   -20711083.179 6    -84184.923 7
  20164337.088   -18373549.915 6 -14161596.851 7
 95  2 19 20 52 59.9940000  0  8  2 16 19 18 29 28 31 27
  21294802.846   -12288843.227 5  -9483797.854 6
  22578962.721    -3707368.936 3  -2760705.096 2
  18952463.486   -24635903.520 7 -19021638.107 8
  18964030.268   -20021036.942 7 -15515076.870 8
  20915680.432    -1561390.423 6  -1160575.667 6
  22064938.424   -13248162.108 5  -9637023.300 5
  19988623.065   -20736569.733 6   -104044.563 7
  20148573.494   -18456370.360 6 -14226132.220 7
 95  2 19 20 53 29.9940000  0  8  2 16 19 18 29 28 31 27
  21277044.971   -12382162.025 5  -9556513.731 5
  22568227.565    -3763780.399 3  -2804662.020 1
  18947165.189   -24663747.115 7 -19043334.409 8
  18969576.299   -19991893.484 7 -15492367.714 8
  20928724.393    -1492860.337 6  -1107175.663 6
  22071680.744   -13212723.128 5  -9609408.561 5
  19983892.900   -20761424.570 6   -123411.954 7
  20132831.236   -18539113.917 6 -14290607.678 7
 95  2 19 20 53 59.9940000  0  8  2 16 19 18 29 28 31 27
  21259333.611   -12475226.586 5  -9629031.512 6
  22557590.346    -3819668.535 3  -2848211.173 2
  18941904.174   -24691389.030 7 -19064873.557 8
  18975218.260   -19962249.044 7 -15469268.164 8
  20941820.486    -1424026.402 6  -1053538.896 6
  22078511.354   -13176821.391 5  -9581433.228 6
  19979283.518   -20785651.281 6   -142289.913 7
  20117102.721   -18621780.826 6 -14355023.389 7
 95  2 19 20 54 29.9940000  0  8  2 16 19 18 29 28 31 27
  21241679.190   -12568013.839 5  -9701333.200 6
  22547063.635    -3875004.763 3  -2891330.270 2
  18936689.822   -24718786.278 7 -19086222.059 8
  18980955.572   -19932098.598 7 -15445774.330 8
  20954985.291    -1354851.652 6   -999636.563 6
  22085434.635   -13140434.294 5  -9553079.719 5
  19974799.721   -20809229.202 6   -160662.316 7
  20101386.674   -18704353.547 6 -14419365.726 7
 95  2 19 20 54 59.9940000  0  8  2 16 19 18 29 28 31 27
  21224076.971   -12660511.202 5  -9773409.005 6
  22536637.486    -3929781.101 3  -2934013.090 2
  18931526.807   -24745918.514 7 -19107364.042 8
  18986793.447   -19901424.784 7 -15421872.681 8
  20968212.822    -1285338.191 5   -945470.313 6
  22092450.408   -13103554.392 5  -9524342.156 5
  19970439.025   -20832144.786 6   -178518.605 7
  20085696.088   -18786812.424 6 -14483619.342 7
 95  2 19 20 55 29.9940000  0  8  2 16 19 18 29 28 31 27
  21206525.307   -12752742.046 5  -9845277.132 6
  22526318.955    -3984021.257 3  -2976278.122 3
  18926408.314   -24772808.278 7 -19128317.097 8
  18992725.783   -19870249.378 7 -15397580.185 8
  20981502.361    -1215508.331 5   -891057.496 6
  22099560.463   -13066201.332 5  -9495235.929 5
  19966197.947   -20854422.252 6   -195877.659 7
  20070025.564   -18869162.636 6 -14547788.314 7
 95  2 19 20 55 59.9940000  0  8  2 16 19 18 29 28 31 27
  21189021.322   -12844722.875 5  -9916950.432 6
  22516096.111    -4037745.897 3  -3018141.422 4
  18921337.018   -24799469.517 7 -19149092.069 8
  18998748.783   -19838594.098 7 -15372913.752 8
  20994843.705    -1145398.032 5   -836426.182 6
  22106757.041   -13028388.872 5  -9465771.726 5
  19962078.088   -20876084.660 6   -212757.457 7
  20054374.885   -18951408.546 6 -14611875.982 7
 95  2 19 20 56 29.9940000  0  8  2 16 19 18 29 28 31 27
  21171566.471   -12936443.115 5  -9988420.684 5
  22505969.588    -4090951.156 3  -3059600.028 2
  18916307.861   -24825898.210 7 -19169685.846 8
  19004866.236   -19806446.321 7 -15347863.569 8
  21008233.354    -1075024.796 5   -781589.975 6
  22114041.604   -12990102.253 5  -9435938.017 5
  19958072.346   -20897118.064 6   -229147.127 7
  20038747.986   -19033536.440 6 -14675871.709 7
 95  2 19 20 56 59.9940000  0  8  2 16 19 18 29 28 31 27
  21154163.166   -13027907.211 6 -10059691.350 6
  22495939.549    -4143658.521 3  -3100670.657 4
  18911319.682   -24852115.658 7 -19190115.012 8
  19011076.510   -19773816.487 7 -15322437.746 8
  21021672.557    -1004406.165 6   -726562.555 5
  22121412.971   -12951352.814 5  -9405743.693 5
  19954186.033   -20917543.853 6   -245063.330 7
  20023142.057   -19115534.420 6 -14739766.192 7
 95  2 19 20 57 29.9940000  0  8  2 16 19 18 29 28 31 27
  21136807.518   -13119118.852 6 -10130765.296 5
  22486004.736    -4195861.972 3  -3141348.654 3
  18906369.916   -24878127.746 7 -19210384.159 8
  19017374.611   -19740714.662 7 -15296644.140 8
  21035158.658     -933536.241 6   -671339.325 5
  22128879.025   -12912136.974 5  -9375185.939 5
  19950411.104   -20937380.478 6   -260520.431 7
  20007567.861   -19197383.292 6 -14803544.499 7
 95  2 19 20 57 59.9940000  0  8  2 16 19 18 29 28 31 27
  21119503.354   -13210060.496 5 -10201628.854 6
  22476170.166    -4247554.834 3  -3181628.753 4
  18901460.713   -24903923.265 7 -19230484.560 8
  19023764.658   -19707133.652 7 -15270477.143 8
  21048694.674     -862406.937 6   -615913.962 5
  22136433.775   -12872450.971 5  -9344261.824 5
  19946749.525   -20956617.165 6   -275510.064 7
  19992022.416   -19279073.785 6 -14867199.388 7
 95  2 19 20 58 29.9940000  0  8  2 16 19 18 29 28 31 27
  21102246.260   -13300733.524 5 -10272283.095 6
  22466425.869    -4298746.144 3  -3221518.046 3
  18896589.815   -24929509.790 7 -19250422.096 8
  19030246.580   -19673071.631 7 -15243935.330 8
  21062282.822     -791003.746 6   -560275.181 5
  22144072.885   -12832305.701 5  -9312979.846 5
  19943206.783   -20975249.864 6   -290029.054 7
  19976504.268   -19360620.237 6 -14930742.042 7
 95  2 19 20 58 59.9940000  0  8  2 16 19 18 29 28 31 27
  21085043.650   -13391135.011 5 -10342725.749 6
  22456782.315    -4349424.546 4  -3261007.666 4
  18891760.307   -24954882.528 7 -19270193.061 8
  19036821.838   -19638516.073 7 -15217008.950 8
  21075926.877     -719308.061 6   -504408.475 4
  22151801.322   -12791695.016 5  -9281335.199 5
  19939777.682   -20993269.026 6   -304069.973 7
  19961016.096   -19442013.359 6 -14994165.214 7
 95  2 19 20 59 29.9940000  0  8  2 16 19 18 29 28 31 27
  21067888.650   -13481278.547 5 -10412967.406 6
  22447233.705    -4399601.936 4  -3300106.887 4
  18886972.041   -24980053.119 7 -19289806.510 8
  19043492.041   -19603469.206 7 -15189699.728 8
  21089624.189     -647321.995 6   -448315.497 4
  22159610.463   -12750633.317 4  -9249339.099 5
  19936467.439   -21010671.212 6   -317630.123 7
  19945548.783   -19523293.098 6 -15057500.041 7
 95  2 19 20 59 59.9940000  0  8  2 16 19 18 29 28 31 27
  21050786.533   -13571157.209 6 -10483002.655 6
  22437783.119    -4449275.855 4  -3338813.815 4
  18882221.900   -25005022.461 7 -19309263.133 8
  19050257.002   -19567914.559 7 -15161994.832 8
  21103380.174     -575038.567 6   -391990.810 5
  22167514.283   -12709124.320 5  -9216994.469 5
  19933273.104   -21027444.863 6   -330700.508 7
  19930097.338   -19604475.587 6 -15120759.090 7
 95  2 19 21  0 29.9940000  0  8  2 16 19 18 29 28 31 27
  21033731.713   -13660771.415 6 -10552831.858 6
  22428425.510    -4498420.027 3  -3377107.937 4
  18877508.111   -25029781.487 7 -19328555.888 8
  19057122.314   -19531844.281 7 -15133888.145 8
  21117191.885     -502446.785 5   -335425.862 5
  22175494.322   -12667156.230 4  -9184292.117 4
  19930202.979   -21043588.333 6   -343279.834 7
  19914670.479   -19685561.492 6 -15183942.882 7
 95  2 19 21  0 59.9940000  0  8  2 16 19 18 29 28 31 27
  21016728.564   -13750140.645 5 -10622470.163 5
  22419178.846    -4547045.957 3  -3414998.225 3
  18872834.908   -25054344.119 7 -19347695.598 8
  19064076.330   -19495300.144 7 -15105412.210 8
  21131061.268     -429577.787 5   -278644.915 5
  22183568.338   -12624754.855 5  -9151252.123 4
  19927241.533   -21059136.085 6   -355394.967 7
  19899253.463   -19766565.367 6 -15247062.745 7
 95  2 19 21  1 29.9940000  0  8  2 16 19 18 29 28 31 27
  20999769.143   -13839249.836 5 -10691905.834 6
  22410026.072    -4595133.597 3  -3452469.037 2
  18868199.252   -25078703.646 7 -19366677.054 8
  19071120.572   -19458284.797 7 -15076569.112 8
  21144982.025     -356420.445 5   -221639.295 5
  22191716.533   -12581916.659 5  -9117871.752 4
  19924398.197   -21074084.250 6   -367042.891 7
  19883857.908   -19847480.733 6 -15310113.639 7
 95  2 19 21  1 59.9940000  0  8  2 16 19 18 29 28 31 27
  20982859.393   -13928100.700 5 -10761140.202 6
  22400979.580    -4642665.850 4  -3489507.132 3
  18863606.182   -25102853.364 7 -19385495.009 8
  19078250.197   -19420808.937 7 -15047367.170 8
  21158956.268     -282986.371 5   -164418.011 5
  22199954.963   -12538637.939 5  -9084148.099 4
  19921669.283   -21088426.411 6   -378218.604 7
  19868482.994   -19928279.727 6 -15373073.851 7
 95  2 19 21  2 29.9940000  0  8  2 16 19 18 29 28 31 27
  20966001.471   -14016692.452 5 -10830172.679 6
  22392041.588    -4689648.350 4  -3526116.834 3
  18859048.018   -25126794.294 7 -19404150.268 8
  19085465.299   -19382898.494 7 -15017826.586 8
  21172978.830     -209294.684 5   -106996.006 5
  22208272.549   -12494922.076 4  -9050083.816 4
  19919057.143   -21102154.631 6   -388915.911 7
  19853130.330   -20008954.243 6 -15435937.071 7
 95  2 19 21  2 59.9940000  0  8  2 16 19 18 29 28 31 27
  20949199.088   -14105005.973 6 -10898988.361 6
  22383198.947    -4736087.424 4  -3562303.101 4
  18854533.236   -25150519.253 7 -19422637.252 8
  19092765.275   -19344540.219 7 -14987937.045 8
  21187049.111     -135349.972 5    -49376.824 5
  22216674.565   -12450766.448 5  -9015676.871 4
  19916565.252   -21115247.241 6   -399117.935 7
  19837803.940   -20089485.923 6 -15498688.992 7
 95  2 19 21  3 29.9940000  0  8  2 16 19 18 29 28 31 27
  20932439.854   -14193063.912 6 -10967604.867 6
  22374464.580    -4782004.864 4  -3598082.885 4
  18850055.635   -25174047.884 7 -19440971.242 8
  19100150.635   -19305730.139 7 -14957695.446 8
  21201164.525      -61173.969 5      8422.568 5
  22225161.541   -12406179.666 5  -8980933.957 4
  19914196.846   -21127703.236 6   -408823.890 7
  19822505.291   -20169886.083 6 -15561338.426 8
 95  2 19 21  3 59.9940000  0  8  2 16 19 18 29 28 31 27
  20915731.565   -14280873.495 6 -11036027.862 6
  22365824.236    -4827426.723 3  -3633476.472 4
  18845620.174   -25197372.239 7 -19459146.063 8
  19107618.479   -19266477.059 7 -14927108.648 8
  21215320.189       13211.628 5     66385.294 5
  22233723.940   -12361169.316 5  -8945860.965 4
  19911943.908   -21139521.250 6   -418032.715 7
  19807228.611   -20250159.925 6 -15623889.426 8
 95  2 19 21  4 29.9940000  0  8  2 16 19 18 29 28 31 27
  20899074.588   -14368398.870 6 -11104229.400 6
  22357275.697    -4872342.077 4  -3668475.411 3
  18841225.549   -25220457.046 7 -19477134.218 8
  19115178.557   -19226743.867 7 -14896147.737 8
  21229519.939       87830.836 5    124530.033 5
  22242376.650   -12315713.885 5  -8910441.180 4
  19909821.565   -21150689.070 6   -426734.901 7
  19791983.604   -20330292.942 6 -15686330.706 8
 95  2 19 21  4 59.9940000  0  8  2 16 19 18 29 28 31 27
  20882470.596   -14455662.206 6 -11172226.753 6
  22348821.854    -4916760.519 3  -3703087.107 4
  18836875.744   -25243309.940 7 -19494941.663 9
  19122833.205   -19186527.761 7 -14864810.534 8
  21243764.705      162684.261 5    182857.301 5
  22251108.072   -12269825.532 5  -8874684.059 5
  19907815.221   -21161228.486 6   -434947.419 7
  19776755.932   -20410305.403 7 -15748678.032 8
 95  2 19 21  5 29.9940000  0  8  2 16 19 18 29 28 31 27
  20865915.666   -14542663.417 6 -11240019.854 6
  22340465.604    -4960677.250 4  -3737307.914 3
  18832572.197   -25265931.400 7 -19512568.771 8
  19130576.447   -19145833.596 7 -14833100.814 8
  21258053.588      237784.079 5    241376.540 5
  22259925.189   -12223502.747 5  -8838588.428 5
  19905926.541   -21171143.374 6   -442673.291 7
  19761552.744   -20490201.063 7 -15810934.355 7
 95  2 19 21  5 59.9940000  0  8  2 16 19 18 29 28 31 27
  20849407.486   -14629395.998 6 -11307603.622 6
  22332200.877    -5004093.634 4  -3771138.802 4
  18828309.174   -25288322.369 7 -19530016.267 8
  19138409.908   -19104676.053 7 -14801030.016 8
  21272394.260      313136.796 5    300092.836 5
  22268816.494   -12176758.010 5  -8802163.984 5
  19904158.119   -21180449.895 6   -449925.113 7
  19746368.557   -20569988.591 7 -15873106.421 7
 95  2 19 21  6 29.9940000  0  8  2 16 19 18 29 28 31 27
  20832956.072   -14715859.632 6 -11374977.828 6
  22324046.924    -5046982.562 4  -3804558.736 2
  18824092.658   -25310489.823 7 -19547289.603 8
  19146334.932   -19063034.580 7 -14768582.146 8
  21286788.002      388774.207 5    359030.980 5
  22277793.377   -12129580.261 5  -8765402.139 5
  19902500.752   -21189143.207 6   -456699.104 7
  19731208.721   -20649655.193 7 -15935184.260 8
 95  2 19 21  6 59.9940000  0  8  2 16 19 18 29 28 31 27
  20816552.822   -14802068.025 6 -11442153.140 6
  22315976.064    -5089351.914 4  -3837573.776 3
  18819912.385   -25332458.061 7 -19564407.692 8
  19154347.236   -19020924.495 7 -14735769.113 8
  21301233.924      464695.053 5    418189.984 5
  22286853.979   -12081980.196 5  -8728311.228 5
  19900963.807   -21197227.576 6   -462998.602 7
  19716071.689   -20729192.368 7 -15997161.248 8
 95  2 19 21  7 29.9940000  0  8  2 16 19 18 29 28 31 27
  20800198.205   -14887993.894 6 -11509108.297 6
  22308014.525    -5131209.359 4  -3870189.936 4
  18815770.979   -25354216.981 7 -19581362.682 8
  19162449.971   -18978347.964 7 -14702592.615 8
  21315734.635      540898.037 5    477568.838 5
  22295992.666   -12033956.523 5  -8690890.225 5
  19899543.994   -21204703.245 6   -468823.789 7
  19700966.393   -20808578.535 6 -16059020.563 8
 95  2 19 21  7 59.9940000  0  8  2 16 19 18 29 28 31 27
  20783901.104   -14973642.736 6 -11575847.592 6
  22300150.533    -5172555.759 4  -3902407.860 3
  18811672.518   -25375761.102 7 -19598150.292 8
  19170639.510   -18935304.540 7 -14669052.305 8
  21330288.463      617374.405 5    537160.733 5
  22305208.455   -11985515.069 5  -8653143.690 5
  19898230.697   -21211581.244 6   -474183.262 7
  19685890.018   -20887807.748 6 -16120757.567 8
 95  2 19 21  8 29.9940000  0  8  2 16 19 18 29 28 31 27
  20767652.994   -15059017.779 6 -11642373.533 6
  22292375.994    -5213385.113 3  -3934222.874 4
  18807614.580   -25397084.374 7 -19614765.820 8
  19178919.690   -18891789.675 7 -14635144.640 8
  21344891.939      694106.107 5    596951.574 5
  22314502.127   -11936659.328 5  -8615074.309 5
  19897041.174   -21217856.046 6   -479072.708 7
  19670843.924   -20966877.954 6 -16182370.685 8
 95  2 19 21  8 59.9940000  0  8  2 16 19 18 29 28 31 27
  20751466.104   -15144086.984 6 -11708661.166 6
  22284708.244    -5253681.742 4  -3965622.816 4
  18803603.127   -25418162.362 7 -19631190.210 8
  19187288.041   -18847806.187 7 -14600871.819 8
  21359538.424      771078.306 5    656929.805 5
  22323885.572   -11887378.938 5  -8576674.051 5
  19895964.564   -21223508.792 6   -483477.441 7
  19655829.197   -21045779.759 6 -16243852.576 8
 95  2 19 21  9 29.9940000  0  8  2 16 19 18 29 28 31 27
  20735333.455   -15228865.958 6 -11774722.641 6
  22277146.135    -5293430.179 4  -3996595.552 4
  18799639.900   -25438996.156 7 -19647424.326 8
  19195746.439   -18803371.901 7 -14566247.723 8
  21374228.346      848279.230 5    717086.274 5
  22333338.533   -11837682.341 4  -8537949.460 4
  19895004.299   -21228538.593 6   -487396.757 7
  19640840.088   -21124547.544 6 -16305230.032 8
 95  2 19 21  9 59.9940000  0  8  2 16 19 18 29 28 31 27
  20719250.416   -15313386.443 6 -11840582.697 6
  22269691.127    -5332607.624 4  -4027123.393 3
  18795717.189   -25459596.069 7 -19663476.190 8
  19204286.447   -18758490.215 7 -14531275.005 8
  21388963.822      925715.920 5    777426.452 5
  22342878.768   -11787572.510 5  -8498902.880 5
  19894170.369   -21232931.921 6   -490820.119 7
  19625872.533   -21203198.443 6 -16366516.395 8
 95  2 19 21 10 29.9930000  0  8  2 16 19 18 29 28 31 27
  20703215.294   -15397647.497 6 -11906240.611 6
  22262341.052    -5371210.132 4  -4057203.242 4
  18791841.763   -25479965.977 7 -19679348.832 8
  19212910.833   -18713172.376 7 -14495962.422 8
  21403746.130     1003387.710 5    837949.826 4
  22352494.810   -11737047.134 5  -8459532.485 4
  19893459.325   -21236675.631 6   -493737.288 7
  19610926.981   -21281734.745 6 -16427713.482 8
 95  2 19 21 10 59.9930000  0  8  2 16 19 18 29 28 31 27
  20687225.099   -15481671.173 6 -11971713.541 7
  22255100.372    -5409263.014 4  -4086854.802 3
  18788004.325   -25500123.102 7 -19695055.674 8
  19221614.356   -18667433.686 7 -14460321.916 8
  21418569.435     1081294.797 5    898656.551 3
  22362183.442   -11686111.786 5  -8419842.631 4
  19892869.169   -21239782.817 6   -496158.457 7
  19596002.880   -21360165.890 6 -16488828.612 8
 95  2 19 21 11 29.9930000  0  8  2 16 19 18 29 28 31 27
  20671284.044   -15565455.389 6 -12036999.882 7
  22247965.903    -5446779.246 4  -4116088.184 4
  18784214.692   -25520055.336 7 -19710587.265 8
  19230403.310   -18621246.328 7 -14424331.791 8
  21433443.388     1159452.158 5    959558.341 3
  22371953.825   -11634769.288 4  -8379835.516 4
  19892395.263   -21242263.961 6   -498091.798 7
  19581100.521   -21438476.820 6 -16549850.068 8
 95  2 19 21 11 59.9930000  0  8  2 16 19 18 29 28 31 27
  20655390.021   -15648962.444 6 -12102070.255 6
  22240924.685    -5483758.754 3  -4144903.373 3
  18780466.817   -25539733.617 7 -19725920.974 8
  19239284.130   -18574576.486 7 -14387965.703 8
  21448366.622     1237868.206 5   1020661.664 4
  22381807.630   -11583001.756 5  -8339497.191 4
  19892041.864   -21244113.170 6   -499532.715 7
  19566227.677   -21516628.316 6 -16610747.300 8
 95  2 19 21 12 29.9930000  0  8  2 16 19 18 29 28 31 27
  20639558.333   -15732179.095 6 -12166914.350 7
  22233986.591    -5520236.367 3  -4173327.447 3
  18776772.794   -25559160.607 7 -19741058.876 8
  19248254.958   -18527432.729 7 -14351230.342 8
  21463329.521     1316502.646 5   1081935.171 5
  22391729.685   -11530823.757 5  -8298839.049 4
  19891807.575   -21245352.985 6   -500498.785 7
  19551386.099   -21594618.641 6 -16671518.932 8
 95  2 19 21 12 59.9930000  0  8  2 16 19 18 29 28 31 27
  20623778.021   -15815082.607 6 -12231514.430 7
  22227141.911    -5556203.506 4  -4201353.768 3
  18773124.224   -25578329.474 7 -19755995.645 8
  19257317.614   -18479803.255 7 -14314116.486 8
  21478336.263     1395358.670 5   1143381.333 5
  22401741.575   -11478236.380 5  -8257861.886 3
  19891685.692   -21245985.264 6   -500991.447 7
  19536576.505   -21672444.984 6 -16732162.786 8
 95  2 19 21 13 29.9930000  0  8  2 16 19 18 29 28 31 27
  20608063.067   -15897665.698 6 -12295864.841 6
  22220393.216    -5591652.782 4  -4228976.572 4
  18769524.747   -25597243.986 7 -19770734.205 8
  19266472.060   -18431700.130 7 -14276633.571 8
  21493382.856     1474441.272 5   1205004.046 5
  22411828.177   -11425241.972 5  -8216567.576 2
  19891684.458   -21246004.502 6
  19521797.669   -21750120.113 6 -16792688.820 8
 95  2 19 21 13 59.9930000  0  8  2 16 19 18 29 28 31 27
  20592410.763   -15979932.551 6 -12359968.835 6
  22213754.739    -5626559.801 4  -4256176.803 3
  18765973.981   -25615906.419 7 -19785276.363 8
  19275711.083   -18383152.056 7 -14238803.930 8
  21508473.919     1553743.775 5   1266798.100 5
  22421989.114   -11371833.845 5  -8174950.874 3
  19891799.927   -21245385.128 6
  19507044.692   -21827630.476 6 -16853086.460 8
 95  2 19 21 14 29.9930000  0  8  2 16 19 18 29 28 31 27
  20576810.778   -16061891.149 6 -12423832.620 6
  22207213.583    -5660918.365 4  -4282949.711 4
  18762469.036   -25634326.551 7 -19799629.693 8
  19285031.575   -18334170.055 7 -14200636.167 8
  21523610.169     1633272.594 5   1328768.490 5
  22432230.106   -11318017.917 5  -8133016.406 3
  19892040.177   -21244119.876 6   -499537.838 7
  19492328.060   -21904977.443 6 -16913356.779 8
 95  2 19 21 14 59.9930000  0  8  2 16 19 18 29 28 31 27
  20561273.646   -16143546.291 6 -12487459.950 6
  22200782.614    -5694702.789 4  -4309275.224 4
  18759010.716   -25652504.531 7 -19813794.346 8
  19294433.864   -18284755.993 7 -14162131.731 8
  21538790.872     1713052.278 5   1390934.369 5
  22442550.513   -11263790.855 5  -8090761.564 2
  19892405.185   -21242199.297 7   -498041.266 7
  19477639.364   -21982162.376 6 -16973500.833 8
 95  2 19 21 15 29.9930000  0  8  2 16 19 18 29 28 31 27
  20545790.028   -16224918.999 6 -12550867.196 6
  22194462.364    -5727917.692 4  -4335156.947 3
  18755597.255   -25670441.647 7 -19827771.311 8
  19303921.208   -18234906.664 7 -14123288.130 8
  21554020.872     1793079.332 5   1453293.011 4
  22452946.302   -11209154.304 5  -8048187.618 2
  19892894.833   -21239624.123 6   -496034.619 7
  19462985.653   -22059176.135 6 -17033511.511 8
 95  2 19 21 15 59.9930000  0  8  2 16 19 18 29 28 31 27
  20530359.411   -16306012.511 6 -12614056.896 7
  22188248.122    -5760573.223 4  -4360602.793 4
  18752228.411   -25688134.055 7 -19841557.585 8
  19313492.247   -18184609.343 7 -14084095.445 8
  21569293.950     1873346.304 5   1515838.592 5
  22463416.481   -11154115.779 5  -8005300.462 3
  19893506.458   -21236414.501 6   -493533.603 7
  19448362.403   -22136011.998 6 -17093383.574 8
 95  2 19 21 16 29.9930000  0  8  2 16 19 18 29 28 31 27
  20514984.778   -16386812.210 6 -12677017.651 6
  22182144.872    -5792679.052 4  -4385620.307 4
  18748908.153   -25705578.470 7 -19855150.624 8
  19323152.419   -18133852.582 7 -14044544.752 8
  21584615.825     1953866.349 5   1578581.385 5
  22473969.911   -11098673.394 5  -7962098.656 3
  19894237.919   -21232577.465 6   -490543.701 7
  19433773.763   -22212683.384 6 -17153127.474 8
 95  2 19 21 16 59.9930000  0  8  2 16 19 18 29 28 31 27
  20499656.919   -16467343.557 5 -12739769.281 7
  22176133.927    -5824263.424 4  -4410231.505 2
  18745633.903   -25722787.116 7 -19868559.966 8
  19332894.177   -18082656.772 7 -14004651.947 8
  21599982.552     2034612.835 5   1641500.651 5
  22484593.786   -11042845.357 5  -7918596.313 4
  19895084.669   -21228140.143 7   -487086.038 7
  19419211.403   -22289207.089 6 -17212756.291 8
 95  2 19 21 17 29.9930000  0  8  2 16 19 18 29 28 31 27
  20484385.481   -16547598.454 6 -12802305.503 6
  22170216.692    -5855343.529 4  -4434449.759 4
  18742408.700   -25739747.940 7 -19881776.165 8
  19342720.677   -18031017.770 7 -13964413.789 8
  21615389.216     2115578.432 5   1704590.625 4
  22495293.536   -10986631.656 5  -7874793.442 3
  19896039.919   -21223102.405 7   -483160.516 7
  19404680.161   -22365566.401 6 -17272257.011 8
 95  2 19 21 17 59.9930000  0  8  2 16 19 18 29 28 31 27
  20469168.638   -16627560.239 6 -12864613.343 6
  22164398.810    -5885905.142 4  -4458263.990 3
  18739230.833   -25756438.008 7 -19894781.416 8
  19352630.083   -17978942.896 7 -13923836.001 8
  21630839.169     2196765.191 5   1767852.952 5
  22506060.271   -10930026.529 4  -7830685.553 4
  19897117.872   -21217451.171 6   -478756.951 7
  19390183.474   -22441750.163 7 -17331620.947 8
 95  2 19 21 18 29.9930000  0  8  2 16 19 18 29 28 31 27
  20454006.817   -16707251.216 6 -12926710.157 6
  22158683.044    -5915951.427 3  -4481676.663 4
  18736104.231   -25772874.039 7 -19907588.701 8
  19362620.146   -17926443.470 7 -13882927.384 8
  21646328.013     2278151.385 5   1831270.664 5
  22516907.716   -10873043.863 4  -7786283.486 4
  19898305.036   -21211188.378 6   -473876.846 7
  19375715.731   -22517775.628 7 -17390861.536 8
 95  2 19 21 18 59.9930000  0  8  2 16 19 18 29 28 31 27
  20438889.700   -16786677.463 6 -12988600.688 6
  22153065.153    -5945476.449 3  -4504683.138 3
  18733023.567   -25789056.604 7 -19920198.484 8
  19372692.700   -17873513.151 7 -13841683.014 8
  21661850.356     2359730.131 5   1894838.396 5
  22527820.263   -10815685.536 4  -7741588.689 4
  19899613.841   -21204316.194 6   -468521.903 7
  19361280.778   -22593634.169 7 -17449972.047 8
 95  2 19 21 19 29.9930000  0  8  2 16 19 18 29 28 31 27
  20423831.481   -16865817.275 6 -13050268.015 6
  22147544.552    -5974461.616 3  -4527268.941 3
  18729995.677   -25804971.430 7 -19932599.637 8
  19382849.685   -17820133.065 7 -13800088.177 8
  21677412.575     2441523.086 5   1958573.071 4
  22538814.849   -10757937.771 5  -7696590.453 1
  19901043.841   -21196818.351 6   -462679.429 7
  19346878.911   -22669315.555 7 -17508944.542 8
 95  2 19 21 19 59.9930000  0  8  2 16 19 18 29 28 31 27
  20408820.896   -16944688.647 6 -13111726.189 6
  22142132.388    -6002908.988 3  -4549435.711 4
  18727014.528   -25820635.212 7 -19944805.167 8
  19393091.380   -17766313.693 7 -13758151.037 8
  21693016.989     2523511.353 4   2022459.907 5
  22549873.989   -10699813.111 4  -7651298.540 4
  19902586.661   -21188709.016 6   -456360.463 7
  19332507.138   -22744847.320 7 -17567800.418 8
 95  2 19 21 20 29.9930000  0  8  2 16 19 18 29 28 31 27
  20393865.396   -17023282.596 6 -13172968.169 6
  22136823.067    -6030821.793 3  -4571185.896 4
  18724074.763   -25836065.087 7 -19956828.436 8
  19403418.278   -17712047.530 7 -13715865.748 7
  21708656.044     2605694.481 5   2086498.593 5
  22561001.638   -10641313.989 4  -7605714.831 2
  19904246.028   -21179993.042 6   -449568.791 7
  19318163.677   -22820231.042 7 -17626540.952 8
 95  2 19 21 20 59.9930000  0  8  2 16 19 18 29 28 31 27
  20378963.896   -17101593.217 6 -13233989.398 6
  22131611.372    -6058205.249 3  -4592523.645 4
  18721188.763   -25851253.707 7 -19968663.717 8
  19413827.130   -17657346.919 7 -13673241.928 7
  21724335.771     2688077.607 5   2150693.117 5
  22572205.341   -10582448.060 3  -7559845.279 4
  19906017.325   -21170676.700 6   -442309.290 7
  19303845.458   -22895453.014 7 -17685155.438 8
 95  2 19 21 21 29.9930000  0  8  2 16 19 18 29 28 31 27
  20364117.583   -17179610.080 6 -13294781.700 6
  22126500.442    -6085052.052 4  -4613443.197 3
  18718348.536   -25866175.783 7 -19980291.293 8
  19424317.794   -17602213.534 7 -13630280.879 7
  21740048.341     2770671.424 5   2215051.841 4
  22583476.560   -10523211.233 3  -7513686.766 4
  19907910.021   -21160741.113 6   -434567.265 7
  19289568.856   -22970490.608 7 -17743626.264 8
 95  2 19 21 21 59.9930000  0  8  2 16 19 18 29 28 31 27
  20349327.700   -17257329.132 6 -13355341.959 6
  22121501.099    -6111359.299 3  -4633942.339 4
  18715561.427   -25880824.196 7 -19991705.640 8
  19434891.489   -17546655.469 7 -13586988.906 7
  21755807.388     2853473.625 5   2279572.932 3
  22594818.849   -10463604.987 3  -7467240.348 5
  19909917.021   -21150177.281 6   -426335.702 7
  19275327.583   -23045323.721 7 -17801937.742 8
 95  2 19 21 22 29.9930000  0  8  2 16 19 18 29 28 31 27
  20334599.005   -17334742.834 6 -13415664.277 6
  22116592.099    -6137129.377 3  -4654022.886 3
  18712827.185   -25895190.550 7 -20002900.190 8
  19445542.419   -17490680.593 7 -13543372.153 7
  21771607.536     2936503.284 5   2344271.262 3
  22606234.474   -10403630.473 3  -7420507.012 4
  19912048.388   -21138990.852 7   -417618.996 7
  19261126.575   -23119946.105 7 -17860085.018 8
 95  2 19 21 22 59.9930000  0  8  2 16 19 18 29 28 31 27
  20319923.138   -17411862.721 6 -13475757.637 6
  22111787.942    -6162379.138 3  -4673698.024 3
  18710149.052   -25909264.282 7 -20013866.728 8
  19456272.653   -17434301.916 7 -13499440.747 7
  21787448.560     3019750.999 5   2409139.503 4
  22617715.583   -10343291.417 3  -7373489.594 3
  19914293.974   -21127178.300 6   -408414.401 7
  19246966.653   -23194354.057 7 -17918065.211 8
 95  2 19 21 23 29.9930000  0  8  2 16 19 18 29 28 31 27
  20305301.278   -17488692.951 6 -13535625.291 6
  22107082.247    -6187115.173 3  -4692972.831 5
  18707525.005   -25923059.513 7 -20024616.246 8
  19467077.388   -17377517.000 7 -13455192.794 7
  21803326.192     3103183.649 4   2474151.864 2
  22629270.388   -10282590.311 3  -7326190.069 3
  19916659.474   -21114747.214 7   -398727.830 7
  19232845.060   -23268566.783 7 -17975893.274 8
 95  2 19 21 23 59.9930000  0  8  2 16 19 18 29 28 31 27
  20290735.802   -17565237.104 6 -13595270.028 6
  22102472.427    -6211342.303 3  -4711851.087 3
  18704943.185   -25936611.577 7 -20035176.290 8
  19477961.161   -17320326.839 7 -13410629.059 7
  21819234.974     3186781.928 4   2539293.267 2
  22640881.474   -10221537.027 3  -7278616.119 2
  19919141.060   -21101723.666 7   -388579.589 7
  19218753.771   -23342616.058 7 -18033593.976 8
 95  2 19 21 24 29.9930000  0  8  2 16 19 18 29 28 31 27
  20276222.122   -17641512.313 6 -13654705.195 6
  22097955.888    -6235057.205 3  -4730330.206 3
  18702407.856   -25949951.065 7 -20045570.688 8
  19488919.208   -17262735.953 6 -13365753.074 7
  21835170.942     3270530.449 3   2604551.765 3
  22652566.224   -10160143.234 3  -7230776.830 3
  19921724.880   -21088124.048 7   -377982.456 7
  19204689.888   -23416522.807 7 -18091183.613 8
 95  2 19 21 24 59.9930000  0  8  2 16 19 18 29 28 31 27
  20261757.950   -17717515.214 6 -13713928.181 6
  22093544.474    -6258247.536 3  -4748400.572 4
  18699908.935   -25963082.826 7 -20055803.222 8
  19499957.294   -17204734.588 6 -13320557.241 7
  21851132.958     3354420.867 3   2669920.802 3
  22664316.060   -10098404.514 4  -7182668.801 3
  19924426.622   -21073935.422 7   -366926.374 7
  19190655.599   -23490271.261 7 -18148649.900 8
 95  2 19 21 25 29.9930000  0  8  2 16 19 18 29 28 31 27
  20247348.786   -17793233.469 6 -13772929.368 6
  22089238.067    -6280893.070 3  -4766046.403 4
  18697447.231   -25976011.957 7 -20065877.857 8
  19511074.286   -17146305.079 6 -13275027.791 7
  21867127.599     3438479.056 3   2735420.573 1
  22676133.685   -10036314.400 4  -7134286.929 3
  19927236.841   -21059170.310 7   -355421.062 7
  19176652.325   -23563862.283 7 -18205993.514 8
 95  2 19 21 25 59.9930000  0  8  2 16 19 18 29 28 31 27
  20232995.263   -17868673.016 6 -13831713.372 6
  22085029.849    -6302996.623 3  -4783269.911 2
  18695029.685   -25988727.856 7 -20075786.328 8
  19522273.247   -17087465.547 6 -13229178.843 7
  21883161.474     3522736.951 3   2801075.994 3
  22688011.271    -9973873.560 4  -7085631.785 4
  19930156.364   -21043817.318 7   -343457.677 7
  19162679.044   -23637284.933 7 -18263205.930 8
 95  2 19 21 26 29.9930000  0  8  2 16 19 18 29 28 31 27
  20218689.185   -17943841.824 6 -13890286.421 7
  22080923.521    -6324579.188 3  -4800087.458 3
  18692650.919   -26001215.642 7 -20085517.068 8
  19533544.497   -17028233.076 6 -13183023.702 7
  21899234.310     3607183.885 4   2866878.697 2
  22699959.810    -9911092.791 4  -7036711.741 3
  19933192.614   -21027869.526 6   -331030.814 7
  19148740.606   -23710532.327 7 -18320281.774 8
 95  2 19 21 26 59.9930000  0  7  2 16 19 18 29 31 27
  20204438.489   -18018722.255 6 -13948634.765 7
  22076915.200    -6345655.872 3  -4816510.839 4
  18690325.685   -26013440.285 7 -20095042.748 8
  19544891.771   -16968603.201 6 -13136558.899 7
  21915341.747     3691825.699 4   2932833.252 3
  19936342.255   -21011316.080 7   -318132.008 7
  19134838.989   -23783596.975 7 -18377215.223 8
 95  2 19 21 27 29.9930000  0  7  2 16 19 18 29 31 27
  20190241.708   -18093320.521 6 -14006763.233 7
  22072993.888    -6366240.067 3  -4832550.460 2
  18688050.849   -26025399.278 7 -20104361.430 8
  19556312.216   -16908584.061 6 -13089790.778 7
  21931483.489     3776649.798 4   2998929.821 3
  19939606.114   -20994158.125 6   -304762.154 7
  19120966.700   -23856491.722 7 -18434016.284 8
 95  2 19 21 27 59.9930000  0  7  2 16 19 18 29 31 27
  20176101.755   -18167632.648 6 -14064668.740 7
  22069173.864    -6386324.831 3  -4848200.903 4
  18685829.560   -26037067.818 7 -20113453.790 8
  19567807.302   -16848179.491 6 -13042722.323 7
  21947656.161     3861639.109 4   3065155.157 3
  19942990.138   -20976371.176 6   -290902.188 7
  19107129.544   -23929212.474 7 -18490681.760 8
 95  2 19 21 28 29.9930000  0  7  2 16 19 18 29 31 27
  20162018.942   -18241648.354 6 -14122343.290 7
  22065445.677    -6405896.995 3  -4863451.922 4
  18683662.286   -26048445.748 7 -20122319.688 8
  19579380.489   -16787366.042 6 -12995335.250 7
  21963858.685     3946779.943 5   3131498.558 4
  19946495.716   -20957968.557 6   -276562.467 7
  19093325.997   -24001748.975 7 -18547203.668 8
 95  2 19 21 28 59.9930000  0  7  2 16 19 18 29 31 27
  20147986.458   -18315381.327 6 -14179797.524 7
  22061820.224    -6424949.267 3  -4878297.840 4
  18681553.435   -26059540.987 7 -20130965.326 8
  19591031.911   -16726133.596 6 -12947621.696 7
  21980089.231     4032080.263 3   3197966.235 4
  19950109.817   -20938960.841 6   -261751.253 7
  19079559.583   -24074087.270 7 -18603571.128 8
 95  2 19 21 29 29.9930000  0  7  2 16 19 18 29 31 27
  20134008.442   -18388842.678 6 -14237040.105 7
  22058299.317    -6443471.423 3  -4892730.657 4
  18679492.942   -26070369.635 7 -20139403.215 8
  19602763.521   -16664482.495 6 -12899581.913 7
  21996350.013     4117534.080 4   3264553.505 3
  19953840.466   -20919362.843 6   -246480.081 7
  19065832.200   -24146217.506 7 -18659776.458 8
 95  2 19 21 29 59.9930000  0  7  2 16 19 18 29 31 27
  20120080.481   -18462033.579 6 -14294071.929 7
  22054879.271    -6461450.987 3  -4906740.684 4
  18677484.177   -26080924.628 7 -20147627.875 8
  19614575.474   -16602411.652 6 -12851215.062 7
  22012641.067     4203139.690 3   3331259.050 2
  19957679.294   -20899182.295 6   -230754.971 7
  19052148.856   -24218126.929 7 -18715809.748 8
 95  2 19 21 30 29.9930000  0  7  2 16 19 18 29 31 27
  20106203.442   -18534972.254 6 -14350907.231 7
  22051554.716    -6478909.082 3  -4920344.376 3
  18675522.005   -26091234.865 7 -20155661.811 8
  19626463.513   -16539943.066 6 -12802538.286 7
  22028963.013     4288889.870 3   3398077.264 3
  19961624.974   -20878444.412 6   -214595.573 7
  19038503.911   -24289821.231 7 -18771675.402 9
 95  2 19 21 30 59.9930000  0  7  2 16 19 18 29 31 27
  20092367.677   -18607657.684 6 -14407545.186 7
  22048326.403    -6495855.883 3  -4933549.668 4
  18673607.239   -26101297.162 7 -20163502.553 8
  19638421.310   -16477105.131 6 -12753573.702 7
  22045308.786     4374782.330 3   3465006.326 1
  19965678.169   -20857151.874 6   -198003.979 7
  19024901.177   -24361321.856 7 -18827390.137 9
 95  2 19 21 31 29.9930000  0  7  2 16 19 18 29 31 27
  20078584.825   -18680081.209 6 -14463979.064 7
  22045201.692    -6512296.832 3  -4946360.774 4
  18671739.692   -26111112.795 7 -20171151.090 8
  19650442.856   -16413924.589 6 -12704342.139 7
  22061677.106     4460807.476 3   3532038.797 1
  19969834.317   -20835315.147 6   -180988.340 7
  19011322.864   -24432668.720 7 -18882985.064 9
 95  2 19 21 31 59.9930000  0  7  2 16 19 18 29 31 27
  20064859.817   -18752234.140 6 -14520202.064 7
  22042166.942    -6528242.262 3  -4958785.796 5
  18669918.271   -26120677.671 7 -20178604.221 8
  19662526.950   -16350421.655 6 -12654859.378 7
  22078070.075     4546976.892 3   3599183.700 3
  19974094.247   -20812930.396 6   -163545.659 7
  18997772.903   -24503874.101 7 -18938469.753 9
 95  2 19 21 32 29.9930000  0  7  2 16 19 18 29 31 27
  20051181.169   -18824096.790 6 -14576198.885 7
  22039228.138    -6543699.937 4  -4970830.730 4
  18668145.411   -26129991.854 7 -20185862.009 8
  19674676.864   -16286583.682 6 -12605115.536 7
  22094498.185     4633315.725 3   3666460.615 2
  19978461.161   -20789983.860 6   -145665.230 7
  18984256.231   -24574924.019 7 -18993833.294 9
 95  2 19 21 32 59.9930000  0  7  2 16 19 18 29 31 27
  20037562.060   -18895676.261 6 -14631975.035 7
  22036370.552    -6558674.589 3  -4982499.277 3
  18666420.685   -26139061.041 7 -20192928.896 8
  19686887.794   -16222407.059 7 -12555107.816 7
  22110959.981     4719813.987 4   3733861.779 2
  19982933.958   -20766480.833 6   -127351.187 7
  18970759.278   -24645825.981 7 -19049081.551 9
 95  2 19 21 33 29.9930000  0  7  2 16 19 18 29 31 27
  20023995.560   -18966960.801 6 -14687521.379 7
  22033619.091    -6573151.105 4  -4993779.679 4
  18664743.935   -26147875.025 7 -20199796.922 8
  19699169.489   -16157865.090 6 -12504815.400 7
  22127454.497     4806482.991 4   3801395.965 2
  19987518.380   -20742385.239 6   -108575.389 7
  18957305.653   -24716539.461 7 -19104182.921 9
 95  2 19 21 33 59.9930000  0  7  2 16 19 18 29 31 27
  20010483.989   -19037954.681 6 -14742841.231 7
  22030961.724    -6587124.257 4  -5004667.848 4
  18663115.177   -26156422.405 7 -20206457.208 8
  19711526.138   -16092939.138 7 -12454223.786 7
  22143978.122     4893317.732 4   3869059.318 2
  19992220.583   -20717677.370 6    -89322.495 6
  18943892.271   -24787017.303 7 -19159100.698 9
 95  2 19 21 34 29.9930000  0  7  2 16 19 18 29 31 27
  19997028.192   -19108680.644 6 -14797952.314 7
  22028396.872    -6600598.442 3  -5015167.215 3
  18661537.872   -26164713.151 7 -20212917.516 8
  19723953.106   -16027628.267 6 -12403332.231 7
  22160525.966     4980275.033 4   3936818.119 2
  19997037.442   -20692370.124 6    -69602.565 6
  18930521.302   -24857279.423 7 -19213850.387 9
 95  2 19 21 34 59.9930000  0  7  2 16 19 18 29 31 27
  19983621.028   -19179128.391 6 -14852846.611 7
  22025933.481    -6613557.971 4  -5025265.563 3
  18660013.224   -26172728.206 7 -20219163.003 9
  19736452.646   -15961934.827 7 -12352142.577 6
  22177095.888     5067346.037 3   4004665.538 2
  20001967.622   -20666465.243 6    -49416.947 6
  18917191.771   -24927333.136 7 -19268437.661 9
 95  2 19 21 35 29.9930000  0  7  2 16 19 18 29 31 27
  19970264.450   -19249311.616 6 -14907534.783 8
  22023558.513    -6626025.951 4  -5034980.869 2
  18658541.060   -26180475.162 7 -20225199.585 8
  19749023.528   -15895878.747 6 -12300670.345 6
  22193684.599     5154510.431 4   4072585.728 3
  20007001.731   -20639991.029 6    -28787.692 7
  18903897.567   -24997193.587 7 -19322874.365 9
 95  2 19 21 35 59.9930000  0  7  2 16 19 18 29 31 27
  19956963.044   -19319214.752 6
  22021280.583    -6637989.666 4  -5044303.233 2
  18657122.192   -26187927.621 7 -20231006.685 8
  19761669.255   -15829435.482 6 -12248896.401 6
  22210289.099     5241787.692 3   4140593.867 3
  20012147.099   -20612951.370 6     -7717.834 6
  18890642.833   -25066857.212 7
 95  2 19 21 36 29.9930000  0  7  2 16 19 18 29 31 27
  19943711.325   -19388846.358 6
  22019096.794    -6649468.538 4  -5053247.798 4
  18655754.224   -26195112.542 7 -20236605.322 8
  19774377.997   -15762635.591 6 -12196844.579 6
  22226917.271     5329177.390 3   4208689.608 3
  20017397.388   -20585376.630 6     13768.965 6
  18877415.685   -25136366.629 7
 95  2 19 21 36 59.9930000  0  7  2 16 19 18 29 31 27
  19930513.864          -0.52416
  22017006.099    -6660462.167 4  -5061814.264 2
  18654437.935   -26202027.487 7 -20241993.588 8
  19787155.646   -15695487.182 6 -12144521.171 6
  22243576.356     5416709.357 3   4276896.203 2
  20022746.974   -20557261.937 6     35676.519 6
  18864221.700   -25205695.756 7 -19485343.495 9
 95  2 19 21 37 29.9930000  0  7  2 16 19 18 29 31 27
  19917370.302      -69079.927 6
  22015000.067    -6670968.074 3  -5070000.682 2
  18653172.841   -26208668.914 7 -20247168.709 8
  19800001.450   -15627991.091 6 -12091926.851 6
  22260266.786     5504388.260 3   4345217.278 3
  20028200.771   -20528594.703 6     58014.609 6
  18851064.396   -25274827.856 7
 95  2 19 21 37 59.9930000  0  7  2 16 19 18 29 31 27
  19904274.669     -137883.247 6
  22013104.599    -6680972.049 4  -5077795.995 3
  18651960.661   -26215045.048 7 -20252137.129 9
  19812910.341   -15560159.360 6 -12039070.978 6
  22276975.763     5592207.488 3   4413647.750 2
  20033765.646   -20499360.485 6     80794.496 6
  18837949.669   -25343758.995 7
 95  2 19 21 38 29.9930000  0  7  2 16 19 18 29 31 27
  19891237.255     -206395.122 6        -0.03318
  22011299.388    -6690463.710 5  -5085192.088 2
  18650798.763   -26221153.486 7 -20256896.947 8
  19825880.739   -15491999.006 6 -11985959.048 6
  22293711.724     5680158.950 3   4482181.198 2
  20039437.442   -20469549.359 6    104023.931 6
  18824876.747   -25412463.290 7 -19646460.994 9
 95  2 19 21 38 59.9930000  0  7  2 16 19 18 29 31 27
  19878254.442     -274628.043 6    -53168.485 7
  22009586.528    -6699457.519 4  -5092200.254 1
  18649686.505   -26226992.732 7 -20261447.003 8
  19838912.060   -15423512.392 6 -11932592.892 6
  22310460.896     5768202.078 3   4550786.134 2
  20045219.036   -20439168.762 6    127697.111 6
  18811847.310   -25480926.886 7 -19699809.231 9
 95  2 19 21 39 29.9930000  0  7  2 16 19 18 29 31 27
  19865326.489     -342580.314 6   -106118.265 7
  22007971.927    -6707942.188 4  -5098811.694 2
  18648630.661   -26232549.780 7 -20265777.164 8
  19852010.786   -15354677.527 6 -11878955.366 6
  22327234.036     5856320.299 4   4619449.572 1
  20051111.177   -20408209.439 6    151821.244 6
  18798864.271   -25549146.278 7 -19752967.173 9
 95  2 19 21 39 59.9930000  0  7  2 16 19 18 29 31 27
  19852447.310     -410257.871 6   -158853.977 7
  22006454.481    -6715925.277 4  -5105032.288 3
  18647623.981   -26237833.626 7 -20269894.440 9
  19865178.880   -15285482.111 6 -11825036.885 6
  22344012.005     5944504.731 4   4688164.597 1
  20057106.614   -20376687.345 6    176383.905 6
  18785928.192   -25617130.788 7 -19805942.087 9
 95  2 19 21 40 29.9930000  0  7  2 16 19 18 29 31 27
  19839619.411     -477662.066 6   -211376.685 7
  22005017.224    -6723417.382 4  -5110870.307 2
  18646675.263   -26242820.965 7 -20273780.673 8
  19878418.372   -15215908.558 6 -11770823.767 6
  22360813.817     6032778.230 4   4756949.051 1
  20063212.067   -20344604.732 6    201383.330 6
  18773037.599   -25684876.882 7 -19858731.219 9
 95  2 19 21 40 59.9930000  0  7  2 16 19 18 29 31 27
  19826838.536     -544816.962 6   -263705.138 8
  22003688.888    -6730429.704 4  -5116334.429 2
  18645780.739   -26247523.327 7 -20277444.843 9
  19891727.146   -15145973.752 6 -11716329.148 6
  22377627.450     6121144.796 3
  20069423.528   -20311975.992 6    226808.318 6
  18760183.825   -25752416.839 7 -19911359.735 9
 95  2 19 21 41 29.9930000  0  8  2 16 19 18 29  7 31 27
  19814108.536     -611729.401 6   -315844.656 8
  22002448.966    -6736962.186 4  -5121424.668 2
  18644938.599   -26251950.730 7 -20280894.765 9
  19905102.294   -15075680.919 6 -11661555.541 6
  22394459.310     6209636.171 3        -0.27611
  22376330.497          -0.45313
  20075735.872   -20278804.153 6    252656.495 6
  18747367.231   -25819765.900 7 -19963839.493 9
 95  2 19 21 41 59.9930000  0  8  2 16 19 18 29  7 31 27
  19801423.231     -678385.461 6   -367784.400 8
  22001294.177    -6743024.826 4  -5126148.824 2
  18644147.177   -26256100.418 7 -20284128.291 9
  19918545.841   -15005040.440 6 -11606511.043 6
  22411341.864     6298278.043 3     69071.216 1
  22351621.114     -129846.188 3        -0.05212
  20082148.505   -20245094.345 6    278923.876 6
  18734586.692   -25886927.852 7 -20016173.454 9
 95  2 19 21 42 29.9930000  0  8  2 16 19 18 29  7 31 27
  19788782.778     -744795.299 6   -419532.288 7
  22000227.153    -6748620.640 4  -5130509.200 2
  18643410.411   -26259979.046 7 -20287150.587 9
  19932045.060   -14934092.121 6 -11551226.684 6
  22428230.841     6387066.690 3    138257.031 2
  22326915.778     -259677.814 4
  20088662.677   -20210857.256 6    305602.117 6
  18721844.044   -25953901.062 7 -20068360.337 9
 95  2 19 21 42 59.9930000  0  8  2 16 19 18 29  7 31 27
  19776201.247     -810935.524 6   -471070.078 8
  21999257.419    -6753724.311 3  -5134486.079 2
  18642721.224   -26263593.379 7 -20289966.944 8
  19945607.856   -14862831.684 6 -11495699.110 6
  22445158.099     6475989.761 3    207547.588 2
  22302207.599     -389507.924 4        -0.47611
  20095279.239   -20176087.489 6    332695.442 6
  18709133.521   -26020678.917 7 -20120395.001 9
 95  2 19 21 43 29.9930000  0  7  2 16 19 18  7 31 27
  19763664.325     -876782.137 6   -522379.091 8
  21998384.802    -6758317.998 3  -5138065.580 2
  18642089.317   -26266926.707 7 -20292564.346 9
  19959231.442   -14791229.819 6 -11439905.486 6
  22277505.927     -519323.207 3   -101155.069 1
  20102000.638   -20140777.949 6    360209.364 6
  18696470.864   -26087234.357 7 -20172256.355 9
 95  2 19 21 43 59.9930000  0  7  2 16 19 18  7 31 27
  19751196.505     -942331.204 6   -573456.256 8
  21997605.200    -6762413.970 4  -5141257.240 4
  18641504.146   -26269988.295 7 -20294950.000 8
  19972917.278   -14719316.662 6 -11383869.303 6
  22252804.130     -649133.551 3   -202305.766 1
  20108818.349   -20104948.765 6    388128.214 6
  18683846.044   -26153570.151 7 -20223946.564 9
 95  2 19 21 44 29.9930000  0  7  2 16 19 18  7 31 27
  19738779.638    -1007571.254 6   -624292.625 8
  21996924.513    -6765998.523 3  -5144050.399 3
  18640975.208   -26272782.699 7 -20297127.455 8
  19986658.677   -14647095.999 6 -11327593.493 6
  22228107.778     -778912.055 3   -303431.658 2
  20115735.505   -20068593.549 6    416456.947 6
  18671269.521   -26219668.110 7 -20275451.432 9
 95  2 19 21 44 59.9930000  0  7  2 16 19 18  7 31 27
  19726422.552    -1072523.544 6   -674904.759 7
  21996334.841    -6769108.928 3  -5146474.096 4
  18640486.583   -26275330.709 7 -20299112.912 8
  20000459.755   -14574576.384 6 -11271084.730 7
  22203414.692     -908663.530 3   -404536.488 2
  20122752.060   -20031734.649 6    445178.168 6
  18658730.356   -26285552.569 7 -20326789.956 9
 95  2 19 21 45 29.9930000  0  7  2 16 19 18  7 31 27
  19714111.802    -1137202.965 6   -725304.263 8
  21995827.966    -6771774.635 3  -5148551.267 2
  18640052.192   -26277620.693 7 -20300897.317 8
  20014314.450   -14501766.042 6 -11214349.442 6
  22178730.622    -1038366.732 3   -505603.723 1
  20129860.013   -19994365.742 6    474296.786 6
  18646237.200   -26351204.559 7 -20377947.326 9
 95  2 19 21 45 59.9920000  0  7  2 16 19 18  7 31 27
  19701851.953    -1201629.560 6   -775506.763 8
  21995396.617    -6774021.207 3
  18639667.219   -26279658.126 7
  20028219.047   -14428701.150 6 -11157415.795 7
  22154057.688    -1168033.930 3   -606642.885 1
  20137070.266   -19956486.657 6    503812.950 6
  18633789.461   -26416630.515 7 -20428928.561 9
 95  2 19 21 46 29.9920000  0  7  2 16 19 18  7 31 27
  19689638.195    -1265826.122 6   -825530.020 8
  21995048.594    -6775850.963 3
  18639330.445   -26281424.618 7
  20042178.242   -14355354.289 6 -11100262.432 6
  22129389.234    -1297668.532 3   -707656.693 2
  20144376.070   -19918081.428 6    533739.094 6
  18621380.750   -26481824.136 7 -20479728.770 9
 95  2 19 21 46 59.9920000  0  7  2 16 19 18  7 31 27
  19677464.281    -1329786.510 6   -875369.243 8
  21994777.172    -6777257.024 3
  18639050.305   -26282887.065 7 -20305000.956 9
  20056191.742   -14281700.683 6 -11042870.060 7
  22104730.789    -1427267.396 3   -808642.649 2
  20151791.641   -19879134.382 6    564087.432 6
  18609022.875   -26546771.902 7 -20530337.394 9
 95  2 19 21 47 29.9920000  0  7  2 16 19 18  7 31 27
  19665342.586    -1393485.375 6   -925004.677 7
  21994600.617    -6778219.075 3
  18638830.469   -26284038.645 7 -20305898.289 8
  20070268.586   -14207730.957 6 -10985231.349 6
  22080073.430    -1556829.168 3   -909599.676 2
  20159304.773   -19839634.046 6    594866.913 6
  18596711.578   -26611470.922 7 -20580752.195 9
 95  2 19 21 47 59.9920000  0  7  2 16 19 18  7 31 27
  19653278.516    -1456892.700 6   -974412.937 7
  21994502.703    -6778707.226 3
  18638675.578   -26284873.066 7 -20306548.474 8
  20084406.984   -14133432.512 6 -10927336.495 6
  22055430.375    -1686339.013 3  -1010516.270 1
  20166929.039   -19799577.527 6    626079.767 6
  18584445.773   -26675919.405 7 -20630971.770 9
 95  2 19 21 48 29.9920000  0  7  2 16 19 18  7 31 27
  19641268.656    -1519996.963 6  -1023585.045 7
  21994501.531    -6778718.714 3
  18638574.258   -26285397.029 7 -20306956.755 8
  20098610.586   -14058792.021 6 -10869175.116 6
  22030796.539    -1815785.192 3  -1111383.260 2
  20174652.914   -19758983.509 6    657711.459 6
  18572230.234   -26740123.476 7 -20681000.902 9
 95  2 19 21 48 59.9920000  0  7  2 16 19 18  7 31 27
  19629318.734    -1582790.191 6  -1072514.790 7
  21994593.774    -6778255.011 3
  18638528.891   -26285637.998 7
  20112877.375   -13983820.555 6 -10810755.836 6
  22006170.750    -1945171.992 3  -1212203.974 2
  20182475.680   -19717874.919 6    689744.109 6
  18560056.000   -26804100.581 7 -20730853.169 9
 95  2 19 21 49 29.9920000  0  7  2 16 19 18  7 31 27
  19617426.141    -1645288.668 6  -1121214.863 7
  21994770.438    -6777330.703 3        -0.18612
  18638532.359   -26285617.472 7
  20127204.539   -13908538.506 6 -10752094.542 6
  21981562.391    -2074495.566 3  -1312975.431 2
  20190388.586   -19676281.082 6    722154.877 6
  18547919.414   -26867871.663 7 -20780544.891 9
 95  2 19 21 49 59.9920000  0  7  2 16 19 18  7 31 27
  19605583.688    -1707529.566 6  -1169714.223 8
  21995022.484    -6775963.741 2      1064.953 1
  18638581.203   -26285345.449 7
  20141583.758   -13832967.199 6 -10693207.841 6
  21956964.820    -2203761.359 3  -1413701.846 3
  20198395.602   -19634214.269 6    754934.186 6
  18535822.398   -26931437.363 7 -20830076.591 9
 95  2 19 21 50 29.9920000  0  7  2 16 19 18  7 31 27
  19593789.844    -1769520.364 6  -1218018.704 8
  21995373.844    -6774139.041 2      2486.752 1
  18638684.969   -26284812.237 7 -20306501.070 8
  20156019.734   -13757104.293 6 -10634093.956 6
  21932378.984    -2332966.740 3  -1514381.211 3
  20206494.203   -19591660.727 6    788092.774 6
  18523767.109   -26994784.820 7 -20879438.228 9
 95  2 19 21 50 59.9920000  0  7  2 16 19 18  7 31 27
  19582040.320    -1831261.188 6  -1266128.398 8
  21995811.727    -6771853.197 2      4267.930 4
  18638833.117   -26284017.647 7 -20305881.913 8
  20170509.453   -13680972.394 6 -10574770.432 6
  21907799.063    -2462117.295 3  -1615017.825 3
  20214686.164   -19548612.659 6    821636.701 6
  18511755.305   -27057905.265 7 -20928622.969 9
 95  2 19 21 51 29.9920000  0  7  2 16 19 18  7 31 27
  19570336.805    -1892755.530 6  -1314046.020 8
  21996332.047    -6769110.793 2      6404.815 3
  18639041.813   -26282940.013 7 -20305042.202 8
  20185043.938   -13604582.082 6 -10515245.564 6
  21883236.609    -2591207.340 3  -1715607.302 2
  20222974.117   -19505055.158 6    855577.593 6
  18499791.274   -27120784.096 7 -20977619.431 9
 95  2 19 21 51 59.9920000  0  7  2 16 19 18  7 31 27
  19558681.242    -1953997.945 6  -1361767.354 7
  21996937.352    -6765910.162 3      8898.829 2
  18639303.586   -26281570.525 7 -20303975.074 8
  20199629.070   -13527933.227 6 -10455519.222 6
  21858678.805    -2720243.402 4  -1816154.703 2
  20231362.594   -19460980.399 6    889921.540 6
  18487874.852   -27183405.810 7 -21026415.559 9
 95  2 19 21 52 29.9920000  0  7  2 16 19 18  7 31 27
  19547076.688    -2014969.286 6  -1409277.458 7
  21997633.578    -6762252.042 2     11749.309 4
  18639617.898   -26279906.481 7 -20302678.430 9
  20214263.914   -13451025.539 6 -10395591.203 6
  21834136.367    -2849227.248 4  -1916661.445 2
  20239844.063   -19416408.198 6    924653.103 6
  18476008.781   -27245769.235 7 -21075010.408 9
 95  2 19 21 52 59.9920000  0  7  2 16 19 18  7 31 27
  19535523.633    -2075686.646 6  -1456589.646 7
  21998414.477    -6758169.399 3     14930.548 4
  18639991.117   -26277954.571 7 -20301157.464 8
  20228948.102   -13373860.186 6 -10335462.406 5
  21809600.289    -2978170.748 4  -2017136.743 2
  20248412.852   -19371372.831 6    959745.575 6
  18464187.430   -27307893.592 7 -21123418.983 9
 95  2 19 21 53 29.9920000  0  7  2 16 19 18  7 31 27
  19524017.133    -2136157.519 6  -1503709.783 7
  21999271.219    -6753660.474 3     18443.986 2
  18640419.125   -26275694.143 7 -20299396.096 8
  20243687.352   -13296413.421 6 -10275114.327 5
  21785075.406    -3107058.031 4  -2117568.238 2
  20257071.695   -19325871.225 6    995201.360 7
  18452411.797   -27369772.891 7 -21171636.595 9
 95  2 19 21 53 59.9920000  0  7  2 16 19 18  7 31 27
  19512557.070    -2196374.416 6  -1550632.009 8
  22000214.539    -6748706.957 2     22303.856 3
  18640910.180   -26273122.112 7 -20297391.923 8
  20258481.320   -13218672.512 6 -10214537.045 5
  21760561.578    -3235867.571 4  -2217939.124 4
  20265820.399   -19279897.558 6   1031024.987 7
  18440685.984   -27431392.652 7 -21219651.963 9
 95  2 19 21 54 29.9920000  0  7  2 16 19 18  7 31 27
  19501142.172    -2256368.227 6  -1597380.397 8
  22001231.141    -6743327.725 2     26495.447 2
  18641455.438   -26270257.505 7 -20295159.778 8
  20273327.672   -13140654.666 6 -10153743.963 5
  21736064.320    -3364603.882 5  -2318252.982 1
  20274658.945   -19233455.696 6   1067213.433 7
  18429004.898   -27492772.878 7 -21267480.694 9
 95  2 19 21 54 59.9920000  0  7  2 16 19 18  7 31 27
  19489769.438    -2316138.837 6  -1643954.863 7
  22002341.109    -6737524.420 2     31017.468 3
  18642057.484   -26267081.741 7 -20292685.153 8
  20288225.539   -13062353.183 6 -10092729.863 5
  21711585.399    -3493242.459 5  -2418490.683 2
  20283591.766   -19186512.185 6   1103792.780 6
  18417370.273   -27553904.369 7 -21315115.599 9
 95  2 19 21 55 29.9920000  0  7  2 16 19 18  7 31 27
  19478440.344    -2375675.979 6  -1690347.405 8
  22003533.156    -6731293.909 3     35872.384 2
  18642718.719   -26263603.323 7 -20289974.701 8
  20303180.328   -12983781.828 6 -10031505.482 5
  21687125.852    -3621768.790 3  -2518640.920 2
  20292624.656   -19139046.084 6   1140779.347 6
  18405784.727   -27614784.404 7 -21362554.575 9
 95  2 19 21 55 59.9920000  0  7  2 16 19 18  7 31 27
  19467158.274    -2434962.821 6  -1736544.911 8
  22004798.774    -6724627.393 2     41067.034 2
  18643434.953   -26259850.530 7 -20287050.454 8
  20318182.742   -12904946.850 6  -9970075.673 5
  21662689.399    -3750183.625 4  -2618704.237 2
  20301756.047   -19091051.467 6   1178177.740 6
  18394247.742   -27675411.821 7 -21409796.702 9
 95  2 19 21 56 29.9920000  0  7  2 16 19 18  7 31 27
  19455924.430    -2493992.606 6  -1782542.112 7
  22006147.391    -6717543.563 3     46586.882 3
  18644199.578   -26255829.960 7 -20283917.542 9
  20333229.398   -12825861.910 6  -9908451.096 5
  21638269.313    -3878508.796 4  -2718697.723 3
  20310987.086   -19042545.424 6   1215974.650 6
  18382757.570   -27735798.616 7 -21456851.333 9
 95  2 19 21 56 59.9920000  0  7  2 16 19 18  7 31 27
  19444743.172    -2552737.251 6  -1828317.135 8
  22007569.844    -6710038.466 2     52434.979 3
  18645015.922   -26251544.937 7 -20280578.567 8
  20348325.656   -12746532.034 6  -9846635.658 6
  21613866.430    -4006749.575 4  -2818625.462 2
  20320310.234   -18993553.862 6   1254149.883 6
  18371314.133   -27795942.223 7 -21503716.466 9
 95  2 19 21 57 29.9920000  0  7  2 16 19 18  7 31 27
  19433618.492    -2611191.031 6  -1873865.509 8
  22009084.680    -6702088.555 2     58629.687 1
  18645881.328   -26246996.957 7 -20277034.684 8
  20363471.828   -12666949.253 6  -9784623.155 6
  21589479.781    -4134913.672 4  -2918493.436 2
  20329722.031   -18944086.068 6   1292696.210 6
  18359918.305   -27855829.149 7 -21550381.588 9
 95  2 19 21 57 59.9920000  0  7  2 16 19 18  7 31 27
  19422547.133    -2669366.265 6  -1919196.829 8
  22010680.797    -6693699.241 3     65166.796 2
  18646799.242   -26242174.214 7 -20273276.701 8
  20378660.695   -12587121.920 6  -9722420.082 6
  21565103.797    -4263014.465 5  -3018312.077 2
  20339223.508   -18894169.790 6   1331591.993 6
  18348571.680   -27915451.129 7 -21596840.261 9
 95  2 19 21 58 29.9920000  0  7  2 16 19 18  7 31 27
  19411531.727    -2727258.718 6  -1964307.803 8
  22012359.859    -6684875.149 3     72042.692 2
  18647776.953   -26237030.808 7 -20269268.851 9
  20393898.086   -12507050.389 6  -9660026.736 6
  21540735.641    -4391044.840 5  -3118075.850 2
  20348805.859   -18843814.104 6   1370830.172 6
  18337278.727   -27974801.917 7 -21643087.611 9
 95  2 19 21 58 59.9920000  0  7  2 16 19 18  7 31 27
  19400565.438    -2784892.941 6  -2009217.549 7
  22014116.891    -6675626.309 3     79249.542 3
  18648816.008   -26231574.652 7 -20265017.296 8
  20409180.406   -12426742.727 6  -9597449.389 6
  21516385.461    -4519006.702 4  -3217786.252 3
  20358467.750   -18793030.163 6   1410402.058 6
  18326035.758   -28033883.054 7 -21689124.843 9
 95  2 19 21 59 29.9920000  0  7  2 16 19 18  7 31 27
  19389645.656    -2842290.191 6  -2053942.652 8
  22015958.359    -6665972.527 3     86771.950 2
  18649912.672   -26225809.127 7 -20260524.679 8
  20424507.359   -12346203.844 6  -9534691.867 6
  21492050.469    -4646889.737 5  -3317435.201 3
  20368213.758   -18741814.703 6   1450310.185 6
  18314843.391   -28092696.473 7 -21734953.465 9
 95  2 19 21 59 59.9920000  0  7  2 16 19 18  7 31 27
  19378767.086    -2899447.606 6  -2098480.870 8
  22017867.203    -6655935.212 3     94593.215 2
  18651067.086   -26219747.466 7 -20255801.305 8
  20439876.727   -12265436.657 6  -9471756.447 6
  21467734.102    -4774680.366 5  -3417012.152 2
  20378041.602   -18690167.645 6   1490554.616 6
  18303698.727   -28151259.061 7 -21780586.635 9
 95  2 19 22  0 29.9920000  0  7  2 16 19 18  7 31 27
  19367938.445    -2956357.899 6  -2142826.516 8
  22019853.969    -6645514.407 3    102713.299 3
  18652271.813   -26213407.596 7 -20250861.140 8
  20455289.156   -12184441.972 6  -9408643.758 6
  21443436.289    -4902372.041 5  -3516512.015 3
  20387954.586   -18638077.104 6   1531144.612 6
  18292600.797   -28209574.635 7 -21826027.333 9
 95  2 19 22  0 59.9920000  0  7  2 16 19 18  7 31 27
  19357156.711    -3013026.839 6  -2186984.102 8
  22021907.711    -6634712.919 3    111130.004 3
  18653529.102   -26206808.461 7 -20245718.957 8
  20470746.883   -12103204.166 6  -9345341.636 6
  21419159.602    -5029946.397 5  -3615920.431 4
  20397955.375   -18585525.495 6   1572093.887 6
  18281550.453   -28267637.064 7 -21871270.761 9
 95  2 19 22  1 29.9920000  0  7  2 16 19 18  7 31 27
  19346420.391    -3069443.337 6  -2230944.975 8
  22024036.133    -6623517.757 3    119853.455 2
  18654832.977   -26199950.792 7 -20240375.324 8
  20486254.797   -12021714.022 6  -9281842.874 6
  21394908.203    -5157385.328 5  -3715223.314 4
  20408045.039   -18532498.732 6   1613413.401 6
  18270547.422   -28325457.843 7 -21916325.897 9
 95  2 19 22  1 59.9920000  0  7  2 16 19 18  7 31 27
  19335731.625    -3125608.514 6  -2274710.020 8
  22026246.617    -6611917.421 3    128892.682 3
  18656187.719   -26192834.402 7 -20234830.085 8
  20501808.125   -11939989.030 6  -9218161.118 6
  21370677.727    -5284701.707 5  -3814430.685 4
  20418225.594   -18479002.724 6   1655098.564 6
  18259591.305   -28383037.682 7 -21961193.284 9
 95  2 19 22  2 29.9920000  0  7  2 16 19 18  7 31 27
  19325090.773    -3181530.712 6  -2318285.728 8
  22028533.727    -6599894.179 3    138261.411 1
  18657595.195   -26185437.885 7 -20229066.568 8
  20517404.094   -11858027.458 6  -9154295.014 6
  21346473.570    -5411895.977 5  -3913542.924 4
  20428493.844   -18425037.183 6   1697149.608 6
  18248684.703   -28440354.367 7 -22005855.623 9
 95  2 19 22  2 59.9920000  0  7  2 16 19 18  7 31 27
  19314492.836    -3237209.071 6  -2361671.427 8
  22030900.070    -6587446.474 3    147960.846 1
  18659060.250   -26177739.862 7 -20223068.116 8
  20533045.820   -11775826.180 6  -9090242.136 6
  21322295.414    -5538954.782 5  -4012549.605 3
  20438853.555   -18370599.883 6   1739568.252 6
  18237829.930   -28497404.107 7 -22050309.938 9
 95  2 19 22  3 29.9920000  0  7  2 16 19 18  7 31 27
  19303942.141    -3292635.494 6  -2404860.816 8
  22033348.047    -6574572.793 3    157992.249 2
  18660583.063   -26169735.614 7 -20216831.049 8
  20548730.008   -11693409.586 6  -9026021.473 6
  21298142.086    -5665882.745 5  -4111454.320 4
  20449297.344   -18315712.252 6   1782337.804 6
  18227027.703   -28554172.447 7 -22094544.991 8
 95  2 19 22  3 59.9920000  0  7  2 16 19 18  7 31 27
  19293444.727    -3347812.191 6  -2447855.612 8
  22035880.695    -6561285.196 3    168346.216 2
  18662167.688   -26161405.735 7 -20210340.244 8
  20564454.899   -11610772.520 6  -8961629.014 6
  21274012.984    -5792687.653 5  -4210263.114 4
  20459828.531   -18260384.742 6   1825450.113 6
  18216281.711   -28610639.578 7 -22138545.328 9
 95  2 19 22  4 29.9920000  0  7  2 16 19 18  7 31 27
  19282994.297    -3402738.416 6  -2490655.230 8
  22038481.188    -6547607.069 3    179004.437 1
  18663816.398   -26152747.468 7 -20203593.557 8
  20580223.055   -11527907.992 6  -8897059.315 6
  21249906.649    -5919366.601 5  -4308973.800 4
  20470439.563   -18204625.936 6   1868898.511 6
  18205591.805   -28666811.748 7 -22182315.825 9
 95  2 19 22  4 59.9920000  0  7  2 16 19 18  7 31 27
  19272594.469    -3457398.785 6  -2533247.691 8
  22041153.391    -6533559.295 3    189950.703 3
  18665523.766   -26143772.942 7 -20196600.432 8
  20596031.750   -11444837.972 6  -8832329.498 6
  21225822.016    -6045919.001 5  -4407585.864 4
  20481127.797   -18148452.727 6   1912669.814 6
  18194955.266   -28722699.804 7 -22225864.945 9
 95  2 19 22  5 29.9920000  0  7  2 16 19 18  7 31 27
  19262242.984    -3511785.440 6  -2575626.874 8
  22043904.938    -6519131.168 3    201193.355 2
  18667291.430   -26134485.505 7 -20189363.484 8
  20611879.430   -11361557.971 6  -8767436.055 5
  21201764.680    -6172337.482 5  -4506093.570 5
  20491895.852   -18091870.324 6   1956759.970 6
  18184375.414   -28778298.618 7 -22269188.677 9
 95  2 19 22  5 59.9920000  0  7  2 16 19 18  7 31 27
  19251942.859    -3565910.444 6  -2617802.160 8
  22046720.969    -6504319.396 3    212734.950 2
  18669116.211   -26124887.497 7 -20181884.521 8
  20627767.195   -11278062.813 6  -8702374.952 5
  21177737.461    -6298621.657 5  -4604496.640 4
  20502740.320   -18034871.442 6   2001174.657 5
  18173848.664   -28833624.696 7 -22312299.901 9
 95  2 19 22  6 29.9920000  0  7  2 16 19 18  7 31 27
  19241692.945    -3619767.118 6  -2659768.366 8
  22049616.359    -6489112.224 3    224584.651 1
  18671002.234   -26114989.131 7 -20174171.524 8
  20643691.156   -11194374.128 6  -8637163.040 5
  21153734.070    -6424757.853 5  -4702784.403 4
  20513667.367   -17977454.107 6   2045915.393 5
  18163376.172   -28888664.998 7 -22355188.433 9
 95  2 19 22  6 59.9920000  0  7  2 16 19 18  7 31 27
  19231496.102    -3673374.650 6  -2701540.436 8
  22052585.047    -6473509.781 3    236742.388 2
  18672938.992   -26104806.021 7 -20166236.648 8
  20659651.570   -11110499.743 6  -8571806.432 5
  21129757.891    -6550749.113 5  -4800959.256 4
  20524672.195   -17919624.338 6   2090977.520 5
  18152953.891   -28943425.568 7 -22397858.993 9
 95  2 19 22  7 29.9920000  0  7  2 16 19 18  7 31 27
  19221339.555    -3726752.851 6  -2743133.804 8
  22055631.063    -6457512.979 3    249207.344 2
  18674931.477   -26094332.271 7 -20158075.292 8
  20675652.297   -11026421.117 6  -8506290.661 5
  21105810.961    -6676602.612 5  -4899026.758 4
  20535756.899   -17861375.882 6   2136365.887 5
  18142586.055   -28997905.277 7 -22440310.710 9
 95  2 19 22  7 59.9920000  0  7  2 16 19 18  7 31 27
  19211219.156    -3779905.661 6  -2784551.546 8
  22058742.977    -6441142.976 3    261963.137 3
  18676980.258   -26083569.021 7 -20149688.350 8
  20691690.273   -10942145.970 6  -8440621.781 5
  21081888.031    -6802326.495 5  -4996993.275 4
  20546920.672   -17802708.046 6   2182081.054 5
  18132275.656   -29052100.931 7 -22482541.093 9
 95  2 19 22  8 29.9920000  0  7  2 16 19 18  7 31 27
  19201154.438    -3832811.621 6  -2825776.954 8
  22061928.883    -6424404.431 3    275006.158 1
  18679084.055   -26072505.077 7 -20141067.106 8
  20707764.672   -10857673.211 6  -8374798.921 5
  21057986.719    -6927905.505 5  -5094846.918 4
  20558165.899   -17743610.888 6   2228130.764 5
  18122017.469   -29106001.796 7 -22524541.747 9
 95  2 19 22  8 59.9920000  0  7  2 16 19 18  7 31 27
  19191129.734    -3885485.603 6  -2866821.591 8
  22065181.477    -6407311.359 3    288325.406 1
  18681246.594   -26061138.964 7 -20132210.403 8
  20723876.570   -10773001.896 6  -8308821.327 5
  21034114.828    -7053343.979 5  -5192591.050 4
  20569491.172   -17684100.238 6   2274502.656 5
  18111811.133   -29159626.724 7 -22566327.396 9
 95  2 19 22  9 29.9920000  0  7  2 16 19 18  7 31 27
  19181147.867    -3937929.321 6  -2907686.798 8
  22068496.078    -6389867.096 3    301918.247 3
  18683470.594   -26049466.609 7 -20123115.072 8
  20740023.758   -10688153.047 6  -8242705.389 5
  21010271.531    -7178648.519 5  -5290230.837 3
  20580892.891   -17624182.291 6   2321191.942 5
  18101661.125   -29212971.893 7 -22607895.051 9
 95  2 19 22  9 59.9920000  0  7  2 16 19 18  7 31 27
  19171219.109    -3990123.798 6  -2948357.795 9
  22071890.070    -6372059.275 3    315794.376 1
  18685750.438   -26037484.018 7 -20113777.998 8
  20756201.328   -10603135.636 6  -8176458.094 5
  20986457.789    -7303793.981 5  -5387746.665 4
  20592373.703   -17563852.105 6   2368202.438 5
  18091565.742   -29266020.756 7 -22649231.808 9
 95  2 19 22 10 29.9920000  0  7  2 16 19 18  7 31 27
  19161329.773    -4042075.834 6  -2988839.870 9
  22075344.383    -6353881.555 3    329958.801 2
  18688088.492   -26025189.662 7 -20104197.989 8
  20772413.102   -10517946.983 5  -8110077.393 5
  20962672.898    -7428781.636 5  -5485139.540 3
  20603930.938   -17503123.850 6   2415523.122 5
  18081530.906   -29318763.001 7 -22690329.642 9
 95  2 19 22 10 59.9920000  0  7  2 16 19 18  7 31 27
  19151487.148    -4093810.888 6  -3029152.880 8
  22078881.469    -6335350.255 3    344398.784 2
  18690486.945   -26012597.924 7 -20094386.251 8
  20788654.219   -10432594.577 5  -8043569.098 5
  20938916.055    -7553626.521 5  -5582421.158 4
  20615559.164   -17442023.093 6   2463134.057 5
  18071551.016   -29371196.434 7 -22731186.850 9
 95  2 19 22 11 29.9920000  0  7  2 16 19 18  7 31 27
  19141688.977    -4145299.332 7  -3069273.718 9
  22082472.500    -6316449.476 3    359126.598 3
  18692938.695   -25999709.626 7 -20084343.432 8
  20804934.844   -10347055.845 5  -7976915.611 5
  20915189.461    -7678317.712 5  -5679582.998 4
  20627260.500   -17380525.337 6   2511054.347 6
  18061635.820   -29423302.389 7 -22771788.878 9
 95  2 19 22 11 59.9920000  0  7  2 16 19 18  7 31 27
  19131934.320    -4196548.518 6  -3109208.118 8
  22086134.344    -6297190.577 3    374133.461 2
  18695442.164   -25986544.996 7 -20074085.286 8
  20821245.359   -10261324.160 5  -7910111.756 5
  20891488.703    -7802856.099 5  -5776625.777 5
  20639038.180   -17318640.226 6   2559276.456 6
  18051782.430   -29475085.772 7 -22812139.545 9
 95  2 19 22 12 29.9920000  0  7  2 16 19 18  7 31 27
  19122229.102    -4247568.486 7  -3148963.915 8
  22089870.531    -6277569.157 3    389422.786 1
  18698002.273   -25973096.959 7 -20063606.308 8
  20837600.414   -10175393.200 5  -7843152.620 5
  20867817.242    -7927241.225 5  -5873549.133 5
  20650887.891   -17256364.394 6   2607803.032 6
  18041985.430   -29526557.007 7 -22852246.984 8
 95  2 19 22 12 59.9920000  0  7  2 16 19 18  7 31 27
  19112563.789    -4298363.227 7  -3188544.209 9
  22093670.094    -6257589.793 2    404991.059 2
  18700614.039   -25959375.200 7 -20052914.040 8
  20853989.195   -10089272.467 5  -7776045.638 5
  20844178.883    -8051467.793 5  -5970348.932 5
  20662811.273   -17193687.743 6   2656641.935 6
  18032246.250   -29577746.491 7 -22892134.874 8
 95  2 19 22 13 29.9920000  0  7  2 16 19 18  7 31 27
  19102937.070    -4348934.543 7  -3227950.397 9
  22097538.992    -6237262.752 2    420830.293 1
  18703276.024   -25945381.899 7 -20042010.186 8
  20870409.242   -10002973.113 5  -7708799.461 5
  20820568.195    -8175541.322 5  -6067029.476 5
  20674816.516   -17130606.229 6   2705796.305 6
  18022557.539   -29628669.671 7 -22931815.257 9
 95  2 19 22 13 59.9920000  0  7  2 16 19 18  7 31 27
  19093352.516    -4399298.094 7  -3267194.693 8
  22101470.844    -6216605.758 3    436926.639 2
  18705994.367   -25931095.423 7 -20030877.869 9
  20886860.149    -9916521.720 5  -7641434.815 5
  20796987.031    -8299457.911 5  -6163587.704 5
  20686896.273   -17067136.779 5   2755252.963 6
  18012915.250   -29679337.293 7 -22971296.498 9
 95  2 19 22 14 29.9920000  0  7  2 16 19 18  7 31 27
  19083816.461    -4449424.701 7  -3306254.358 9
  22105466.602    -6195608.972 3    453287.720 2
  18708775.914   -25916482.201 7 -20019490.955 8
  20903339.852    -9829922.117 5  -7573954.676 5
  20773441.352    -8423200.616 5  -6260010.454 5
  20699049.649   -17003266.815 5   2805021.716 6
  18003322.766   -29729736.874 7 -23010568.891 8
 95  2 19 22 14 59.9920000  0  7  2 16 19 18  7 31 27
  19074324.148    -4499309.954 7  -3345125.966 8
  22109524.992    -6174286.564 3    469902.531 1
  18711617.281   -25901544.915 7 -20007851.520 8
  20919843.649    -9743188.972 5  -7506370.482 5
  20749927.688    -8546773.570 5  -6356300.926 5
  20711276.539   -16939010.047 5   2855091.870 6
  17993782.164   -29779861.117 7 -23049626.726 9
 95  2 19 22 15 29.9920000  0  7  2 16 19 18  7 31 27
  19064879.695    -4548945.912 7
  22113646.492    -6152634.588 3    486774.086 1
  18714526.531   -25886260.064 7 -19995941.253 8
  20936379.234    -9656316.149 5  -7438677.454 5
  20726444.984    -8670164.446 5  -6452449.522 5
  20723576.938   -16874376.298 5   2905455.788 6
  17984304.086   -29829673.644 7
 95  2 19 22 15 59.9920000  0  7  2 16 19 18  7 31 27
  19055481.820    -4598334.283 7
  22117831.539    -6130644.961 3    503908.835 2
  18717502.328   -25870624.003 7 -19983757.320 8
  20952935.234    -9569304.304 5  -7370876.084 4
  20703000.336    -8793356.636 5  -6548443.298 5
  20735945.320   -16809382.217 6   2956100.479 6
  17974887.078   -29879160.345 7
 95  2 19 22 16 29.9920000  0  7  2 16 19 18  7 31 27
  19046127.852    -4647486.151 7
  22122078.758    -6108322.082 3    521303.196 1
  18720539.586   -25854659.053 7 -19971317.110 8
  20969521.953    -9482139.963 5  -7302955.870 5
  20679597.047    -8916349.164 5  -6644281.501 5
  20748381.734   -16744026.877 6   3007026.675 6
  17965535.523   -29928306.039 7
 95  2 19 22 16 59.9920000  0  7  2 16 19 18  7 31 27
  19036817.234    -4696421.835 7  -3498719.548 9
  22126392.766    -6085667.514 3    538956.083 2
  18723638.492   -25838374.934 7 -19958628.192 8
  20986141.461    -9394803.040 5  -7234901.190 5
  20656227.945    -9039136.435 5  -6739959.781 5
  20760883.078   -16678318.414 6   3058228.037 6
  17956249.125   -29977105.715 7 -23203323.763 8
 95  2 19 22 17 29.9920000  0  7  2 16 19 18  7 31 27
  19027542.609    -4745153.800 7  -3536692.490 9
  22130760.898    -6062691.293 2    556859.548 2
  18726797.352   -25821783.275 7 -19945699.637 8
  21002789.930    -9307299.246 5  -7166716.490 5
  20632904.367    -9161722.957 5  -6835481.626 5
  20773453.875   -16612267.768 6   3109696.026 6
  17947028.414   -30025565.934 7 -23241084.953 9
 95  2 19 22 17 59.9920000  0  7  2 16 19 18  7 31 27
  19018306.922    -4793670.613 7  -3574497.779 9
  22135184.711    -6039389.726 2    575016.530 1
  18730009.672   -25804900.796 7 -19932544.456 8
  21019475.172    -9219633.965 5  -7098405.949 5
  20609610.445    -9284115.136 5  -6930852.034 5
  20786090.406   -16545867.590 6   3161436.385 5
  17937873.289   -30073695.769 7 -23278588.708 9
 95  2 19 22 18 29.9920000  0  7  2 16 19 18  7 31 27
  19009116.531    -4841969.359 7  -3612133.149 8
  22139685.969    -6015760.378 3    593428.951 1
  18733275.641   -25787737.403 7 -19919170.392 8
  21036183.508    -9131817.486 5  -7029977.601 5
  20586355.969    -9406327.062 5  -7026081.987 5
  20798790.164   -16479122.097 6   3213445.812 5
  17928772.898   -30121506.444 7 -23315843.767 8
 95  2 19 22 18 59.9920000  0  7  2 16 19 18  7 31 27
  18999969.570    -4890053.286 7  -3649601.128 9
  22144251.258    -5991813.742 2    612088.632 2
  18736591.688   -25770305.218 7 -19905586.883 8
  21052913.570    -9043892.141 5  -6961464.406 5
  20563131.328    -9528378.848 5  -7121187.162 5
  20811551.477   -16412070.501 6   3265693.769 5
  17919729.359   -30169018.392 7 -23352866.057 9
 95  2 19 22 19 29.9920000  0  7  2 16 19 18  7 31 27
  18990863.016    -4937889.010 7  -3686875.696 9
  22148864.242    -5967538.213 1    631004.570 2
  18739964.156   -25752587.334 7 -19891780.744 9
  21069669.289    -8955862.978 5  -6892870.309 4
  20539939.258    -9650256.910 5  -7216156.980 5
  20824372.031   -16344694.477 6   3318194.538 5
  17910751.188   -30216212.221 7 -23389640.445 8
 95  2 19 22 19 59.9920000  0  7  2 16 19 18  7 31 27
  18981816.547    -4985446.771 7  -3723933.663 9
  22153554.836    -5942913.838 2    650192.290 2
  18743395.055   -25734555.307 7 -19877729.817 9
  21086444.141    -8867710.234 5  -6824179.917 3
  20516782.742    -9771940.171 6  -7310975.008 5
  20837260.047   -16276964.684 6   3370970.951 5
  17901831.336   -30263067.623 7 -23426151.140 8
 95  2 19 22 20 29.9920000  0  7  2 16 19 18  7 31 27
  18972815.422    -5032730.069 7  -3760777.770 8
  22158301.375    -5917950.538 2    669644.129 1
  18746891.281   -25716191.848 7 -19863420.636 9
  21103243.578    -8779426.267 5  -6755387.282 4
  20493666.398    -9893419.303 6  -7405633.953 5
  20850218.719   -16208866.924 6   3424034.107 5
  17892984.438   -30309576.496 7 -23462391.798 8
 95  2 19 22 20 59.9920000  0  7  2 16 19 18  7 31 27
  18963875.828    -5079724.417 7  -3797396.716 8
  22163114.898    -5892657.662 2    689352.784 1
  18750453.484   -25697467.649 7 -19848830.355 9
  21120073.813    -8690983.260 5  -6686470.729 4
  20470592.109   -10014675.244 6  -7500119.000 5
  20863254.945   -16140367.737 6   3477410.063 5
  17884198.602   -30355724.193 7 -23498351.033 9
 95  2 19 22 21 29.9920000  0  6  2 19 18  7 31 27
  18954983.094    -5126442.115 7  -3833800.095 8
  18754084.711   -25678383.003 7 -19833959.214 8
  21136936.836    -8602360.757 5  -6617414.298 4
  20447560.695   -10135705.363 6  -7594428.082 5
  20876371.555   -16071434.233 6   3531124.441 5
  17875489.430   -30401518.607 7 -23534034.984 9
 95  2 19 22 21 59.9920000  0  6  2 19 18  7 31 27
  18946141.648    -5172904.674 7  -3870004.662 8
  18757781.086   -25658958.698 7 -19818823.405 8
  21153832.695    -8513570.607 5  -6548227.252 5
  20424573.391   -10256511.106 6  -7688562.309 5
  20889571.688   -16002078.227 6   3585168.026 5
  17866836.352   -30446978.100 7 -23569457.943 8
 95  2 19 22 22 29.9920000  0  7  2 16 19 18  7 31 27
  18937350.914    -5219120.002 7  -3906016.583 8
  22177914.523          -0.00412
  18761540.680   -25639204.227 7 -19803430.322 8
  21170764.828    -8424614.640 5  -6478910.978 5
  20401629.320   -10377080.753 6  -7782512.588 5
  20902844.422   -15932324.784 6   3639521.332 5
  17858247.758   -30492101.035 7 -23604618.651 9
 95  2 19 22 22 59.9910000  0  8  2 16 19 18 15  7 31 27
  18928599.237    -5265094.830 7  -3941841.103 9
  22182962.534       26519.689 2        -0.05111
  18765359.894   -25619134.187 7 -19787791.342 8
  21187717.026    -8335511.040 5  -6409479.695 5
  22215478.894          -0.12812
  20378732.136   -10497399.011 6  -7876266.962 5
  20916188.519   -15862206.791 6   3694158.689 5
  17849728.034   -30536890.517 7 -23639519.533 9
 95  2 19 22 23 29.9910000  0  7  2 19 18 15  7 31 27
  18919888.034    -5310861.057 7  -3977503.074 8
  18769231.487   -25598781.211 7 -19771931.904 8
  21204696.167    -8246289.534 5  -6339956.519 5
  22199343.526      -84769.928 3
  20355882.191   -10617480.209 6  -7969836.624 5
  20929590.862   -15791763.215 6   3749049.737 5
  17841266.714   -30581352.992 7 -23674165.603 9
 95  2 19 22 23 59.9910000  0  7  2 19 18 15  7 31 27
  18911220.347    -5356411.352 7  -4012996.788 8
  18773161.714   -25578135.474 7 -19755844.332 8
  21221692.386    -8156960.104 5  -6270349.265 5
  22183251.355     -169342.787 3
  20333075.894   -10737314.969 5  -8063214.258 5
  20943052.878   -15721032.080 6   3804164.854 5
  17832870.878   -30625478.382 7 -23708549.006 9
 95  2 19 22 24 29.9910000  0  8  2 16 19 18 15  7 31 27
  18902611.058    -5401652.753 7  -4048249.808 8
  22198465.011          -0.50613
  18777170.003   -25557075.320 7 -19739433.841 8
  21238737.862    -8067413.414 5  -6200572.712 5
  22167211.878     -253602.258 3        -0.01411
  20310337.940   -10856803.308 5  -8156321.959 5
  20956583.722   -15649920.238 6   3859576.631 5
  17824560.175   -30669160.030 7 -23742586.646 9
 95  2 19 22 24 59.9910000  0  8  2 16 19 18 15  7 31 27
  18894038.222    -5446708.831 7  -4083358.417 8
  22203765.347       27843.744 2
  18781234.183   -25535708.052 7 -19722784.040 8
  21255797.487    -7977761.195 5  -6130713.925 4
  22151220.128     -337654.336 3    -65494.988 1
  20287644.581   -10976064.285 5  -8249252.486 5
  20970171.370   -15578524.317 6   3915209.754 5
  17816308.331   -30712510.665 7 -23776366.344 9
 95  2 19 22 25 29.9910000  0  8  2 16 19 18 15  7 31 27
  18885499.120    -5491593.252 7  -4118333.273 8
  22209118.284       55974.825 2        -0.01811
  18785358.769   -25514037.718 7 -19705898.085 8
  21272872.230    -7888010.694 5  -6060778.555 4
  22135268.456     -421508.653 3   -130835.905 2
  20264988.534   -11095124.844 5  -8342026.854 5
  20983810.581   -15506844.841 6   3971063.854 5
  17808118.339   -30755545.796 7 -23809900.196 9
 95  2 19 22 25 59.9910000  0  8  2 16 19 18 15  7 31 27
  18876995.058    -5536278.790 7  -4153153.159 8
  22214531.487       84392.758 3     22143.706 1
  18789544.198   -25492045.215 7 -19688761.087 8
  21289973.089    -7798154.087 5  -5990760.496 4
  22119357.034     -505145.391 3   -196007.298 2
  20242369.651   -11213974.556 5  -8434636.921 6
  20997509.331   -15434854.946 6   4027159.840 5
  17799986.425   -30798271.130 7 -23843192.654 9
 95  2 19 22 26 29.9910000  0  8  2 16 19 18 15  7 31 27
  18868528.316    -5580761.944 7  -4187815.344 8
  22219987.620      113095.601 3     44509.473 2
  18793788.011   -25469744.563 7 -19671383.969 8
  21307090.909    -7708207.493 5  -5920672.332 4
  22103478.222     -588564.283 3   -261008.911 2
  20219796.909   -11332607.083 5  -8527077.746 5
  21011273.066   -15362537.447 6   4083511.078 5
  17791919.089   -30840683.198 7 -23876241.011 9
 95  2 19 22 26 59.9910000  0  8  2 16 19 18 15  7 31 27
  18860108.269    -5625020.606 7  -4222302.603 8
  22225502.034      142077.812 3     67093.029 1
  18798088.464   -25447143.745 7 -19653772.967 8
  21324222.292    -7618183.973 5  -5850524.196 4
  22087640.151     -671765.381 3   -325840.792 1
  20197260.683   -11451024.964 5  -8619351.325 6
  21025095.573   -15289892.507 5   4140117.476 5
  17783908.206   -30882764.857 7 -23909031.903 9
 95  2 19 22 27 29.9910000  0  8  2 16 19 18 15  7 31 27
  18851729.472    -5669039.848 7  -4256603.298 8
  22231064.667      171324.939 3
  18802445.620   -25424246.732 7 -19635931.154 8
  21341363.120    -7528098.932 5  -5780328.160 5
  22071847.315     -754752.860 3   -390506.235 2
  20174770.394   -11569227.379 5  -8711457.009 6
  21038979.542   -15216938.174 5   4196964.940 5
  17775967.386   -30924507.924 7 -23941558.965 9
 95  2 19 22 27 59.9910000  0  8  2 16 19 18 15  7 31 27
  18843403.745    -5712807.695 7  -4290708.096 8
  22236679.987      200827.360 3
  18806857.862   -25401055.490 7 -19617860.080 8
  21358516.339    -7437958.514 5  -5710088.963 5
  22056100.440     -837525.307 4   -455004.107 1
  20152319.026   -11687206.886 6  -8803389.007 6
  21052914.292   -15143694.481 5   4254037.882 5
  17768087.847   -30965894.736 7 -23973808.424 8
 95  2 19 22 28 29.9910000  0  8  2 16 19 18 15  7 31 27
  18835117.964    -5756339.085 7  -4324628.646 8
  22242342.550      230585.691 3
  18811329.722   -25377556.250 7 -19599548.997 8
  21375684.120    -7347743.033 5  -5639791.290 4
  22040390.534     -920079.209 4   -519331.727 1
  20129910.237   -11804966.783 6  -8895149.888 6
  21066907.769   -15070171.905 5   4311328.132 5
  17760290.605   -31006892.515 7 -24005754.736 9
 95  2 19 22 28 59.9910000  0  8  2 16 19 18 15  7 31 27
  18826874.214    -5799651.105 7  -4358378.252 8
  22248056.886      260593.089 3        -0.17111
  18815861.847   -25353741.784 7 -19580992.281 8
  21392870.722    -7257440.228 5  -5569425.568 3
  22024726.589    -1002413.002 4   -583487.800 2
  20107541.534   -11922512.668 6  -8986743.993 6
  21080953.651   -14996372.425 5   4368834.158 5
  17752560.042   -31047508.697 7 -24037403.703 9
 95  2 19 22 29 29.9910000  0  8  2 16 19 18 15  7 31 27
  18818669.456    -5842780.763 7  -4391985.769 8
  22253809.558      290819.551 4     23552.818 1
  18820451.987   -25329621.782 7 -19562197.492 8
  21410065.628    -7167053.683 5  -5498994.589 4
  22009094.706    -1084537.438 5   -647480.796 2
  20085213.565   -12039847.255 6  -9078173.451 6
  21095045.698   -14922303.339 5   4426550.265 5
  17744897.667   -31087767.573 7 -24068774.237 9
 95  2 19 22 29 59.9910000  0  8  2 16 19 18 15  7 31 27
  18810494.300    -5885737.826 7  -4425458.797 8
  22259605.362      321285.852 3
  18825103.776   -25305176.861 7 -19543149.513 8
  21427288.175    -7076574.365 5  -5428491.299 3
  21993508.901    -1166434.699 4   -711296.745 1
  20062928.222   -12156962.844 6  -9169432.270 6
  21109191.394   -14847944.289 5   4484492.307 5
  17737305.097   -31127662.547 7 -24099861.217 9
 95  2 19 22 30 29.9910000  0  8  2 16 19 18 15  7 31 27
  18802345.995    -5928557.179 7  -4458824.510 8
  22265447.198      351989.241 3
  18829814.698   -25280425.088 7 -19523862.436 8
  21444515.003    -6986026.720 5  -5357934.740 2
  21977970.956    -1248119.047 5   -774946.798 2
  20040679.933   -12273874.104 6  -9260531.866 6
  21123398.730   -14773299.012 5   4542657.373 5
  17729776.120   -31167233.418 7 -24130695.647 9
 95  2 19 22 30 59.9910000  0  8  2 16 19 18 15  7 31 27
  18794227.394    -5971214.161 7  -4492063.694 8
  22271337.667      382937.037 3
  18834581.597   -25255366.279 7 -19504336.108 8
  21461756.440    -6895430.346 5  -5287340.232 3
  21962467.440    -1329576.180 4   -838419.805 1
  20018472.730   -12390563.329 6  -9351458.449 6
  21137657.519   -14698367.316 5   4601045.655 5
  17722308.792   -31206487.940 7 -24161283.572 9
 95  2 19 22 31 29.9910000  0  8  2 16 19 18 15  7 31 27
  18786144.644    -6013700.289 7  -4525169.753 8
  22277274.823      414120.220 3
  18839406.480   -25230015.337 7 -19484582.139 8
  21478999.612    -6804816.701 5  -5216732.268 2
  21947008.909    -1410811.223 4   -901719.812 2
  19996310.370   -12507025.570 6  -9442208.169 6
  21151965.886   -14623182.452 5   4659631.192 5
  17714896.636   -31245430.003 7 -24191628.024 9
 95  2 19 22 31 59.9910000  0  7  2 19 18 15  7 31 27
  18778094.980    -6056000.436 7  -4558130.883 8
  18844285.925   -25204375.939 7 -19464603.402 8
  21496247.769    -6714194.539 5  -5146117.660 2
  21931587.370    -1491820.035 4   -964843.476 1
  19974194.878   -12623252.530 6  -9532774.561 6
  21166319.745   -14547758.300 5   4718403.183 5
  17707543.315   -31284064.614 7 -24221732.906 9
 95  2 19 22 32 29.9910000  0  7  2 19 18 15  7 31 27
  18770081.198    -6098104.666 7  -4590939.356 8
  18849218.667   -25178457.869 7 -19444407.510 8
  21513493.417    -6623554.532 4  -5075489.157 4
  21916218.058    -1572598.300 4  -1027787.522 1
  19952125.862   -12739228.957 6  -9623145.714 6
  21180716.394   -14472097.894 5   4777359.284 5
  17700255.761   -31322382.518 7 -24251590.997 9
 95  2 19 22 32 59.9910000  0  7  2 19 18 15  7 31 27
  18762111.612    -6140000.027 7  -4623585.073 8
  18854203.409   -25152254.629 7 -19423989.413 8
  21530747.659    -6532885.768 3  -5004838.285 3
  21900892.995    -1653138.695 4  -1090546.215 2
  19930106.550   -12854936.405 6  -9713307.290 6
  21195158.706   -14396209.336 5   4836493.165 5
  17693024.714   -31360357.756 7 -24281182.079 9
 95  2 19 22 33 29.9910000  0  7  2 19 18 15  7 31 27
  18754177.855    -6181685.353 7  -4656067.126 8
  18859246.800   -25125752.574 7 -19403338.476 8
  21548012.511    -6442157.270 4  -4934140.870 4
  21885611.542    -1733431.302 4  -1153111.816 2
  19908142.940   -12970361.263 6  -9803248.664 6
  21209647.276   -14320068.614 5   4895823.528 5
  17685866.519   -31397981.628 7 -24310499.365 9
 95  2 19 22 33 59.9910000  0  8  2 26 19 18 15  7 31 27
  18746280.573    -6223184.284 7  -4688403.938 8
  22293132.167          -0.72313
  18864348.316   -25098950.813 7 -19382454.004 8
  21565289.550    -6351366.894 4  -4863395.213 3
  21870381.878    -1813487.750 4  -1215493.380 3
  19886224.519   -13085538.515 6  -9892997.100 6
  21224184.917   -14243672.136 5   4955353.186 5
  17678772.136   -31435269.384 7 -24339554.742 9
 95  2 19 22 34 29.9910000  0  8  2 26 19 18 15  7 31 27
  18738417.409    -6264497.269 7  -4720595.856 8
  22272354.925     -109172.084 3
  18869502.448   -25071858.800 7 -19361343.357 8
  21582575.730    -6260522.036 5  -4792607.063 1
  21855192.112    -1893308.775 4  -1277691.515 2
  19864350.589   -13200485.393 6  -9982566.029 6
  21238771.261   -14167018.228 5   5015083.436 5
  17671741.550   -31472217.063 7 -24368345.134 9
 95  2 19 22 34 59.9910000  0  8  2 26 19 18 15  7 31 27
  18730595.058    -6305610.718 7  -4752632.302 8
  22251619.401     -218123.959 3        -0.47812
  18874715.691   -25044468.709 7 -19340000.445 8
  21599873.972    -6169627.799 5  -4721780.417 2
  21840046.589    -1972886.083 4  -1339699.700 3
  19842521.386   -13315199.061 6 -10071953.240 6
  21253407.886   -14090110.795 5   5075011.242 5
  17664773.589   -31508829.663 7 -24396874.416 9
 95  2 19 22 35 29.9910000  0  8  2 26 19 18 15  7 31 27
  18722809.800    -6346520.454 7  -4784509.999 8
  22230933.511     -326825.137 3    -84702.612 2
  18879986.737   -25016769.028 7 -19318416.291 8
  21617179.894    -6078682.614 5  -4650914.121 2
  21824949.526    -2052205.362 4  -1401506.818 2
  19820736.136   -13429681.111 6 -10161159.952 6
  21268095.550   -14012923.581 5   5135157.052 5
  17657871.667   -31545102.627 7 -24425139.054 9
 95  2 19 22 35 59.9910000  0  8  2 26 19 18 15  7 31 27
  18715062.362    -6387223.547 7  -4816226.682 8
  22210299.847     -435265.909 5   -169201.838 1
  18885314.886   -24988766.397 7 -19296596.075 8
  21634495.776    -5987691.344 4  -4580011.868 2
  21809906.948    -2131260.261 4  -1463107.963 4
  19798993.737   -13543933.644 6 -10250187.847 5
  21282836.855   -13935461.013 5   5195517.439 4
  17651036.339   -31581019.939 7 -24453126.570 9
 95  2 19 22 36 29.9910000  0  8  2 26 19 18 15  7 31 27
  18707359.667    -6427706.806 7  -4847772.064 8
  22189713.034     -543436.197 4   -253490.287 2
  18890701.566   -24960466.335 7 -19274544.100 7
  21651819.761    -5896653.556 3  -4509073.435 2
  21794916.823    -2210037.934 3  -1524493.110 3
  19777303.394   -13657922.099 6 -10339009.965 5
  21297627.862   -13857725.648 5   5256090.375 2
  17644275.753   -31616556.011 7 -24480816.995 9
 95  2 19 22 36 59.9910000  0  8  2 26 19 18 15  7 31 27
  18699698.433    -6467974.380 7  -4879149.387 8
  22169184.105     -651329.068 4   -337562.557 2
  18896146.417   -24931847.440 7 -19252243.682 8
  21669156.089    -5805561.076 3  -4438092.404 3
  21779979.597    -2288528.650 4  -1585654.620 3
  19755667.050   -13771620.419 6 -10427605.994 6
  21312471.495   -13779714.541 5   5316878.174 3
  17637584.862   -31651697.546 7 -24508200.008 9
 95  2 19 22 37 29.9910000  0  8  2 26 19 18 15  7 31 27
  18692077.901    -6508016.835 7  -4910351.281 8
  22148707.097     -758938.645 4   -421414.090 2
  18901653.972   -24902900.435 7 -19229687.588 7
  21686502.714    -5714396.826 4  -4367055.450 5
  21765100.081    -2366718.676 4  -1646581.839 3
  19734086.261   -13885015.470 6 -10515965.715 6
  21327373.003   -13701411.356 5   5377893.567 4
  17630979.659   -31686424.342 7 -24535259.845 9
 95  2 19 22 37 59.9910000  0  8  2 26 19 18 15  7 31 27
  18684496.862    -6547868.359 7  -4941404.405 8
  22128277.261     -866310.769 3   -505080.599 4
  18907212.901   -24873680.234 7 -19206918.611 7
  21703857.362    -5623203.097 5  -4295995.503 2
  21750273.933    -2444645.707 3  -1707304.113 3
  19712560.433   -13998142.180 6 -10604116.337 6
  21342316.011   -13622890.937 5   5439078.245 3
  17624440.120   -31720772.270 7 -24562024.453 9
 95  2 19 22 38 29.9910000  0  8  2 26 19 18 15  7 31 27
  18676950.620    -6587511.606 7  -4972295.229 8
  22107887.855     -973430.598 3   -588550.531 2
  18912834.628   -24844156.221 7 -19183912.892 7
  21721216.558    -5531968.552 5  -4224903.723 2
  21735498.183    -2522283.901 4  -1767801.292 3
  19691091.120   -14110961.308 6 -10692027.277 6
  21357300.292   -13544146.483 5   5500437.522 2
  17617981.347   -31754729.796 7 -24588484.846 9
 95  2 19 22 38 59.9910000  0  8  2 26 19 18 15  7 31 27
  18669441.839    -6626961.877 7  -5003035.685 8
  22087550.698    -1080300.774 3   -671825.911 1
  18918511.230   -24814323.010 6 -19160666.253 7
  21738585.081    -5440699.225 5  -4153784.843 2
  21720782.980    -2599635.518 4  -1828075.145 2
  19669677.511   -14223496.437 6 -10779716.922 6
  21372323.815   -13465192.801 5   5561959.806 2
  17611589.753   -31788320.898 7 -24614659.729 9
 95  2 19 22 39 29.9910000  0  8  2 26 19 18 15  7 31 27
  18661974.964    -6666204.033 7  -5033613.972 8
  22067269.245    -1186899.520 3   -754889.772 2
  18924248.362   -24784171.133 6 -19137171.303 7
  21755960.105    -5349388.965 4  -4082634.036 1
  21706120.620    -2676680.558 3  -1888110.095 2
  19648317.644   -14335741.379 6 -10867180.442 6
  21387389.659   -13386025.259 5   5623648.741 4
  17605269.503   -31821529.104 7 -24640536.241 9
 95  2 19 22 39 59.9910000  0  8  2 26 19 18 15  7 31 27
  18654545.206    -6705248.313 7  -5064038.061 8
  22047035.464    -1293219.468 3   -837736.410 1
  18930049.261   -24753685.376 6 -19113416.189 7
  21773339.605    -5258048.961 4  -4011460.064 1
  21691520.097    -2753413.447 3  -1947901.800 3
  19627013.948   -14447693.972 6 -10954416.154 6
  21402497.784   -13306649.376 5   5685500.014 4
  17599023.776   -31854353.452 7 -24666113.644 9
 95  2 19 22 40 29.9910000  0  8  2 26 19 18 15  7 31 27
  18647152.417    -6744100.982 7  -5094312.851 8
  22026852.956    -1399261.024 3   -920366.127 2
  18935916.292   -24722853.020 6 -19089391.004 7
  21790730.214    -5166679.758 3  -3940263.340 2
  21676973.722    -2829834.888 3  -2007450.828 4
  19605766.878   -14559355.410 6 -11041424.989 6
  21417644.120   -13227047.526 5   5747527.363 4
  17592848.589   -31886803.749 7 -24691399.581 8
 95  2 19 22 40 59.9910000  0  8  2 26 19 18 15  7 31 27
  18639796.972    -6782760.928 7  -5124437.467 8
  22006731.675    -1505020.070 3  -1002775.687 2
  18941846.159   -24691691.887 6 -19065109.627 7
  21808124.448    -5075281.723 3  -3869044.184 2
  21662493.605    -2905947.863 3  -2066759.504 5
  19584570.362   -14670737.107 6 -11128215.856 6
  21432834.636   -13147213.164 5   5809735.895 4
  17586742.480   -31918879.201 7 -24716393.435 9
 95  2 19 22 41 29.9910000  0  8  2 26 19 18 15  7 31 27
  18632476.425    -6821224.391 7  -5154408.982 8
  21986659.495    -1610486.512 3  -1084957.217 2
  18947836.917   -24660213.287 6 -19040580.868 7
  21825516.519    -4983862.209 3  -3797808.310 2
  21648069.558    -2981749.673 3  -2125825.749 3
  19563432.706   -14781820.616 6 -11214774.360 6
  21448068.980   -13067136.502 5   5872133.224 5
  17580712.675   -31950563.777 7 -24741082.702 9
 95  2 19 22 41 59.9910000  0  8  2 26 19 18 15  7 31 27
  18625197.144    -6859480.796 7  -5184219.157 8
  21966651.151    -1715640.270 3  -1166895.136 2
  18953888.870   -24628412.760 6 -19015801.261 7
  21842923.394    -4892409.479 4  -3726546.532 1
  21633702.683    -3057229.756 3  -2184641.302 5
  19542355.714   -14892582.096 6 -11301081.928 6
  21463360.144   -12986808.276 5   5934726.580 5
  17574759.886   -31981857.767 7 -24765467.619 9
 95  2 19 22 42 29.9910000  0  8  2 26 19 18 15  7 31 27
  18617955.073    -6897526.868 7  -5213865.430 8
  21946698.034    -1820481.233 3  -1248589.298 2
  18959995.558   -24596310.031 6 -18990786.176 7
  21860333.401    -4800929.298 5  -3655263.344 2
  21619399.808    -3132389.909 3  -2243207.560 4
  19521341.972   -15003014.431 6 -11387133.015 7
  21478688.839   -12906242.957 5   5997504.678 5
  17568879.167   -32012763.182 7 -24789549.760 9
 95  2 19 22 42 59.9910000  0  8  2 26 19 18 15  7 31 27
  18610752.605    -6935386.518 7  -5243366.441 9
  21926812.144    -1925013.327 3  -1330042.772 3
  18966161.886   -24563915.699 6 -18965543.864 7
  21877739.909    -4709450.453 5  -3583981.187 2
  21605157.706    -3207239.507 3  -2301531.857 4
  19500388.065   -15113125.590 6 -11472933.833 7
  21494059.605   -12825471.944 5   6060443.059 5
  17563070.339   -32043275.780 7 -24813325.795 8
 95  2 19 22 43 29.9910000  0  8  2 26 19 18 15  7 31 27
  18603585.667    -6973055.395 7  -5272718.798 9
  21906972.081    -2029233.374 3  -1411253.099 1
  18972386.698   -24531208.042 6 -18940057.403 7
  21895145.940    -4617973.391 5  -3512700.441 1
  21590974.464    -3281766.465 3  -2359604.752 5
  19479495.433   -15222912.125 6 -11558481.712 7
  21509470.315   -12744492.322 5   6123543.985 4
  17557338.831   -32073394.509 7 -24836794.938 8
 95  2 19 22 43 59.9910000  0  8  2 26 19 18 15  7 31 27
  18596457.714    -7010519.796 7  -5301911.819 8
  21887200.956    -2133149.048 3  -1492226.263 1
  18978673.026   -24498173.373 7 -18914316.134 7
  21912556.058    -4526489.660 4  -3441414.480 2
  21576857.050    -3355965.169 3  -2417421.858 5
  19458662.144   -15332382.054 6 -11643782.877 7
  21524921.401   -12663304.804 5   6186806.920 5
  17551681.331   -32103123.733 7 -24859960.560 9
